     2              OBSERVATION DATA    GPS                 RINEX VERSION / TYPE
ASRINEXO V2.9.7 UX USGS/MENLO_PARK 26-APR-01 16:27          PGM / RUN BY / DATE
                                                            COMMENT
BIT 2 OF LLI (+4) FLAGS DATA COLLECTED UNDER "AS" CONDITION COMMENT
BIT 2 OF LLI (+4) FLAGS DATA COLLECTED UNDER "AS" CONDITION COMMENT
BIT 2 OF LLI (+4) FLAGS DATA COLLECTED UNDER "AS" CONDITION COMMENT
BIT 2 OF LLI (+4) FLAGS DATA COLLECTED UNDER "AS" CONDITION COMMENT
BIT 2 OF LLI (+4) FLAGS DATA COLLECTED UNDER "AS" CONDITION COMMENT
BIT 2 OF LLI (+4) FLAGS DATA COLLECTED UNDER "AS" CONDITION COMMENT
BIT 2 OF LLI (+4) FLAGS DATA COLLECTED UNDER "AS" CONDITION COMMENT
BIT 2 OF LLI (+4) FLAGS DATA COLLECTED UNDER "AS" CONDITION COMMENT
Original Marker Name: lae1 LAPE1__T6nR4e_S28S27_1919_GLO    COMMENT
Campaign Name: USGS Profiles                                COMMENT
4-Character Station Name: LAE1                              COMMENT
6-Character Antenna Code: DMRCHT                            COMMENT
Vertical Measurement Point: BCR                             COMMENT
Vertical Offset to Rinex Ref. Point: 0.0348                 COMMENT
Radial Measurement Point: ECF                               COMMENT
Radial Offset to Rinex Ref. Point: 0.1897                   COMMENT
Antenna Height from Field Measurement: 1.2040 m             COMMENT
Additional Antenna Identification Info.:                    COMMENT
Turborogue and Ashtech Choke Ring                           COMMENT
Original XYZ: -2350827.2019 -4703313.0700 3599596.7870      COMMENT
New XYZ position is based on association with SCEC monument COMMENT
E1F2J8I6+0011. Position of that monument is believed to be  COMMENT
valid to within 1 m horizontally; vertical accuracy         COMMENT
should be no worse than 3-times this value.                 COMMENT
                                                            COMMENT
Revised Rinex header created by UCSD GPS archive for        COMMENT
GSAC on 07-Jun-2001 (2001:158) 17:27:08 GMT                 COMMENT
For assistance contact dagnew@ucsd.edu                      COMMENT
or anderson@python.ucsd.edu                                 COMMENT
                                                            COMMENT
T6NR4E 528 527 533 534 1919                                 MARKER NAME
CHS US GEOLOGICAL SURVEY                                    OBSERVER / AGENCY
LP019992803 ASHTECH Z-XII3 CD00                             REC # / TYPE / VERS
CR14329 DORNE-MARGOL. TYPE T                                ANT # / TYPE
 -2350839.6563 -4703318.5399  3599600.5209                  APPROX POSITION XYZ
        1.1542        0.0000        0.0000                  ANTENNA: DELTA H/E/N
     1     1     0                                          WAVELENGTH FACT L1/2
     5    C1    L1    L2    P1    P2                        # / TYPES OF OBSERV
    30                                                      INTERVAL
  2001     4    21    16    25    0.000000                  TIME OF FIRST OBS
  2001     4    21    23    59    0.000000                  TIME OF LAST OBS
                                                            END OF HEADER
 01  4 21 16 25  0.0000000  0  6 05 02 04 24 07 09
  23778762.710     -306544.981 8   -219191.67945  23778761.945    23778771.2864
  22707487.334      179451.429 8    134315.16346  22707486.774    22707495.8774
  20596751.237     -102901.905 9    -74483.15748  20596751.396    20596757.4294
  22086853.798     -353486.122 8   -259347.19347  22086853.799    22086862.5604
  22341118.452       22989.58746                  22341118.625    22341126.4234
  21510180.895     -106203.726 9    -76956.74747  21510180.442    21510186.6884
 01  4 21 16 25 30.0010000  0  6 05 02 04 24 07 09
  23776481.887    -1893952.984 8  -1456132.92245  23776480.495    23776490.1044
  22732859.958    -1262635.414 8   -989389.01046  22732859.319    22732868.4314
  20608394.106    -1617138.866 9  -1254408.06748  20608394.166    20608400.1984
  22085111.820    -1938060.790 8  -1494080.63347  22085111.725    22085120.4464
  22366898.038    -1245830.12718  -1099048.67046  22366897.659    22366905.8054
  21521641.156    -1621399.116 9  -1257628.51347  21521640.798    21521647.0694
 01  4 21 16 26  0.0010000  0  6 05 02 04 24 07 09
  23759981.259    -1980663.572 8  -1523699.59445  23759980.228    23759989.5624
  22744062.158    -1203768.177 8   -943518.55446  22744061.444    22744070.6034
  20605928.882    -1630093.799 9  -1264502.85648  20605928.932    20605934.9574
  22069215.328    -2021598.149 8  -1559174.59647  22069215.121    22069223.7834
  22378467.875    -1185031.045 8  -1051672.87147  22378467.399    22378475.5634
  21518985.862    -1635352.677 9  -1268501.44847  21518985.586    21518991.8694
 01  4 21 16 26 30.0010000  0  6 05 02 04 24 07 09
  23743486.690    -2067342.655 8  -1591241.66845  23743485.767    23743495.0514
  22755319.821    -1144609.210 8   -897420.78246  22755319.150    22755328.2774
  20603581.157    -1642431.460 9  -1274116.59048  20603581.198    20603587.2324
  22053389.584    -2104763.077 8  -1623978.37647  22053389.346    22053398.0154
  22390053.812    -1124147.292 8  -1004231.07347  22390053.309    22390061.4224
  21516440.496    -1648728.866 9  -1278924.50947  21516440.218    21516446.4854
 01  4 21 16 27  0.0010000  0  6 05 02 04 24 07 09
  23726998.108    -2153989.964 8  -1658758.99945  23726997.291    23727006.5214
  22766632.810    -1085159.755 8   -851096.65146  22766632.118    22766641.2734
  20601350.663    -1654152.910 9  -1283250.19148  20601350.692    20601356.7444
  22037634.977    -2187554.160 8  -1688490.83547  22037634.713    22037643.3784
  22401655.425    -1063181.001 8   -956724.96947  22401654.827    22401663.0054
  21514004.919    -1661528.257 9  -1288898.09947  21514004.624    21514010.8784
 01  4 21 16 27 30.0010000  0  6 05 02 04 24 07 09
  23710516.094    -2240603.348 8  -1726249.90045  23710515.262    23710524.5024
  22778001.161    -1025418.976 8   -804545.53246  22778000.488    22778009.6284
  20599237.695    -1665256.733 9  -1291902.52848  20599237.734    20599243.7764
  22021952.070    -2269968.327 9  -1752709.60647  22021951.810    22021960.4394
  22413272.810    -1002132.118 8   -909154.51047  22413272.154    22413280.3284
  21511679.350    -1673749.444 9  -1298421.13847  21511679.074    21511685.3184
 01  4 21 16 28  0.0010000  0  6 05 02 04 24 07 09
  23694040.881    -2327181.051 8  -1793712.98545  23694040.107    23694049.3174
  22789425.062     -965386.304 8   -757766.96346  22789424.390    22789433.5704
  20597242.309    -1675742.664 9  -1300073.38748  20597242.336    20597248.3854
  22006341.400    -2352002.775 8  -1816632.48647  22006341.117    22006349.7394
  22424905.785     -941000.946 8   -861519.92247  22424905.081    22424913.2564
  21509463.988    -1685391.666 9  -1307493.03747  21509463.698    21509469.9424
 01  4 21 16 28 30.0010000  0  6 05 02 04 24 07 09
  23677572.158    -2413724.712 8  -1861149.55145  23677571.368    23677580.6114
  22800904.035     -905064.387 8   -710763.01146  22800903.353    22800912.5824
  20595364.105    -1685612.929 9  -1307764.51148  20595364.126    20595370.1774
  21990802.958    -2433657.690 9  -1880259.62447  21990802.674    21990811.2734
  22436553.703     -879791.188 8   -813824.10547  22436553.007    22436561.2174
  21507358.310    -1696457.222 9  -1316115.58447  21507358.026    21507364.3014
 01  4 21 16 29  0.0010000  0  6 05 02 04 24 07 09
  23661110.437    -2500231.438 8  -1928557.32145  23661109.684    23661118.9614
  22812438.392     -844451.712 8   -663532.48546  22812437.748    22812446.9594
  20593603.279    -1694866.183 9  -1314974.84748  20593603.315    20593609.3734
  21975337.542    -2514928.852 9  -1943587.74147  21975337.281    21975345.8644
  22448216.670     -818502.089 8   -766066.47047  22448215.983    22448224.2384
  21505362.745    -1706944.333 9  -1324287.39447  21505362.467    21505368.7564
 01  4 21 16 29 30.0010000  0  6 05 02 04 24 07 09
  23644655.805    -2586700.774 8  -1995935.96945  23644655.076    23644664.3164
  22824027.942     -783548.859 8   -616075.86046  22824027.255    22824036.5724
  20591959.777    -1703502.978 9  -1321704.81948  20591959.813    20591965.8904
  21959945.385    -2595814.959 8  -2006615.81447  21959945.106    21959953.6954
  22459894.527     -757135.061 8   -718248.11147  22459893.849    22459902.0944
  21503477.225    -1716852.924 9  -1332008.40547  21503476.953    21503483.2794
 01  4 21 16 30  0.0010000  0  6 05 02 04 24 07 09
  23628208.578    -2673131.272 8  -2063284.34645  23628207.892    23628217.2164
  22835672.720     -722355.710 8   -568393.02946  22835672.053    22835681.4084
  20590433.646    -1711522.951 9  -1327954.14848  20590433.669    20590439.7544
  21944626.951    -2676313.708 9  -2069342.04247  21944626.661    21944635.2564
  22471587.098     -695690.900 8   -670369.64047  22471586.364    22471594.6524
  21501701.861    -1726182.762 9  -1339278.44047  21501701.592    21501707.9344
 01  4 21 16 30 30.0010000  0  6 05 02 04 24 07 09
  23611768.775    -2759522.683 8  -2130602.26945  23611768.113    23611777.4554
  22847372.583     -660873.189 8   -520484.70746  22847371.913    22847381.2864
  20589024.729    -1718926.965 9  -1333723.51548  20589024.755    20589030.8254
  21929382.532    -2756423.457 9  -2131765.15847  21929382.225    21929390.8464
  22483293.965     -634171.418 8   -622432.48647  22483293.240    22483301.5624
  21500036.481    -1734934.371 9  -1346097.90647  21500036.225    21500042.6054
 01  4 21 16 31  0.0010000  0  6 05 02 04 24 07 09
  23595336.909    -2845872.852 8  -2197888.07045  23595336.189    23595345.5994
  22859127.667     -599100.803 8   -472350.53046  22859126.985    22859136.3194
  20587733.116    -1725714.583 9  -1339012.57348  20587733.159    20587739.2184
  21914212.681    -2836141.612 9  -2193883.13247  21914212.376    21914220.9704
  22495015.119     -572576.619 8   -574436.64046  22495014.395    22495022.7544
  21498481.425    -1743106.654 9  -1352465.94847  21498481.161    21498487.5484
 01  4 21 16 31 30.0010000  0  6 05 02 04 24 07 09
  23578913.125    -2932180.511 8  -2265140.74545  23578912.368    23578921.7674
  22870937.936     -537038.556 8   -423990.47146  22870937.229    22870946.5784
  20586558.815    -1731885.738 9  -1343821.27148  20586558.842    20586564.9154
  21899117.852    -2915465.529 9  -2255693.90847  21899117.526    21899126.0914
  22506750.485     -510907.383 8   -526382.78746  22506749.761    22506758.1634
  21497036.696    -1750699.087 9  -1358382.16247  21497036.421    21497042.8174
 01  4 21 16 32  0.0010000  0  6 05 02 04 24 07 09
  23562496.779    -3018448.883 8  -2332362.80345  23562496.054    23562505.4284
  22882802.323     -474691.069 8   -375408.15546  22882801.586    22882811.0544
  20585500.958    -1737445.049 9  -1348153.20848  20585500.984    20585507.0514
  21884097.572    -2994397.663 9  -2317199.40247  21884097.245    21884105.7644
  22518498.986     -449169.115 8   -478275.13946  22518498.228    22518506.6644
  21495701.433    -1757716.215 9  -1363850.08347  21495701.146    21495707.5604
 01  4 21 16 32 30.0010000  0  6 05 02 04 24 07 09
  23546089.302    -3104670.558 8  -2399548.48145  23546088.562    23546097.9374
  22894722.126     -412052.324 8   -326598.89246  22894721.404    22894730.9674
  20584560.667    -1742386.526 9  -1352003.71848  20584560.685    20584566.7464
  21869153.421    -3072929.649 9  -2378393.09847  21869153.090    21869161.5684
  22530261.637     -387356.628 8   -430109.66046  22530260.865    22530269.2864
  21494476.843    -1764151.758 9  -1368864.82847  21494476.563    21494482.9594
 01  4 21 16 33  0.0010000  0  6 05 02 04 24 07 09
  23529690.327    -3190847.626 8  -2466699.39045  23529689.615    23529699.0044
  22906696.774     -349125.883 8   -277565.45946  22906696.044    22906705.6404
  20583737.267    -1746713.506 9  -1355375.40548  20583737.295    20583743.3414
  21854285.244    -3151062.490 9  -2439275.77247  21854284.903    21854293.3584
  22542037.626     -325473.773 8   -381889.34546  22542036.892    22542045.3134
  21493362.356    -1770008.770 9  -1373428.76847  21493362.065    21493368.4594
 01  4 21 16 33 30.0010000  0  6 05 02 04 24 07 09
  23513301.126    -3276973.772 8  -2533810.61846  23513300.371    23513309.6734
  22918727.087     -285906.819 8   -228303.99146  22918726.346    22918735.9874
  20583031.762    -1750421.246 9  -1358264.56148  20583031.794    20583037.8274
  21839494.349    -3228789.044 9  -2499841.85147  21839494.013    21839502.4494
  22553827.805     -263516.482 8   -333611.03846  22553827.080    22553835.4954
  21492358.926    -1775282.110 9  -1377537.89747  21492358.630    21492365.0214
 01  4 21 16 34  0.0010000  0  6 05 02 04 24 07 09
  23496921.580    -3363049.100 8  -2600882.26046  23496920.810    23496930.0274
  22930812.764     -222396.641 8   -178815.69046  22930812.049    22930821.7174
  20582443.764    -1753511.440 9  -1360672.51648  20582443.781    20582449.8374
  21824780.877    -3306108.746 9  -2560090.91047  21824780.549    21824788.9354
  22565631.739     -201487.043 8   -285276.50746  22565631.008    22565639.4194
  21491466.317    -1779973.045 9  -1381193.20547  21491466.027    21491472.4354
 01  4 21 16 34 30.0010000  0  6 05 02 04 24 07 09
  23480551.535    -3449073.911 8  -2667914.53746  23480550.793    23480559.9644
  22942953.614     -158597.185 8   -129101.97746  22942952.864    22942962.5054
  20581972.897    -1755985.981 9  -1362600.74448  20581972.917    20581978.9534
  21810144.941    -3383020.945 9  -2620022.43047  21810144.611    21810152.9844
  22577448.899     -139387.911 8   -236887.67746  22577448.178    22577456.6034
  21490684.214    -1784083.236 9  -1384395.99047  21490683.919    21490690.3274
 01  4 21 16 35  0.0010000  0  6 05 02 04 24 07 09
  23464191.107    -3535048.203 8  -2734907.44146  23464190.410    23464199.5654
  22955149.154      -94510.004 8    -79164.05646  22955148.381    22955158.0534
  20581618.939    -1757846.131 9  -1364050.21748  20581618.942    20581625.0014
  21795586.652    -3459524.919 9  -2679635.84847  21795586.330    21795594.6904
  22589278.922      -77221.159 8   -188446.14646  22589278.188    22589286.6474
  21490012.334    -1787614.222 9  -1387147.43347  21490012.024    21490018.4544
 01  4 21 16 35 30.0010000  0  6 05 02 04 24 07 09
  23447840.637    -3620970.013 8  -2801859.43945  23447839.918    23447849.1134
  22967399.404      -30134.616 8    -29001.57546  22967398.680    22967408.4664
  20581381.907    -1759091.901 9  -1365020.96248  20581381.916    20581387.9714
  21781106.577    -3535617.936 9  -2738929.04447  21781106.244    21781114.6324
  22601121.764      -14986.983 8   -139952.07946  22601121.069    22601129.5834
  21489450.822    -1790564.933 9  -1389446.72147  21489450.533    21489457.0134
 01  4 21 16 36  0.0010000  0  6 05 02 04 24 07 09
  23431501.011    -3706834.899 8  -2868767.08845  23431500.320    23431509.5374
  22979705.140       34531.912 8     21387.77246  22979704.431    22979714.2764
  20581262.305    -1759720.494 9  -1365510.78748  20581262.319    20581268.3834
  21766705.738    -3611294.643 9  -2797897.84447  21766705.424    21766713.8224
  22612977.936       47317.100 8    -91403.54946  22612977.201    22612985.8194
  21489000.375    -1792932.074 9  -1391291.28647  21489000.085    21489006.6164
 01  4 21 16 36 30.0010000  0  6 05 02 04 24 07 09
  23415172.056    -3792643.594 8  -2935630.94246  23415171.424    23415180.6674
  22992065.876       99487.252 8     72002.17546  22992065.184    22992075.0524
  20581259.684    -1759734.277 9  -1365521.53648  20581259.710    20581265.7894
  21752384.092    -3686555.033 9  -2856542.23847  21752383.778    21752392.1824
  22624846.774      109687.958 8    -42802.98246  22624846.065    22624854.7234
  21488660.528    -1794718.116 9  -1392683.04147  21488660.250    21488666.7874
 01  4 21 16 37  0.0010000  0  6 05 02 04 24 07 09
  23398853.856    -3878395.854 8  -3002450.81146  23398853.251    23398862.5124
  23004481.363      164730.293 8    122840.76046  23004480.649    23004490.5744
  20581373.831    -1759134.664 9  -1365054.31548  20581373.851    20581379.9374
  21738141.912    -3761397.808 9  -2914861.21747  21738141.598    21738150.0494
  22636727.938      172123.785 8      5848.20646  22636727.259    22636735.9304
  21488431.069    -1795924.103 9  -1393622.80747  21488430.799    21488437.3254
 01  4 21 16 37 30.0010000  0  6 05 02 04 24 07 09
  23382546.703    -3964090.412 8  -3069225.73346  23382546.150    23382555.3944
  23016951.507      230260.536 8    173903.13346  23016950.786    23016960.7954
  20581604.524    -1757922.474 9  -1364109.76248  20581604.552    20581610.6414
  21723979.474    -3835821.485 9  -2972853.62947  21723979.172    21723987.6624
  22648621.464      234623.747 8     54549.38046  22648620.696    22648629.4054
  21488312.006    -1796550.180 9  -1394110.69247  21488311.721    21488318.2334
 01  4 21 16 38  0.0010000  0  6 05 02 04 24 07 09
  23366250.941    -4049725.581 8  -3135954.37146  23366250.332    23366259.5184
  23029476.337      296078.233 8    225189.49546  23029475.625    23029485.6444
  20581951.848    -1756097.383 9  -1362687.61848  20581951.871    20581957.9524
  21709897.346    -3909823.388 9  -3030517.38447  21709897.041    21709905.5114
  22660526.993      297187.453 8    103300.21646  22660526.264    22660534.9714
  21488303.299    -1796596.045 9  -1394146.46147  21488303.017    21488309.5324
 01  4 21 16 38 30.0010000  0  6 05 02 04 24 07 09
  23349966.763    -4135299.535 8  -3202635.30546  23349966.125    23349975.2874
  23042055.960      362183.720 8    276700.09946  23042055.216    23042065.2274
  20582415.810    -1753659.311 9  -1360787.83348  20582415.830    20582421.9234
  21695896.014    -3983400.732 9  -3087850.31847  21695895.714    21695904.1414
  22672444.660      359814.746 8    152100.60246  22672443.943    22672452.6364
  21488405.127    -1796061.252 9  -1393729.77947  21488404.847    21488411.3744
 01  4 21 16 39  0.0010000  0  6 05 02 04 24 07 09
  23333694.429    -4220810.666 8  -3269267.27246  23333693.830    23333703.0194
  23054690.291      428576.694 8    328434.72646  23054689.570    23054699.5344
  20582996.254    -1750608.980 9  -1358410.95848  20582996.278    20583002.3734
  21681975.806    -4056551.895 9  -3144851.16247  21681975.471    21681983.8734
  22684374.275      422504.771 8    200949.87846  22684373.545    22684382.2744
  21488617.375    -1794945.891 9  -1392860.69747  21488617.110    21488623.6684
 01  4 21 16 39 30.0010000  0  6 05 02 04 24 07 09
  23317434.391    -4306257.527 8  -3335849.18846  23317433.847    23317443.0214
  23067379.198      495256.983 8    380393.23146  23067378.506    23067388.4834
  20583693.186    -1746946.681 9  -1355557.22848  20583693.206    20583699.3244
  21668137.044    -4129275.004 9  -3201518.46047  21668136.711    21668145.0634
  22696315.719      485257.124 8    249847.70946  22696314.978    22696323.7404
  21488940.157    -1793249.981 9  -1391539.24447  21488939.896    21488946.4474
 01  4 21 16 40  0.0010000  0  6 05 02 04 24 07 09
  23301186.955    -4391638.406 8  -3402379.67546  23301186.335    23301195.5234
  23080122.778      562224.537 8    432575.57146  23080122.113    23080132.1464
  20584506.510    -1742672.516 9  -1352226.72148  20584506.533    20584512.6794
  21654380.254    -4201567.277 9  -3257850.04147  21654379.915    21654388.2404
  22708268.980      548071.176 8    298793.62646  22708268.183    22708276.9264
  21489373.393    -1790973.424 9  -1389765.34147  21489373.126    21489379.6734
 01  4 21 16 40 30.0010000  0  6 05 02 04 24 07 09
  23284952.198    -4476952.448 8  -3468858.08646  23284951.623    23284960.7524
  23092921.002      629478.701 8    484981.25246  23092920.304    23092930.3464
  20585436.132    -1737787.503 9  -1348420.22948  20585436.149    20585442.2944
  21640705.794    -4273426.804 9  -3313844.42247  21640705.461    21640713.7464
  22720233.727      610946.016 8    347786.91746  22720232.960    22720241.6884
  21489917.050    -1788116.731 9  -1387539.38047  21489916.770    21489923.3384
 01  4 21 16 41  0.0010000  0  6 05 02 04 24 07 09
  23268730.497    -4562198.292 8  -3535283.36046  23268729.893    23268738.8964
  23105773.623      697019.236 8    537610.07146  23105772.916    23105783.0504
  20586481.894    -1732292.373 9  -1344138.31948  20586481.905    20586488.0334
  21627113.977    -4344852.103 9  -3369500.44147  21627113.651    21627121.9194
  22732209.894      673880.694 8    396826.82246  22732209.149    22732217.8534
  21490571.021    -1784680.386 9  -1384861.74147  21490570.737    21490577.2854
 01  4 21 16 41 30.0010000  0  6 05 02 04 24 07 09
  23252522.101    -4647374.062 8  -3601654.02146  23252521.434    23252530.4834
  23118680.733      764845.951 8    590461.88046  23118680.011    23118690.2134
  20587643.642    -1726187.427 9  -1339381.23548  20587643.651    20587649.7864
  21613605.171    -4415841.247 9  -3424816.60447  21613604.843    21613613.0834
  22744197.379      736874.893 8    445913.10846  22744196.610    22744205.3554
  21491335.307    -1780664.242 9  -1381732.31447  21491335.018    21491341.5554
 01  4 21 16 42  0.0010000  0  6 05 02 04 24 07 09
  23236327.235    -4732478.020 8  -3667968.74746  23236326.576    23236335.6594
  23131642.288      832959.007 8    643536.80446  23131641.598    23131651.8224
  20588921.335    -1719472.947 9  -1334149.21148  20588921.376    20588927.4354
  21600179.789    -4486391.796 9  -3479791.02147  21600179.487    21600187.6564
  22756196.026      799928.220 8    495045.45346  22756195.324    22756204.0724
  21492209.958    -1776068.023 9  -1378150.90047  21492209.683    21492216.1594
 01  4 21 16 42 30.0010000  0  6 05 02 04 24 07 09
  23220146.272    -4817508.952 8  -3734226.55546  23220145.658    23220154.6654
  23144658.190      901357.895 8    696834.46546  23144657.537    23144667.8554
  20590314.860    -1712149.873 9  -1328442.93548  20590314.941    20590320.9214
  21586838.170    -4556502.018 9  -3534422.30947  21586837.903    21586846.0134
  22768205.741      863039.816 8    544223.21746  22768205.070    22768213.8404
  21493194.763    -1770892.596 9  -1374118.13447  21493194.541    21493201.0044
 01  4 21 16 43  0.0010000  0  6 05 02 04 24 07 09
  23203979.521    -4902465.367 8  -3800426.30846  23203978.980    23203987.8784
  23157728.506      970042.125 8    750354.47046  23157727.918    23157738.1684
  20591824.087    -1704218.820 9  -1322262.91048  20591824.187    20591830.1704
  21573580.745    -4626169.862 9  -3588708.88747  21573580.501    21573588.5634
  22780226.541      926208.942 8    593445.81646  22780225.908    22780234.6114
  21494289.825    -1765138.108 9  -1369634.15447  21494289.603    21494296.0624
 01  4 21 16 43 30.0010000  0  6 05 02 04 24 07 09
  23187827.069    -4987346.764 8  -3866567.58746  23187826.522    23187835.3474
  23170852.927     1039010.576 8    804095.94146  23170852.303    23170862.6054
  20593448.613    -1695681.586 9  -1315610.53748  20593448.742    20593454.7494
  21560407.773    -4695394.090 9  -3642649.79047  21560407.551    21560415.5574
  22792257.921      989433.948 8    642711.94646  22792257.299    22792265.9944
  21495494.777    -1758806.087 9  -1364700.14747  21495494.599    21495501.0304
 01  4 21 16 44  0.0010000  0  6 05 02 04 24 07 09
  23171689.305    -5072150.849 8  -3932648.61946  23171688.774    23171697.5664
  23184031.508     1108263.475 8    858059.04846  23184030.849    23184041.1794
  20595188.550    -1686538.164 9  -1308485.81248  20595188.697    20595194.6924
  21547319.648    -4764172.310 9  -3696243.15747  21547319.431    21547327.4314
  22804299.998     1052714.924 8    692021.69446  22804299.372    22804308.0674
  21496809.747    -1751896.063 9  -1359315.74947  21496809.578    21496816.0084
 01  4 21 16 44 30.0010000  0  6 05 02 04 24 07 09
  23155566.623    -5156875.712 8  -3998667.93146  23155566.065    23155574.8694
  23197264.122     1177800.852 8    912243.84146  23197263.508    23197273.8724
  20597043.835    -1676788.856 9  -1300888.96748  20597043.973    20597049.9484
  21534316.812    -4832502.622 9  -3749487.50247  21534316.603    21534324.5744
  22816352.638     1116051.620 8    741374.85846  22816352.018    22816360.7494
  21498234.725    -1744407.922 9  -1353480.86347  21498234.552    21498240.9754
 01  4 21 16 45  0.0010000  0  6 05 02 04 24 07 09
  23139459.340    -5241519.893 8  -4064624.37746  23139458.766    23139467.5424
  23210550.768     1247622.213 8    966649.90746  23210550.250    23210560.5684
  20599014.240    -1666434.460 9  -1292820.62648  20599014.389    20599020.3504
  21521399.587    -4900382.892 9  -3802381.17047  21521399.395    21521407.3354
  22828415.741     1179443.407 8    790770.93946  22828415.147    22828423.9094
  21499769.579    -1736342.169 9  -1347195.89647  21499769.429    21499775.8494
 01  4 21 16 45 30.0010000  0  6 05 02 04 24 07 09
  23123367.595    -5326082.342 8  -4130517.12946  23123367.026    23123375.7294
  23223891.464     1317726.890 8   1021276.75146  23223890.925    23223901.2154
  20601099.508    -1655476.321 9  -1284281.83648  20601099.655    20601105.5994
  21508568.218    -4967811.832 9  -3854923.15247  21508568.038    21508575.9374
  22840489.171     1242889.240 8    840209.14546  22840488.569    22840497.3284
  21501414.232    -1727699.692 9  -1340461.53547  21501414.081    21501420.4974
 01  4 21 16 46  0.0010000  0  6 05 02 04 24 07 09
  23107291.732    -5410561.624 8  -4196345.08246  23107291.125    23107299.7684
  23237285.886     1388114.471 8   1076124.00746  23237285.392    23237295.7214
  20603299.581    -1643914.877 9  -1275272.93748  20603299.742    20603305.6784
  21495823.178    -5034787.471 9  -3907111.91347  21495822.991    21495830.8604
  22852572.689     1306388.336 8    889688.84646  22852572.064    22852580.9484
  21503168.501    -1718481.101 9  -1333278.25447  21503168.366    21503174.7734
 01  4 21 16 46 30.0010000  0  6 05 02 04 24 07 09
  23091231.996    -5494955.910 8  -4262106.79346  23091231.373    23091240.0314
  23250734.212     1458784.827 8   1131191.62446  23250733.632    23250744.0804
  20605614.217    -1631751.283 9  -1265794.82948  20605614.400    20605620.3494
  21483164.785    -5101307.797 9  -3958945.88347  21483164.585    21483172.4214
  22864666.297     1369940.567 8    939209.96346  22864665.701    22864674.6514
  21505032.441    -1708686.433 9  -1325646.08547  21505032.276    21505038.6774
 01  4 21 16 47  0.0010000  0  6 05 02 04 24 07 09
  23075188.641    -5579263.701 8  -4327801.09946  23075188.070    23075196.7684
  23264236.259     1529737.434 8   1186479.17846  23264235.644    23264246.0964
  20608043.397    -1618986.302 9  -1255848.10748  20608043.558    20608049.4834
  21470593.356    -5167370.882 9  -4010423.56447  21470593.158    21470600.9794
  22876769.939     1433545.029 8    988771.78846  22876769.352    22876778.2684
  21507005.865    -1698316.234 9  -1317565.44647  21507005.700    21507012.1004
 01  4 21 16 47 30.0010000  0  6 05 02 04 24 07 09
  23059162.071    -5663483.471 8  -4393426.80446  23059161.505    23059170.2444
  23277791.848     1600971.858 8   1241986.32246  23277791.200    23277801.6974
  20610586.773    -1605620.749 9  -1245433.40748  20610586.938    20610592.8784
  21458109.146    -5232975.502 9  -4061544.00147  21458108.960    21458116.7854
  22888883.428     1497201.278 8   1038373.94946  22888882.806    22888891.7714
  21509088.618    -1687371.367 9  -1309037.01647  21509088.458    21509094.9054
 01  4 21 16 48  0.0010000  0  6 05 02 04 24 07 09
  23043152.733    -5747613.123 8  -4458982.30846  23043152.168    23043160.8504
  23291401.026     1672487.903 8   1297712.90446  23291400.389    23291410.9654
  20613244.291    -1591655.299 9  -1234551.25948  20613244.478    20613250.4254
  21445712.634    -5298119.248 9  -4112305.32047  21445712.442    21445720.2924
  22901006.705     1560909.097 8   1088016.29546  22901006.073    22901015.0974
  21511280.768    -1675851.678 9  -1300060.68147  21511280.610    21511287.0554
 01  4 21 16 48 30.0010000  0  6 05 02 04 24 07 09
  23027160.698    -5831651.639 8  -4524466.80646  23027160.139    23027168.7864
  23305063.689     1744284.871 8   1353658.38446  23305063.070    23305073.6354
  20616015.774    -1577091.200 9  -1223202.63448  20616015.959    20616021.9104
  21433404.059    -5362800.917 9  -4162706.58047  21433403.903    21433411.7414
  22913139.599     1624667.523 8   1137698.06746  22913138.994    22913148.0264
  21513582.133    -1663758.088 9  -1290637.15147  21513581.987    21513588.4424
 01  4 21 16 49  0.0010000  0  6 05 02 04 24 07 09
  23011186.226    -5915597.246 8  -4589878.88746  23011185.758    23011194.4064
  23318779.679     1816362.598 8   1409822.64446  23318779.065    23318789.7774
  20618900.996    -1561929.220 9  -1211388.11948  20618901.192    20618907.1674
  21421183.892    -5427018.161 9  -4212745.94247  21421183.733    21421191.5644
  22925282.054     1688476.190 8   1187418.99546  22925281.477    22925290.5194
  21515992.650    -1651090.931 9  -1280766.68447  21515992.498    21515998.9544
 01  4 21 16 49 30.0010000  0  6 05 02 04 24 07 09
  22995229.862    -5999448.133 8  -4655217.19046  22995229.464    22995238.0554
  23332549.095     1888720.723 8   1466205.37746  23332548.512    23332559.2984
  20621899.819    -1546170.447 9  -1199108.57548  20621900.016    20621906.0034
  21409052.403    -5490769.277 9  -4262422.09547  21409052.242    21409060.0884
  22937434.059     1752334.759 8   1237178.81746  22937433.485    22937442.5014
  21518512.202    -1637850.950 9  -1270449.86247  21518512.044    21518518.4804
 01  4 21 16 50  0.0010000  0  6 05 02 04 24 07 09
  22979291.771    -6083203.393 8  -4720480.96446  22979291.347    22979299.8824
  23346371.783     1961358.350 8   1522805.90046  23346371.203    23346382.0044
  20625012.036    -1529815.852 9  -1186364.75648  20625012.221    20625018.2054
  21397009.806    -5554053.378 9  -4311734.33947  21397009.649    21397017.5004
  22949595.322     1816241.865 8   1286976.46046  22949594.726    22949603.7834
  21521140.524    -1624039.285 9  -1259687.57347  21521140.364    21521146.8214
 01  4 21 16 50 30.0010000  0  6 05 02 04 24 07 09
  22963372.236    -6166861.088 8  -4785668.72446  22963371.789    22963380.3374
  23360247.553     2034275.144 8   1579623.95546  23360246.957    23360257.8124
  20628237.322    -1512867.052 9  -1173157.91748  20628237.498    20628243.4994
  21385056.408    -5616868.643 9  -4360681.25347  21385056.254    21385064.0944
  22961765.757     1880197.259 8   1336811.71946  22961765.130    22961774.2004
  21523877.487    -1609656.429 9  -1248480.20047  21523877.340    21523883.8414
 01  4 21 16 51  0.0010000  0  6 05 02 04 24 07 09
  22947471.597    -6250419.450 8  -4850779.07846  22947471.106    22947479.6454
  23374176.375     2107470.772 8   1636659.27846  23374175.745    23374186.7514
  20631575.553    -1495324.592 9  -1159488.48848  20631575.737    20631581.7394
  21373192.639    -5679213.110 9  -4409261.31947  21373192.487    21373200.3084
  22973945.357     1944200.790 8   1386684.49046  22973944.718    22973953.7554
  21526723.040    -1594702.988 9  -1236828.21847  21526722.910    21526729.4344
 01  4 21 16 51 30.0010000  0  6 05 02 04 24 07 09
  22931590.011    -6333877.458 8  -4915811.24246  22931589.551    22931598.0664
  23388158.153     2180944.334 8   1693911.17146  23388157.495    23388168.5194
  20635026.497    -1477189.955 9  -1145357.62448  20635026.688    20635032.6884
  21361418.705    -5741085.503 9  -4457473.53247  21361418.538    21361426.3584
  22986133.782     2008251.267 8   1436593.83746  22986133.211    22986142.2434
  21529677.026    -1579179.931 9  -1224732.37847  21529676.895    21529683.4204
 01  4 21 16 52  0.0010000  0  6 05 02 04 24 07 09
  22915728.018    -6417232.877 8  -4980763.46746  22915727.552    22915736.0224
  23402192.812     2254695.828 8   1751379.62946  23402192.169    23402203.1364
  20638589.916    -1458463.995 9  -1130765.98648  20638590.101    20638596.1224
  21349735.023    -5802483.592 9  -4505316.16047  21349734.846    21349742.6594
  22998331.189     2072348.701 8   1486539.78046  22998330.607    22998339.6864
  21532739.390    -1563087.616 9  -1212192.96147  21532739.245    21532745.7554
 01  4 21 16 52 30.0010000  0  6 05 02 04 24 07 09
  22899885.806    -6500484.195 8  -5045634.55946  22899885.329    22899893.8334
  23416280.140     2328724.425 8   1809064.02946  23416279.567    23416290.4964
  20642265.703    -1439147.812 9  -1115714.43448  20642265.887    20642271.9124
  21338141.795    -5863406.299 9  -4552788.35947  21338141.632    21338149.4114
  23010537.478     2136492.521 8   1536521.85546  23010536.877    23010545.9634
  21535909.833    -1546426.992 9  -1199210.70047  21535909.690    21535916.1944
 01  4 21 16 53  0.0010000  0  6 05 02 04 24 07 09
  22884063.780    -6583629.476 8  -5110423.01946  22884063.283    22884071.7434
  23430420.120     2403029.849 8   1866964.11846  23430419.498    23430430.5454
  20646053.584    -1419242.461 9  -1100203.79048  20646053.774    20646059.8024
  21326639.424    -5923851.617 9  -4599888.56347  21326639.255    21326647.0454
  23022752.432     2200682.407 8   1586539.84346  23022751.850    23022761.0174
  21539188.306    -1529198.684 9  -1185786.09147  21539188.160    21539194.6804
 01  4 21 16 53 30.0010000  0  6 05 02 04 24 07 09
  22868262.216    -6666667.181 8  -5175127.65046  22868261.692    22868270.1424
  23444612.693     2477611.437 8   1925079.42146  23444612.072    23444623.1484
  20649953.374    -1398749.096 9  -1084234.96148  20649953.545    20649959.5754
  21315228.211    -5983817.962 9  -4646615.54647  21315228.045    21315235.7804
  23034976.059     2264917.796 8   1636593.27146  23034975.498    23034984.7394
  21542574.666    -1511403.404 9  -1171919.68347  21542574.526    21542581.0884
 01  4 21 16 54  0.0010000  0  6 05 02 04 24 07 09
  22852481.297    -6749595.763 8  -5239747.24646  22852480.777    22852489.2594
  23458857.718     2552468.618 8   1983409.45246  23458857.131    23458868.3344
  20653964.793    -1377669.136 9  -1067809.04148  20653964.948    20653970.9994
  21303908.407    -6043303.843 9  -4692968.13847  21303908.221    21303915.9504
  23047208.264     2329197.988 8   1686681.61946  23047207.690    23047217.0004
  21546068.693    -1493042.324 9  -1157612.39447  21546068.557    21546075.1384
 01  4 21 16 54 30.0010000  0  6 05 02 04 24 07 09
  22836721.593    -6832413.504 8  -5304280.48646  22836721.067    22836729.4504
  23473155.104     2627600.700 8   2041953.70746  23473154.463    23473165.7394
  20658087.594    -1356003.786 9  -1050926.97748  20658087.763    20658093.8034
  21292680.332    -6102307.635 9  -4738945.07947  21292680.154    21292687.8764
  23059448.929     2393522.511 8   1736804.49646  23059448.346    23059457.7214
  21549670.276    -1474116.150 9  -1142864.77247  21549670.144    21549676.7224
 01  4 21 16 55  0.0010000  0  6 05 02 04 24 07 09
  22820983.137    -6915118.955 8  -5368726.21446  22820982.652    22820990.9664
  23487504.656     2703007.010 8   2100711.63446  23487503.989    23487515.3194
  20662321.456    -1333754.887 9  -1033590.19848  20662321.602    20662327.6504
  21281544.208    -6160828.323 9  -4784545.57647  21281544.024    21281551.7324
  23071697.858     2457890.593 8   1786961.32146  23071697.326    23071706.6614
  21553379.170    -1454626.083 9  -1127677.75247  21553379.026    21553385.6134
 01  4 21 16 55 30.0010000  0  6 05 02 04 24 07 09
  22805266.510    -6997710.162 8  -5433082.93846  22805266.033    22805274.3044
  23501906.324     2778687.388 8   2159683.11246  23501905.679    23501917.0614
  20666666.315    -1310922.593 9  -1015798.83148  20666666.485    20666672.5274
  21270500.423    -6218863.842 9  -4829768.01947  21270500.229    21270507.9244
  23083955.166     2522302.180 8   1837152.03946  23083954.551    23083963.8834
  21557195.210    -1434572.761 9  -1112051.83647  21557195.064    21557201.6674
 01  4 21 16 56  0.0010000  0  6 05 02 04 24 07 09
  22789571.965    -7080185.472 8  -5497349.32746  22789571.488    22789579.7234
  23516360.090     2854641.268 8   2218867.70146  23516359.492    23516370.9094
  20671121.831    -1287508.795 9   -997554.34148  20671122.010    20671128.0364
  21259549.069    -6276413.407 9  -4874611.79347  21259548.881    21259556.5614
  23096220.616     2586756.948 8   1887376.40446  23096220.029    23096229.3304
  21561118.341    -1413956.991 9  -1095987.64447  21561118.188    21561124.8184
 01  4 21 16 56 30.0010000  0  6 05 02 04 24 07 09
  22773899.688    -7162543.478 8  -5561524.32146  22773899.217    22773907.4574
  23530865.750     2930867.672 8   2278264.63846  23530865.141    23530876.5514
  20675687.703    -1263515.208 9   -978858.07448  20675687.879    20675693.9004
  21248690.578    -6333475.055 9  -4919075.37347  21248690.388    21248698.0604
  23108494.114     2651253.860 8   1937633.61446  23108493.523    23108502.8504
  21565148.184    -1392780.059 9  -1079486.18647  21565148.039    21565154.6804
 01  4 21 16 57  0.0010000  0  6 05 02 04 24 07 09
  22758250.084    -7244782.565 8  -5625606.65846  22758249.602    22758257.7974
  23545423.059     3007365.715 8   2337873.26045  23545422.442    23545433.8354
  20680363.651    -1238942.988 9   -959710.92648  20680363.822    20680369.8474
  21237925.205    -6390047.507 9  -4963157.76647  21237925.010    21237932.6544
  23120775.552     2715792.584 8   1987923.39446  23120774.950    23120784.2594
  21569284.662    -1371043.039 9  -1062548.29947  21569284.495    21569291.1474
 01  4 21 16 57 30.0010000  0  6 05 02 04 24 07 09
  22742623.553    -7326900.338 8  -5689594.46346  22742623.030    22742631.2294
  23560032.036     3084135.576 8   2397693.68545  23560031.419    23560042.8554
  20685149.534    -1213793.234 9   -940113.75048  20685149.689    20685155.7214
  21227253.138    -6446129.382 9  -5006857.88747  21227252.949    21227260.5814
  23133064.966     2780373.192 8   2038245.81746  23133064.353    23133073.6974
  21573527.650    -1348746.356 9  -1045174.31647  21573527.478    21573534.1144
 01  4 21 16 58  0.0010000  0  6 05 02 04 24 07 09
  22727020.406    -7408895.400 8  -5753486.65746  22727019.881    22727028.0284
  23574692.565     3161176.280 8   2457725.14445  23574691.940    23574703.4354
  20690045.022    -1188067.352 9   -920067.63948  20690045.180    20690051.2414
  21216674.691    -6501719.329 9  -5050174.68947  21216674.502    21216682.1214
  23145362.137     2844995.055 8   2088600.39046  23145361.539    23145370.9394
  21577876.825    -1325891.495 9  -1027365.38247  21577876.647    21577883.2934
 01  4 21 16 58 30.0010000  0  6 05 02 04 24 07 09
  22711440.944    -7490765.929 8  -5817281.79846  22711440.397    22711448.5884
  23589404.467     3238487.178 8   2517967.14045  23589403.855    23589415.5384
  20695049.883    -1161766.755 9   -899573.70348  20695050.065    20695056.1234
  21206190.118    -6556815.832 9  -5093106.98747  21206189.930    21206197.5754
  23157667.115     2909657.843 8   2138986.85146  23157666.601    23157675.9944
  21582332.081    -1302479.097 9  -1009122.01447  21582331.932    21582338.6054
 01  4 21 16 59  0.0010000  0  6 05 02 04 24 07 09
  22695885.514    -7572510.139 8  -5880978.51846  22695884.985    22695893.1344
  23604167.677     3316067.410 8   2578419.01845  23604167.035    23604178.8534
  20700163.837    -1134892.952 9   -878633.11148  20700164.015    20700170.0844
  21195799.736    -6611417.415 9  -5135653.63547  21195799.563    21195807.2004
  23169979.822     2974360.885 8   2189404.66946  23169979.227    23169988.6564
  21586893.196    -1278510.475 9   -990445.22147  21586893.055    21586899.7254
 01  4 21 16 59 30.0010000  0  6 05 02 04 24 07 09
  22680354.391    -7654126.524 8  -5944575.64046  22680353.858    22680361.9874
  23618982.063     3393916.294 8   2639080.23245  23618981.429    23618993.2904
  20705386.610    -1107447.449 9   -857247.04048  20705386.769    20705392.8304
  21185503.793    -6665522.864 9  -5177813.69447  21185503.611    21185511.2334
  23182300.040     3039103.760 8   2239853.53646  23182299.458    23182308.9104
  21591559.968    -1253986.894 9   -971335.98947  21591559.824    21591566.4984
 01  4 21 17  0  0.0010000  0  6 05 02 04 24 07 09
  22664848.037    -7735613.016 8  -6008071.54146  22664847.503    22664855.5954
  23633847.457     3472033.462 8   2699950.48345  23633846.828    23633858.7044
  20710717.860    -1079431.604 9   -835416.54348  20710718.008    20710724.0824
  21175302.548    -6719130.664 9  -5219585.96847  21175302.373    21175309.9734
  23194627.726     3103886.226 8   2290333.25746  23194627.163    23194636.7174
  21596332.147    -1228909.098 9   -951794.90547  21596331.990    21596338.7034
 01  4 21 17  0 30.0010000  0  6 05 02 04 24 07 09
  22649366.634    -7816968.005 8  -6071464.97846  22649366.101    22649374.2124
  23648763.730     3550418.057 8   2761029.12445  23648763.161    23648775.0264
  20716157.334    -1050847.005 9   -813142.86348  20716157.503    20716163.5964
  21165196.205    -6772239.690 9  -5260969.58947  21165196.030    21165203.6384
  23206962.939     3168707.748 8   2340843.40546  23206962.434    23206971.9804
  21601209.535    -1203278.488 9   -931823.06447  21601209.394    21601216.1044
 01  4 21 17  1  0.0010000  0  6 05 02 04 24 07 09
  22633910.606    -7898189.493 8  -6134754.38346  22633910.110    22633918.2034
  23663730.829     3629069.581 8   2822315.75845  23663730.270    23663742.1804
  20721704.751    -1021695.218 9   -790427.21648  20721704.902    20721711.0174
  21155184.991    -6824848.772 9  -5301963.64747  21155184.820    21155192.4344
  23219305.611     3233568.296 8   2391383.96746  23219305.079    23219314.7214
  21606191.940    -1177096.119 9   -911421.27547  21606191.795    21606198.4924
 01  4 21 17  1 30.0010000  0  6 05 02 04 24 07 09
  22618480.329    -7979275.978 8  -6197938.59146  22618479.822    22618487.9334
  23678748.558     3707987.182 8   2883809.72145  23678748.074    23678759.9414
  20727359.821     -991977.757 9   -767270.78748  20727359.977    20727366.0894
  21145269.159    -6876956.660 9  -5342567.16247  21145268.975    21145276.5964
  23231655.530     3298466.999 8   2441954.24946  23231655.000    23231664.6534
  21611279.063    -1150363.387 9   -890590.63847  21611278.913    21611285.6184
 01  4 21 17  2  0.0010000  0  6 05 02 04 24 07 09
  22603075.990    -8060226.014 8  -6261016.46746  22603075.447    22603083.5684
  23693816.745     3787169.766 8   2945510.16445  23693816.202    23693828.1504
  20733122.142     -961696.735 9   -743675.21348  20733122.308    20733128.4484
  21135448.938    -6928562.189 9  -5382779.22547  21135448.763    21135456.3654
  23244012.702     3363403.388 8   2492553.89946  23244012.095    23244021.7734
  21616470.623    -1123081.750 9   -869332.27947  21616470.469    21616477.2134
 01  4 21 17  2 30.0010000  0  6 05 02 04 24 07 09
  22587698.017    -8141037.550 8  -6323986.43646  22587697.492    22587705.5724
  23708935.173     3866616.751 8   3007416.64345  23708934.625    23708946.7034
  20738991.536     -930853.050 9   -719641.20448  20738991.695    20738997.8744
  21125724.560    -6979664.012 9  -5422598.79147  21125724.365    21125731.9864
  23256376.906     3428377.368 8   2543182.82546  23256376.275    23256385.9934
  21621766.477    -1095252.007 9   -847646.82247  21621766.343    21621773.1124
 01  4 21 17  3  0.0010000  0  6 05 02 04 24 07 09
  22572346.747    -8221708.571 8  -6386846.90846  22572346.220    22572354.3194
  23724103.887     3946327.775 8   3069528.85445  23724103.275    23724115.4514
  20744967.653     -899448.377 9   -695170.06348  20744967.828    20744974.0284
  21116096.256    -7030260.762 9  -5462024.79647  21116096.071    21116103.6964
  23268748.256     3493388.667 8   2593840.85746  23268747.681    23268757.3744
  21627166.389    -1066875.410 9   -825535.24547  21627166.254    21627173.0544
 01  4 21 17  3 30.0010000  0  6 05 02 04 24 07 09
  22557022.605    -8302237.129 8  -6449596.36146  22557022.089    22557030.1924
  23739322.661     4026302.153 8   3131846.29045  23739322.049    23739334.3564
  20751050.216     -867484.352 9   -670263.06148  20751050.407    20751056.5854
  21106564.330    -7080351.176 9  -5501056.25147  21106564.160    21106571.7724
  23281126.694     3558437.021 8   2644527.74846  23281126.101    23281135.8634
  21632670.095    -1037953.180 9   -802998.49747  21632669.964    21632676.8234
 01  4 21 17  4  0.0010000  0  6 05 02 04 24 07 09
  22541725.897    -8382621.769 8  -6512233.66846  22541725.368    22541733.5134
  23754591.361     4106538.693 8   3194367.98545  23754590.828    23754603.1844
  20757238.910     -834962.706 9   -644921.55148  20757239.112    20757245.3004
  21097128.947    -7129934.446 9  -5539692.53148  21097128.792    21097136.3764
  23293512.086     3623521.947 8   2695243.14046  23293511.517    23293521.2054
  21638277.383    -1008486.858 9   -780037.78747  21638277.272    21638284.1434
 01  4 21 17  4 30.0010000  0  6 05 02 04 24 07 09
  22526456.969    -8462860.373 8  -6574757.18746  22526456.419    22526464.5384
  23769909.851     4187036.883 8   3257093.56445  23769909.334    23769921.6684
  20763533.388     -801885.223 9   -619146.91348  20763533.585    20763539.7604
  21087790.287    -7179009.272 9  -5577932.62148  21087790.117    21087797.7004
  23305904.313     3688643.036 8   2745986.72346  23305903.739    23305913.4684
  21643988.004     -978477.685 9   -756654.07347  21643987.889    21643994.7604
 01  4 21 17  5  0.0010000  0  6 05 02 04 24 07 09
  22511216.078    -8542951.326 8  -6637165.65246  22511215.560    22511223.6544
  23785277.975     4267795.719 8   3320022.26245  23785277.405    23785289.8404
  20769933.273     -768253.648 9   -592940.52048  20769933.474    20769939.6764
  21078548.587    -7227574.569 9  -5615775.67548  21078548.425    21078556.0004
  23318303.312     3753799.964 8   2796758.22246  23318302.775    23318312.5284
  21649801.654     -947927.250 9   -732848.59847  21649801.534    21649808.3904
 01  4 21 17  5 30.0010000  0  6 05 02 04 24 07 09
  22496003.672    -8622892.700 8  -6699457.56446  22496003.191    22496011.2624
  23800695.560     4348814.540 8   3383153.51645  23800694.991    23800707.4524
  20776438.325     -734069.490 9   -566303.54147  20776438.521    20776444.7334
  21069404.062    -7275629.322 9  -5653220.90748  21069403.905    21069411.4644
  23330709.212     3818992.390 8   2847557.39046  23330708.646    23330718.4104
  21655718.003     -916836.757 9   -708622.29447  21655717.878    21655724.7844
 01  4 21 17  6  0.0010000  0  6 05 02 04 24 07 09
  22480820.093    -8702682.854 8  -6761631.64246  22480819.593    22480827.6414
  23816162.448     4430092.352 8   3446486.58945  23816161.874    23816174.4074
  20783048.140     -699334.812 9   -539237.58548  20783048.325    20783054.5404
  21060356.829    -7323172.827 9  -5690267.76048  21060356.669    21060364.2034
  23343121.623     3884219.634 8   2898383.68646  23343121.054    23343130.9164
  21661736.829     -885207.656 9   -683976.29647  21661736.722    21661743.6324
 01  4 21 17  6 30.0010000  0  6 05 02 04 24 07 09
  22465665.635    -8782319.608 8  -6823686.18446  22465665.164    22465673.1854
  23831678.512     4511628.505 8   3510020.97045  23831677.952    23831690.4634
  20789762.475     -664050.988 9   -511743.71848  20789762.677    20789768.8844
  21051407.123    -7370203.792 9  -5726915.22648  21051406.964    21051414.4914
  23355540.699     3949481.891 8   2949237.27146  23355540.096    23355550.0604
  21667857.951     -853041.212 9   -658911.58647  21667857.854    21667864.7654
 01  4 21 17  7  0.0010000  0  6 05 02 04 24 07 09
  22450540.724    -8861801.287 8  -6885619.89446  22450540.234    22450548.2614
  23847243.627     4593422.194 8   3573756.00745  23847243.026    23847255.7184
  20796580.896     -628220.124 9   -483823.59448  20796581.106    20796587.3134
  21042555.222    -7416720.594 9  -5763162.05448  21042555.072    21042562.6014
  23367966.305     4014778.733 8   3000117.79646  23367965.763    23367975.7424
  21674081.014     -820338.865 9   -633429.29947  21674080.936    21674087.8874
 01  4 21 17  7 30.0010000  0  6 05 02 04 24 07 09
  22435445.662    -8941125.932 8  -6947431.24346  22435445.175    22435453.2174
  23862857.511     4675472.492 8   3637691.02645  23862856.937    23862869.6724
  20803503.120     -591843.605 9   -455478.27847  20803503.334    20803509.5514
  21033801.209    -7462722.958 9  -5799008.01848  21033801.083    21033808.5994
  23380398.501     4080109.736 8   3051024.95146  23380397.967    23380407.9304
  21680405.741     -787102.370 9   -607530.79147  21680405.657    21680412.6564
 01  4 21 17  8  0.0010000  0  6 05 02 04 24 07 09
  22420380.784    -9020291.796 8  -7009118.86546  22420380.333    22420388.4054
  23878520.048     4757778.673 8   3701825.40845  23878519.424    23878532.2934
  20810528.792     -554923.494 9   -426709.38747  20810529.011    20810535.2424
  21025145.435    -7508209.409 9  -5834451.97848  21025145.305    21025152.8094
  23392837.110     4145474.767 8   3101958.61846  23392836.566    23392846.6384
  21686831.905     -753332.855 9   -581216.95047  21686831.809    21686838.8354
 01  4 21 17  8 30.0010000  0  6 05 02 04 24 07 09
  22405346.610    -9099296.770 8  -7070681.12246  22405346.162    22405354.1814
  23894231.121     4840339.793 8   3766158.46445  23894230.478    23894243.5054
  20817657.589     -517461.568 9   -397518.29847  20817657.805    20817664.0784
  21016587.996    -7553178.808 9  -5869493.03248  21016587.859    21016595.3804
  23405282.151     4210873.389 8   3152918.45846  23405281.610    23405291.7724
  21693359.226     -719031.848 9   -554488.95847  21693359.140    21693366.1874
 01  4 21 17  9  0.0010000  0  6 05 02 04 24 07 09
  22390343.412    -9178139.199 8  -7132116.71346  22390342.909    22390350.9104
  23909990.452     4923154.896 8   3830689.40845  23909989.908    23910002.9894
  20824889.116     -479459.562 9   -367906.36547  20824889.329    20824895.6404
  21008129.044    -7597630.605 9  -5904130.76348  21008128.925    21008136.4664
  23417733.540     4276305.507 8   3203904.39046  23417733.001    23417743.2634
  21699987.366     -684200.884 9   -527348.01447  21699987.281    21699994.3474
 01  4 21 17  9 30.0010000  0  6 05 02 04 24 07 09
  22375371.466    -9256816.954 8  -7193423.99446  22375370.973    22375378.9374
  23925798.033     5006223.344 8   3895417.76945  23925797.565    23925810.6364
  20832223.086     -440919.365 9   -337875.06747  20832223.312    20832229.6224
  20999768.833    -7641563.798 9  -5938364.38948  20999768.723    20999776.2434
  23430191.253     4341770.879 8   3254916.24946  23430190.726    23430201.0324
  21706716.085     -648841.456 9   -499795.28047  21706715.993    21706723.0754
 01  4 21 17 10  0.0010000  0  6 05 02 04 24 07 09
  22360431.228    -9335328.259 8  -7254601.56946  22360430.706    22360438.6504
  23941653.713     5089544.173 8   3960342.78745  23941653.147    23941666.3244
  20839659.128     -401842.842 9   -307425.85347  20839659.354    20839665.6794
  20991507.510    -7684977.459 9  -5972193.18148  20991507.402    20991514.8724
  23442655.244     4407269.183 8   3305953.75346  23442654.718    23442665.1064
  21713545.061     -612955.219 9   -471832.05047  21713544.986    21713552.0654
 01  4 21 17 10 30.0010000  0  6 05 02 04 24 07 09
  22345522.931    -9413671.717 8  -7315648.36046  22345522.457    22345530.3694
  23957557.185     5173116.153 8   4025463.49245  23957556.608    23957569.8534
  20847196.767     -362232.385 9   -276560.58847  20847196.996    20847203.3254
  20983345.121    -7727870.954 9  -6005616.65148  20983345.003    20983352.4694
  23455125.349     4472799.590 8   3357016.27246  23455124.795    23455135.2194
  21720473.916     -576544.113 9   -443459.83347  21720473.849    21720480.9144
 01  4 21 17 11  0.0010000  0  6 05 02 04 24 07 09
  22330647.003    -9491844.904 8  -7376562.45746  22330646.505    22330654.4524
  23973508.325     5256938.712 8   4090779.46045  23973507.715    23973520.9274
  20854835.739     -322089.365 9   -245280.33647  20854835.957    20854842.3154
  20975281.984    -7770242.873 9  -6038633.70248  20975281.865    20975289.3184
  23467601.698     4538362.380 8   3408104.03546  23467601.117    23467611.5464
  21727502.461     -539609.224 9   -414679.47147  21727502.393    21727509.4514
 01  4 21 17 11 30.0010000  0  6 05 02 04 24 07 09
  22315803.857    -9569845.860 8  -7437342.34746  22315803.390    22315811.3394
  23989507.032     5341010.999 8   4156290.02945  23989506.470    23989519.6284
  20862575.646     -281415.894 9   -213586.74147  20862575.859    20862582.2374
  20967318.193    -7812092.821 9  -6071244.01448  20967318.078    20967325.5474
  23480084.134     4603957.265 8   3459216.80646  23480083.516    23480093.9564
  21734630.300     -502152.441 9   -385492.43547  21734630.218    21734637.3054
 01  4 21 17 12  0.0010000  0  6 05 02 04 24 07 09
  22300993.844    -9647672.883 8  -7497986.71946  22300993.354    22301001.2564
  24005552.979     5425331.661 7   4221994.12645  24005552.351    24005565.6944
  20870416.081     -240214.188 9   -181481.54347  20870416.311    20870422.6914
  20959453.841    -7853420.018 9  -6103446.99648  20959453.712    20959461.1904
  23492572.460     4669583.772 8   3510354.21846  23492571.911    23492582.3704
  21741857.103     -464175.612 9   -355900.17247  21741857.035    21741864.1364
 01  4 21 17 12 30.0010000  0  6 05 02 04 24 07 09
  22286217.308    -9725323.966 8  -7558494.00146  22286216.833    22286224.6764
  24021646.002     5509900.153 7   4287891.32745  24021645.410    24021658.9044
  20878356.751     -198485.851 9   -148965.98147  20878356.974    20878363.3404
  20951689.228    -7894223.279 9  -6135241.71048  20951689.097    20951696.5644
  23505066.914     4735241.954 8   3561516.29946  23505066.341    23505076.8354
  21749182.607     -425679.930 9   -325903.60747  21749182.524    21749189.6794
 01  4 21 17 13  0.0010000  0  6 05 02 04 24 07 09
  22271474.632    -9802796.902 8  -7618862.46646  22271474.189    22271482.0314
  24037786.069     5594715.725 7   4353981.04245  24037785.437    24037799.1894
  20886397.336     -156232.449 9   -116041.28447  20886397.558    20886403.9214
  20944024.414    -7934502.041 9  -6166627.72548  20944024.274    20944031.7354
  23517567.399     4800931.783 8   3612703.05046  23517566.847    23517577.3364
  21756606.595     -386666.911 9   -295503.91947  21756606.515    21756613.6944
 01  4 21 17 13 30.0010000  0  6 05 02 04 24 07 09
  22256766.231    -9880089.907 8  -7679090.71947  22256765.772    22256773.6204
  24053972.777     5679777.270 7   4420262.42145  24053972.262    24053986.1914
  20894537.385     -113456.481 9    -82709.39847  20894537.593    20894543.9564
  20936459.536    -7974255.628 9  -6197604.51548  20936459.411    20936466.8564
  23530073.780     4866652.832 8   3663914.11246  23530073.249    23530083.8094
  21764128.618     -347138.736 9   -264702.81247  21764128.537    21764135.7214
 01  4 21 17 14  0.0010000  0  6 05 02 04 24 07 09
  22242092.491    -9957200.770 8  -7739177.04147  22242092.000    22242099.8624
  24070206.273     5765083.719 7   4486734.62245  24070205.733    24070219.7654
  20902776.571      -70159.526 9    -48971.54147  20902776.759    20902783.1564
  20928994.852    -8013482.826 9  -6228171.12948  20928994.709    20929002.1544
  23542586.138     4932404.905 8   3715149.35946  23542585.597    23542596.1674
  21771748.422     -307096.913 9   -233501.46247  21771748.322    21771755.5284
 01  4 21 17 14 30.0010000  0  6 05 02 04 24 07 09
  22227453.669   -10034127.968 8  -7799120.25347  22227453.204    22227461.0794
  24086486.257     5850633.685 7   4553396.57945  24086485.702    24086499.7404
  20911114.337      -26344.363 9    -14829.89147  20911114.537    20911120.9374
  20921630.320    -8052183.635 9  -6258327.57448  20921630.187    20921637.6044
  23555104.246     4998187.497 8   3766408.38346  23555103.741    23555114.2824
  21779465.500     -266543.486 9   -201901.45747  21779465.440    21779472.6624
 01  4 21 17 15  0.0010000  0  6 05 02 04 24 07 09
  22212850.136   -10110869.741 8  -7858918.98147  22212849.664    22212857.5324
  24102812.381     5936426.230 8   4620247.57045  24102811.870    24102825.7674
  20919550.360       17987.125 9     19714.08847  20919550.566    20919556.9294
  20914366.108    -8090357.296 9  -6288073.25548  20914365.956    20914373.3614
  23567628.170     5064000.164 8   3817690.84846  23567627.590    23567638.1174
  21787279.625     -225480.392 9   -169904.31647  21787279.530    21787286.7584
 01  4 21 17 15 30.0010000  0  6 05 02 04 24 07 09
  22198282.358   -10187423.832 8  -7918571.46547  22198281.880    22198289.7094
  24119184.485     6022460.735 7   4687287.08545  24119183.956    24119197.8754
  20928084.236       62832.643 9     54658.60847  20928084.438    20928090.7974
  20907202.348    -8128002.943 9  -6317407.49548  20907202.185    20907209.5764
  23580157.873     5129843.101 8   3868996.90046  23580157.207    23580167.7764
  21795190.414     -183909.229 9   -137511.27347  21795190.324    21795197.5674
 01  4 21 17 16  0.0010000  0  6 05 02 04 24 07 09
  22183750.632   -10263788.513 8  -7978076.35447  22183750.139    22183757.9234
  24135602.353     6108735.891 7   4754514.10745  24135601.829    24135615.8264
  20936715.606      108190.556 9     90002.39747  20936715.803    20936722.1324
  20900139.158    -8165120.274 9  -6346330.06048  20900139.005    20900146.3754
  23592693.073     5195715.728 8   3920326.08945  23592692.429    23592702.9904
  21803197.585     -141831.739 9   -104723.69047  21803197.480    21803204.7304
 01  4 21 17 16 30.0010000  0  6 05 02 04 24 07 09
  22169255.435   -10339961.121 8  -8037431.56947  22169254.954    22169262.7604
  24152065.942     6195251.315 7   4821928.36445  24152065.512    24152079.5784
  20945444.151      154059.117 9    125744.09247  20945444.311    20945450.6434
  20893176.740    -8201707.968 9  -6374839.92348  20893176.575    20893183.9154
  23605234.019     5261618.803 8   3971678.98545  23605233.476    23605243.9754
  21811300.831      -99249.379 9    -71542.70147  21811300.721    21811307.9464
 01  4 21 17 17  0.0010000  0  6 05 02 04 24 07 09
  22154797.039   -10415940.194 8  -8096635.98547  22154796.564    22154804.3774
  24168575.082     6282005.365 7   4889528.55645  24168574.513    24168588.6814
  20954269.276      200435.489 9    161881.48147  20954269.461    20954275.8064
  20886315.132    -8237766.089 9  -6402937.13148  20886314.965    20886322.2784
  23617780.759     5327551.309 8   4023054.83445  23617780.151    23617790.6094
  21819499.754      -56164.416 9    -37970.06947  21819499.615    21819506.8064
 01  4 21 17 17 30.0010000  0  6 05 02 04 24 07 09
  22140375.862   -10491723.940 8  -8155688.19947  22140375.397    22140383.1274
  24185129.291     6368996.721 7   4957313.64945  24185128.604    24185142.9414
  20963190.639      247317.453 9    198412.84047  20963190.835    20963197.1834
  20879554.369    -8273294.020 9  -6430621.20448  20879554.205    20879561.4944
  23630332.959     5393512.872 8   4074453.32345  23630332.351    23630342.8494
  21827793.891      -12578.947 9     -4007.43047  21827793.723    21827800.9334
 01  4 21 17 18  0.0010000  0  6 05 02 04 24 07 09
  22125992.344   -10567309.748 8  -8214586.17147  22125991.854    22125999.5224
  24201728.575     6456225.106 7   5025283.45645  24201727.941    24201742.3484
  20972208.000      294703.642 9    235337.10447  20972208.192    20972214.5434
  20872894.705    -8308290.814 9  -6457891.40848  20872894.526    20872901.8094
  23642890.704     5459503.961 8   4125874.80845  23642890.117    23642900.6324
  21836182.990       31505.821 9     30344.26847  21836182.815    21836190.0454
 01  4 21 17 18 30.0010000  0  7 05 02 30 04 24 07 09
  22111646.261   -10642698.898 8  -8273330.90547  22111645.746    22111653.4084
  24218372.081     6543686.230 7   5093434.60745  24218371.460    24218386.0874
  24852430.109    -4760051.605 8  -3687830.92745  24852430.380    24852441.2844
  20981320.298      342588.824 9    272650.19247  20981320.474    20981326.8174
  20866335.572    -8342759.075 9  -6484749.76848  20866335.387    20866342.6704
  23655453.462     5525521.289 8   4177316.73245  23655452.881    23655463.4934
  21844666.092       76084.416 9     65080.76047  21844665.922    21844673.1594
 01  4 21 17 19  0.0010000  0  7 05 02 30 04 24 07 09
  22097337.872   -10717889.680 8  -8331921.05647  22097337.362    22097345.0044
  24235059.730     6631378.780 7   5161766.09345  24235059.147    24235073.8314
  24833461.952    -4859729.834 8  -3765502.24345  24833462.241    24833473.1534
  20990526.987      390970.137 9    310349.87247  20990527.170    20990533.5204
  20859877.155    -8376698.207 9  -6511195.82148  20859876.988    20859884.2694
  23668021.101     5591564.508 8   4228778.82745  23668020.580    23668031.2654
  21853242.794      121155.026 9    100200.64447  21853242.635    21853249.8564
 01  4 21 17 19 30.0010000  0  7 05 02 30 04 24 07 09
  22083068.750   -10792873.981 8  -8390350.31547  22083068.280    22083075.9204
  24251792.349     6719307.684 7   5230281.74945  24251791.902    24251806.3834
  24814493.264    -4959410.609 8  -3843175.55645  24814493.513    24814504.2794
  20999828.905      439851.715 9    348439.37347  20999829.081    20999835.4354
  20853520.650    -8410101.917 9  -6537224.66148  20853520.458    20853527.7284
  23680594.930     5657639.401 8   4280265.63845  23680594.305    23680605.0104
  21861913.897      166721.646 9    135707.03347  21861913.752    21861920.9824
 01  4 21 17 20  0.0010000  0  7 05 02 30 04 24 07 09
  22068839.095   -10867651.084 8  -8448618.12647  22068838.641    22068846.2724
  24268569.510     6807470.352 7   5298979.54045  24268568.929    24268583.4514
  24795524.216    -5059093.513 8  -3920850.52445  24795524.406    24795535.1284
  21009225.330      489230.057 9    386915.95947  21009225.496    21009231.8384
  20847265.802    -8442971.249 9  -6562837.10048  20847265.608    20847272.8904
  23693174.535     5723744.622 8   4331776.06446  23693173.877    23693184.6284
  21870678.787      212781.120 9    171597.45747  21870678.644    21870685.8744
 01  4 21 17 20 30.0010000  0  7 05 02 30 04 24 07 09
  22054649.177   -10942219.437 8  -8506723.27447  22054648.715    22054656.3094
  24285390.822     6895865.236 7   5367858.25745  24285390.203    24285404.7654
  24776554.904    -5158777.746 8  -3998526.51045  24776555.028    24776565.7894
  21018715.752      539102.299 9    425777.40747  21018715.916    21018722.2524
  20841112.614    -8475306.353 9  -6588033.25948  20841112.428    20841119.6844
  23705759.647     5789879.238 8   4383309.39246  23705759.024    23705769.8174
  21879536.985      259331.014 9    207870.02447  21879536.852    21879544.0864
 01  4 21 17 21  0.0010000  0  7 05 02 30 04 24 07 09
  22040499.203   -11016577.887 8  -8564664.86347  22040498.740    22040506.2784
  24302256.098     6984490.611 7   5436916.59545  24302255.418    24302270.0344
  24757585.470    -5258462.473 8  -4076202.86945  24757585.640    24757596.3674
  21028299.566      589465.319 9    465021.28247  21028299.721    21028306.0464
  20835061.108    -8507107.191 9  -6612813.10548  20835060.927    20835068.1404
  23718350.045     5856042.492 8   4434865.01845  23718349.488    23718360.4324
  21888487.985      306368.427 9    244522.47947  21888487.835    21888495.0884
 01  4 21 17 21 30.0010000  0  7 05 02 30 04 24 07 09
  22026389.616   -11090724.089 8  -8622441.06547  22026389.138    22026396.7014
  24319164.912     7073345.566 7   5506153.82045  24319164.173    24319178.9994
  24738616.356    -5358145.923 7  -4153878.20845  24738616.642    24738627.2544
  21037976.478      640317.666 9    504646.44747  21037976.632    21037982.9574
  20829111.458    -8538372.995 9  -6637176.04448  20829111.256    20829118.4434
  23730946.121     5922234.451 8   4486443.03145  23730945.558    23730956.4914
  21897531.380      353891.487 9    281553.35647  21897531.224    21897538.4754
 01  4 21 17 22  0.0010000  0  7 05 02 30 04 24 07 09
  22012320.740   -11164656.162 8  -8680050.41947  22012320.288    22012327.8034
  24336117.127     7162429.016 7   5575569.09545  24336116.356    24336131.2924
  24719647.777    -5457826.683 7  -4231551.46545  24719647.864    24719658.5554
  21047745.969      691656.560 9    544650.74747  21047746.129    21047752.4474
  20823263.580    -8569103.678 9  -6661122.00548  20823263.385    20823270.5534
  23743547.654     5988455.129 8   4538043.40845  23743547.044    23743558.0484
  21906666.798      401898.143 9    318961.05947  21906666.650    21906673.9174
 01  4 21 17 22 30.0010000  0  7 05 02 30 04 24 07 09
  21998292.968   -11238372.615 8  -8737491.76547  21998292.479    21998299.9434
  24353112.552     7251739.105 7   5645160.96645  24353111.831    24353126.7774
  24700679.655    -5557503.837 7  -4309221.85445  24700679.776    24700690.7384
  21057607.552      743479.258 9    585032.03447  21057607.701    21057614.0114
  20817517.493    -8599299.542 9  -6684651.22148  20817517.293    20817524.4484
  23756154.440     6054703.706 8   4589665.52145  23756153.766    23756164.8724
  21915893.799      450386.003 9    356743.73747  21915893.642    21915900.9124
 01  4 21 17 23  0.0010000  0  7 05 02 30 04 24 07 09
  21984306.674   -11311870.908 8  -8794763.11147  21984306.191    21984313.6124
  24370150.944     7341275.327 7   5714929.03345  24370150.225    24370165.4784
  24681712.835    -5657174.878 7  -4386887.49345  24681712.926    24681723.9474
  21067560.942      795784.417 9    625789.26647  21067561.081    21067567.3944
  20811873.317    -8628959.714 9  -6707763.01648  20811873.130    20811880.2504
  23768766.639     6120980.557 8   4641309.66845  23768766.015    23768777.0944
  21925212.094      499353.626 9    394900.25647  21925211.941    21925219.2364
 01  4 21 17 23 30.0010000  0  7 05 02 30 04 24 07 09
  21970362.078   -11385150.098 8  -8851863.72547  21970361.585    21970369.0334
  24387231.849     7431035.260 7   5784871.40745  24387231.330    24387246.6074
  24662747.168    -5756839.764 7  -4464548.35545  24662747.355    24662758.2794
  21077605.388      848568.069 9    666919.35047  21077605.527    21077611.8614
  20806331.009    -8658084.673 9  -6730457.75748  20806330.807    20806337.9404
  23781383.953     6187284.450 8   4692974.88745  23781383.290    23781394.4584
  21934620.984      548797.471 9    433427.85547  21934620.828    21934628.1484
 01  4 21 17 24  0.0010000  0  7 05 02 30 04 24 07 09
  21956459.802   -11458206.820 8  -8908790.98547  21956459.300    21956466.7514
  24404355.485     7521019.099 7   5854988.24145  24404354.896    24404370.3324
  24643783.300    -5856495.525 7  -4542202.08845  24643783.523    24643794.4004
  21087740.729      901829.435 9    708421.67747  21087740.861    21087747.2074
  20800890.784    -8686673.293 9  -6752734.57848  20800890.593    20800897.6954
  23794006.730     6253616.576 8   4744662.11745  23794006.052    23794017.1314
  21944120.391      598716.806 9    472325.96547  21944120.222    21944127.5554
 01  4 21 17 24 30.0010000  0  7 05 02 30 04 24 07 09
  21942600.116   -11531039.933 8  -8965544.00947  21942599.634    21942607.0334
  24421521.495     7611224.721 7   5925277.88745  24421520.762    24421536.4144
  24624821.324    -5956141.427 7  -4619848.15545  24624821.541    24624832.3144
  21097966.342      955565.313 9    750293.75847  21097966.472    21097972.8194
  20795552.539    -8714725.973 9  -6774593.77948  20795552.339    20795559.4264
  23806634.567     6319976.003 8   4796370.59045  23806633.920    23806645.0814
  21953709.732      649108.560 9    511592.19047  21953709.553    21953716.8774
 01  4 21 17 25  0.0010000  0  7 05 02 30 04 24 07 09
  21928783.505   -11603646.716 8  -9022120.66847  21928782.990    21928790.3784
  24438729.597     7701651.606 7   5995739.96345  24438728.949    24438744.5534
  24605861.512    -6055775.247 7  -4697484.79345  24605861.717    24605872.6264
  21108281.921     1009773.843 9    792534.13847  21108282.050    21108288.3884
  20790316.411    -8742241.889 9  -6796034.72548  20790316.223    20790323.2804
  23819267.650     6386363.127 8   4848100.66045  23819267.054    23819278.2904
  21963388.635      699971.225 9    551225.35747  21963388.433    21963395.7764
 01  4 21 17 25 30.0010000  0  7 05 02 30 04 24 07 09
  21915010.310   -11676025.250 8  -9078519.47947  21915009.775    21915017.1384
  24455979.507     7792298.412 8   6066373.38545  24455978.897    24455994.5054
  24586904.327    -6155395.613 8  -4775110.96545  24586904.590    24586915.4574
  21118686.952     1064452.573 9    835140.90047  21118687.077    21118693.4394
  20785182.409    -8769221.372 9  -6817057.67148  20785182.198    20785189.2594
  23831906.129     6452777.768 7   4899852.18445  23831905.465    23831916.7464
  21973156.689      751302.451 9    591223.63247  21973156.500    21973163.8984
 01  4 21 17 26  0.0010000  0  7 05 02 30 04 24 07 09
  21901280.875   -11748173.491 8  -9134738.84047  21901280.379    21901287.7504
  24473270.992     7883164.010 8   6137177.28245  24473270.367    24473286.1834
  24567950.143    -6255000.658 8  -4852725.21245  24567950.412    24567961.2584
  21129181.083     1119599.478 9    878112.47547  21129181.232    21129187.5964
  20780150.556    -8795663.777 9  -6837662.11648  20780150.341    20780157.3744
  23844549.702     6519219.878 8   4951625.09745  23844549.032    23844560.3764
  21983013.512      803100.239 9    631585.46347  21983013.326    21983020.7584
 01  4 21 17 26 30.0010000  0  7 05 02 30 04 24 07 09
  21887595.653   -11820089.584 8  -9190777.30047  21887595.173    21887602.5254
  24490603.912     7974246.961 7   6208150.55445  24490603.277    24490619.1394
  24548999.169    -6354588.956 8  -4930326.40045  24548999.351    24549010.1894
  21139763.754     1175211.579 9    921446.54647  21139763.896    21139770.2574
  20775220.902    -8821569.263 9  -6857848.18648  20775220.694    20775227.7244
  23857198.504     6585689.113 8   5003419.15045  23857197.866    23857209.2314
  21992958.723      855362.206 9    672308.99147  21992958.551    21992965.9894
 01  4 21 17 27  0.0010000  0  7 05 02 30 04 24 07 09
  21873955.034   -11891771.561 8  -9246633.33247  21873954.507    21873961.8114
  24507977.876     8065545.771 8   6279292.01245  24507977.230    24507993.2064
  24530051.424    -6454159.266 8  -5007913.53645  24530051.719    24530062.4914
  21150434.518     1231286.754 9    965141.45347  21150434.659    21150441.0184
  20770393.486    -8846937.335 9  -6877615.48848  20770393.276    20770400.3134
  23869852.487     6652185.242 8   5055234.16545  23869851.815    23869863.1344
  22002991.774      908086.047 9    713392.42647  22002991.606    22002999.0784
 01  4 21 17 27 30.0010000  0  7 05 02 30 04 24 07 09
  21860359.438   -11963216.768 8  -9302304.86547  21860358.909    21860366.2054
  24525392.783     8157059.800 7   6350601.17745  24525392.093    24525408.2494
  24511107.553    -6553709.302 8  -5085484.90045  24511107.854    24511118.6674
  21161192.960     1287822.694 9   1009195.39747  21161193.121    21161199.4914
  20765668.322    -8871768.030 9  -6896964.05948  20765668.107    20765675.1474
  23882511.673     6718708.843 8   5107070.59145  23882511.041    23882522.2444
  22013112.395      961269.920 9    754834.32447  22013112.229    22013119.7374
 01  4 21 17 28  0.0010000  0  7 05 02 30 04 24 07 09
  21846809.217   -12034423.347 8  -9357790.45847  21846808.709    21846816.0004
  24542848.305     8248787.493 8   6422076.83345  24542847.569    24542863.9054
  24492167.843    -6653237.746 8  -5163039.44145  24492168.095    24492178.9014
  21172038.701     1344817.228 9   1053606.68447  21172038.852    21172045.2314
  20761045.386    -8896061.515 9  -6915894.02448  20761045.168    20761052.2184
  23895175.989     6785259.426 8   5158928.04545  23895175.404    23895186.5624
  22023320.080     1014911.449 9    796632.83447  22023319.913    22023327.4764
 01  4 21 17 28 30.0010000  0  7 05 02 30 04 24 07 09
  21833304.709   -12105389.520 8  -9413088.71947  21833304.208    21833311.4984
  24560344.291     8340727.738 7   6493718.12245  24560343.577    24560360.0744
  24473232.619    -6752742.717 8  -5240575.67145  24473232.863    24473243.5884
  21182971.121     1402267.495 9   1098373.08847  21182971.274    21182977.6794
  20756524.795    -8919817.288 9  -6934404.99648  20756524.587    20756531.6264
  23907845.301     6851836.879 8   5210806.41845  23907844.723    23907855.9014
  22033614.456     1069008.295 9    838786.13347  22033614.276    22033621.8384
 01  4 21 17 29  0.0010000  0  7 05 02 30 04 24 07 09
  21819846.489   -12176112.839 8  -9468197.74147  21819845.955    21819853.2634
  24577880.423     8432879.435 7   6565524.14545  24577879.667    24577896.3984
  24454302.278    -6852222.379 8  -5318092.20845  24454302.548    24454313.1444
  21193989.873     1460171.410 9   1143492.98147  21193990.016    21193996.4514
  20752106.582    -8943035.075 9  -6952496.75848  20752106.376    20752113.4014
  23920519.967     6918441.426 8   5262705.90245  23920519.309    23920530.5184
  22043995.033     1123558.280 9    881292.53447  22043994.870    22044002.4404
 01  4 21 17 29 30.0010000  0  6 05 30 04 24 07 09
  21806434.765   -12246591.548 8  -9523116.16347  21806434.260    21806441.5734
  24435376.952    -6951675.522 8  -5395588.08745  24435377.281    24435387.5534
  21205094.481     1518526.452 9   1188964.40547  21205094.648    21205101.1224
  20747790.611    -8965715.499 9  -6970169.79648  20747790.414    20747797.4364
  23933199.633     6985072.716 8   5314626.23545  23933198.921    23933210.1594
  22054461.341     1178559.008 9    924150.15947  22054461.184    22054468.7964
 01  4 21 17 30  0.0010000  0  6 05 30 04 24 07 09
  21793070.230   -12316822.378 8  -9577841.42847  21793069.742    21793077.0384
  24416457.077    -7051099.490 7  -5473061.23845  24416457.388    24416467.5664
  21216284.677     1577331.190 9   1234786.24947  21216284.832    21216291.3184
  20743577.036    -8987857.916 9  -6987423.60148  20743576.841    20743583.8664
  23945884.519     7051731.770 8   5366568.21245  23945883.819    23945895.1384
  22065013.218     1234009.143 9    967357.98047  22065013.069    22065020.7094
 01  4 21 17 30 30.0010000  0  6 05 30 04 24 07 09
  21779753.184   -12386804.072 8  -9632372.56747  21779752.681    21779759.9294
  24397542.915    -7150493.186 7  -5550510.77045  24397543.263    24397553.5864
  21227559.791     1636582.044 9   1280955.70747  21227559.936    21227566.4584
  20739465.864    -9009462.236 9  -7004258.11748  20739465.667    20739472.6694
  23958574.460     7118417.647 8   5418531.07645  23958573.804    23958585.2014
  22075650.019     1289905.475 9   1010913.48347  22075649.865    22075657.5174
 01  4 21 17 31  0.0010000  0  6 05 30 04 24 07 09
  21766483.916   -12456534.270 8  -9686707.72747  21766483.397    21766490.6244
  24378634.927    -7249854.703 7  -5627935.23645  24378635.172    24378645.6444
  21238919.392     1696277.086 9   1327471.28547  21238919.542    21238926.0744
  20735457.087    -9030528.417 9  -7020673.30248  20735456.892    20735463.8694
  23971269.652     7185130.740 8   5470515.15745  23971269.005    23971280.3864
  22086371.385     1346246.204 9   1054815.26947  22086371.233    22086378.8884
 01  4 21 17 31 30.0010000  0  6 05 30 04 24 07 09
  21753262.711   -12526011.784 8  -9740845.99347  21753262.210    21753269.4584
  24359733.472    -7349183.055 7  -5705333.84945  24359733.637    24359744.0654
  21250362.940     1756413.184 9   1374330.54447  21250363.090    21250369.6384
  20731550.559    -9051057.376 9  -7036669.87548  20731550.356    20731557.3284
  23983969.921     7251870.008 8   5522519.64245  23983969.183    23983980.6284
  22097176.685     1403027.918 9   1099060.68347  22097176.503    22097184.1724
 01  4 21 17 32  0.0010000  0  6 05 30 04 24 07 09
  21740090.131   -12595234.045 8  -9794785.36447  21740089.619    21740096.8264
  24340838.633    -7448476.055 7  -5782704.91445  24340838.718    24340849.1764
  21261889.993     1816987.965 9   1421531.63347  21261890.120    21261896.6604
  20727746.279    -9071048.993 9  -7052247.73648  20727746.070    20727753.0444
  23996675.176     7318636.099 8   5574545.00845  23996674.387    23996685.9424
  22108065.571     1460249.069 9   1143648.51247  22108065.395    22108073.0984
 01  4 21 17 32 30.0010000  0  6 05 30 04 24 07 09
  21726966.486   -12664199.083 9  -9848524.30147  21726965.965    21726973.1504
  24321950.787    -7547731.807 7  -5860046.95745  24321950.954    24321961.2854
  21273500.145     1877999.309 9   1469072.90047  21273500.262    21273506.8014
  20724044.248    -9090503.140 9  -7067406.79048  20724044.053    20724051.0344
  24009385.434     7385428.762 7   5626591.11145  24009384.689    24009396.3274
  22119037.640     1517907.252 9   1188576.88747  22119037.469    22119045.1684
 01  4 21 17 33  0.0010000  0  6 05 30 04 24 07 09
  21713892.246   -12732904.482 9  -9902060.91947  21713891.735    21713898.9044
  24303070.308    -7646948.712 7  -5937358.71745  24303070.445    24303080.8244
  21285192.820     1939444.768 9   1516952.43147  21285192.967    21285199.5134
  20720444.559    -9109419.668 9  -7082146.92348  20720444.355    20720451.3194
  24022100.878     7452248.410 7   5678658.19045  24022100.116    24022111.8714
  22130092.395     1576000.153 9   1233843.99947  22130092.216    22130099.9454
 01  4 21 17 33 30.0010000  0  6 05 30 04 24 07 09
  21700867.919   -12801347.753 9  -9955393.27947  21700867.382    21700874.5424
  24284197.704    -7746124.741 7  -6014638.61245  24284197.790    24284208.2904
  21296967.745     2001322.008 9   1565168.41747  21296967.886    21296974.4384
  20716947.088    -9127798.906 9  -7096468.38448  20716946.886    20716953.8264
  24034821.423     7519094.969 7   5730746.23545  24034820.719    24034832.5374
  22141229.385     1634525.022 9   1279447.71747  22141229.206    22141236.9534
 01  4 21 17 34  0.0010000  0  6 05 30 04 24 07 09
  21687893.746   -12869527.177 9 -10008520.04047  21687893.234    21687900.3854
  24265333.104    -7845258.218 8  -6091885.36645  24265333.239    24265343.7334
  21308824.288     2063628.308 9   1613718.73747  21308824.418    21308830.9654
  20713551.822    -9145641.136 9  -7110371.39648  20713551.617    20713558.5604
  24047547.061     7585968.158 7   5782855.04745  24047546.390    24047558.3244
  22152448.145     1693479.546 9   1325386.22647  22152447.959    22152455.7234
 01  4 21 17 34 30.0010000  0  6 05 30 04 24 07 09
  21674970.126   -12937441.019 9 -10061439.86647  21674969.621    21674976.7404
  24246477.007    -7944347.446 8  -6169097.64945  24246477.153    24246487.5864
  21320761.910     2126360.816 9   1662601.15947  21320762.033    21320768.5894
  20710258.720    -9162946.458 9  -7123856.03848  20710258.516    20710265.4584
  24060277.844     7652867.991 8   5834984.62345  24060277.066    24060289.0624
  22163748.151     1752861.281 9   1371657.62047  22163747.966    22163755.7584
 01  4 21 17 35  0.0010000  0  6 05 30 04 24 07 09
  21662097.571   -13005086.627 9 -10114150.68447  21662097.072    21662104.1534
  24227629.670    -8043390.525 8  -6246273.96545  24227629.841    24227640.2014
  21332780.300     2189517.519 9   1711814.12447  21332780.423    21332786.9494
  20707067.747    -9179715.011 9  -7136922.42148  20707067.565    20707074.4844
  24073013.692     7719794.701 8   5887135.13645  24073012.979    24073024.9524
  22175129.114     1812668.225 9   1418260.34447  22175128.928    22175136.7514
 01  4 21 17 35 30.0010000  0  6 05 30 04 24 07 09
  21649276.340   -13072462.459 9 -10166651.28947  21649275.858    21649282.9224
  24208791.334    -8142386.215 8  -6323413.34445  24208791.523    24208801.8764
  21344878.795     2253095.283 9   1761355.18947  21344878.918    21344885.4534
  20703978.766    -9195947.608 9  -7149571.17448  20703978.564    20703985.5044
  24085754.562     7786747.707 7   5939306.15745  24085753.869    24085765.7894
  22186590.324     1872897.124 9   1465191.86947  22186590.153    22186598.0214
 01  4 21 17 36  0.0010000  0  6 05 30 04 24 07 09
  21636507.001   -13139565.788 9 -10218939.55647  21636506.478    21636513.5534
  24189962.547    -8241331.811 8  -6400513.69645  24189962.698    24189973.0814
  21357057.064     2317092.317 9   1811222.95347  21357057.197    21357063.7234
  20700991.863    -9211643.747 9  -7161801.91148  20700991.672    20700998.6024
  24098500.549     7853727.625 7   5991498.12945  24098499.855    24098511.8664
  22198131.460     1933546.100 9   1512450.72247  22198131.293    22198139.2114
 01  4 21 17 36 30.0010000  0  6 05 30 04 24 07 09
  21623789.814   -13206394.878 9 -10271014.12747  21623789.292    21623796.3734
  24171143.542    -8340226.026 8  -6477574.01845  24171143.656    24171154.0124
  21369314.502     2381505.269 9   1861414.81547  21369314.601    21369321.1674
  20698106.957    -9226804.048 9  -7173615.10948  20698106.769    20698113.6734
  24111251.725     7920734.187 7   6043710.85645  24111250.968    24111262.9004
  22209752.083     1994612.522 9   1560034.86647  22209751.899    22209759.8694
 01  4 21 17 37  0.0010000  0  6 05 30 04 24 07 09
  21611125.219   -13272947.606 9 -10322873.35647  21611124.700    21611131.7664
  24152334.599    -8439067.130 8  -6554592.95145  24152334.717    24152345.0394
  21381650.621     2446331.908 9   1911929.02347  21381650.721    21381657.2924
  20695323.953    -9241428.844 9  -7185011.03148  20695323.746    20695330.6484
  24124007.827     7987767.182 8   6095944.18645  24124007.068    24124019.0944
  22221451.667     2056093.934 9   1607942.37347  22221451.479    22221459.4834
 01  4 21 17 37 30.0010000  0  6 05 30 04 24 07 09
  21598513.757   -13339221.219 9 -10374515.09847  21598513.220    21598520.2804
  24133536.234    -8537852.712 8  -6631568.59545  24133536.380    24133546.6654
  21394065.081     2511570.256 9   1962764.04647  21394065.217    21394071.7764
  20692642.866    -9255517.938 9  -7195989.52948  20692642.662    20692649.5544
  24136768.916     8054827.275 7   6148198.61145  24136768.312    24136780.3104
  22233229.832     2117988.039 9   1656171.46447  22233229.645    22233237.6314
 01  4 21 17 38  0.0010000  0  6 05 30 04 24 07 09
  21585955.731   -13405213.870 9 -10425937.90147  21585955.194    21585962.2274
  24114748.729    -8636581.209 8  -6708499.77745  24114748.897    24114759.1184
  21406557.391     2577217.504 9   2013917.69347  21406557.529    21406564.1024
  20690063.619    -9269071.919 9  -7206551.05448  20690063.417    20690070.3224
  24149535.270     8121914.344 7   6200474.07645  24149534.535    24149546.7594
  22245085.985     2180292.176 9   1704720.05947  22245085.807    22245093.7704
 01  4 21 17 38 30.0010000  0  6 05 30 04 24 07 09
  21573451.602   -13470923.525 9 -10477140.20047  21573451.061    21573458.0584
  24095972.362    -8735250.868 8  -6785385.11145  24095972.615    24095982.7574
  21419127.001     2643271.013 9   2065387.90447  21419127.127    21419133.7354
  20687586.044    -9282091.397 9  -7216696.08848  20687585.842    20687592.7484
  24162306.742     8189028.352 7   6252770.51645  24162306.063    24162318.3014
  22257019.690     2243003.841 8   1753586.20547  22257019.526    22257027.4854
 01  4 21 17 39  0.0010000  0  6 05 30 04 24 07 09
  21561001.654   -13536348.150 9 -10528120.39147  21561001.120    21561008.1174
  24077207.729    -8833859.677 8  -6862223.03945  24077207.916    24077217.9994
  21431773.392     2709728.008 9   2117172.52447  21431773.522    21431780.1484
  20685210.227    -9294576.389 9  -7226424.63948  20685210.037    20685216.9394
  24175083.451     8256169.228 8   6305087.91745  24175082.728    24175094.9524
  22269030.432     2306120.482 8   1802767.92247  22269030.261    22269038.2284
 01  4 21 17 39 30.0010000  0  7 05 30 04 24 10 07 09
  21548606.326   -13601485.892 9 -10578877.04247  21548605.801    21548612.7984
  24058454.939    -8932406.011 8  -6939012.25145  24058455.119    24058465.1214
  21444496.057     2776585.881 9   2169269.51547  21444496.184    21444502.8474
  20682935.939    -9306527.737 9  -7235737.36648  20682935.751    20682942.6574
  24900986.760    -5115458.380 7  -3973767.11545  24900986.027    24901005.5784
  24187865.118     8323336.672 7   6357426.02645  24187864.440    24187876.6814
  22281117.693     2369639.257 8   1852262.98547  22281117.533    22281125.5734
 01  4 21 17 40  0.0010000  0  7 05 30 04 24 10 07 09
  21536264.532   -13666342.284 9 -10629414.45147  21536264.005    21536270.9884
  24039712.716    -9030896.017 8  -7015757.56645  24039712.844    24039722.9594
  21457292.962     2843833.973 9   2221670.57147  21457293.105    21457299.7864
  20680761.604    -9317953.830 9  -7244640.80048  20680761.417    20680768.3044
  24881758.926    -5216500.611 7  -4052500.96545  24881758.018    24881777.5944
  24200650.339     8390523.003 7   6409778.83145  24200649.698    24200662.1044
  22293279.579     2433549.886 8   1902063.39447  22293279.404    22293287.4904
 01  4 21 17 40 30.0010000  0  7 05 30 04 24 10 07 09
  21523978.969   -13730903.218 9 -10679721.63847  21523978.450    21523985.4314
  24020983.793    -9129315.707 8  -7092448.09045  24020984.049    24020994.0904
  21470165.992     2911481.766 9   2274383.07947  21470166.113    21470172.7724
  20678689.530    -9328842.886 9  -7253125.77048  20678689.341    20678696.1924
  24862515.758    -5317622.609 7  -4131296.91945  24862514.960    24862534.4394
  24213441.526     8457740.241 8   6462155.71745  24213440.824    24213453.2504
  22305517.827     2497861.754 8   1952176.45647  22305517.631    22305525.6824
 01  4 21 17 41  0.0010000  0  7 05 30 04 24 10 07 09
  21511749.685   -13795168.237 9 -10729798.23547  21511749.166    21511756.1594
  24002268.502    -9227664.701 8  -7169083.53945  24002268.765    24002278.6874
  21483114.304     2979525.314 9   2327403.97547  21483114.429    21483121.0894
  20676719.177    -9339197.094 9  -7261193.97048  20676718.985    20676725.8394
  24843257.746    -5418822.940 7  -4210153.94245  24843257.012    24843276.4264
  24226238.398     8524986.926 8   6514555.55045  24226237.614    24226250.0904
  22317831.591     2562570.667 8   2002598.90447  22317831.397    22317839.4154
 01  4 21 17 41 30.0010000  0  7 05 30 04 24 10 07 09
  21499576.857   -13859136.853 9 -10779643.86747  21499576.323    21499583.3134
  23983566.764    -9325942.550 8  -7245663.55445  23983567.072    23983576.8924
  21496137.062     3047960.328 9   2380729.91247  21496137.214    21496143.8884
  20674850.220    -9349018.394 9  -7268846.91648  20674850.029    20674856.8944
  24823984.968    -5520100.560 7  -4289071.15445  24823984.124    24824003.5024
  24239040.459     8592261.473 8   6566977.09645  24239039.742    24239052.1644
  22330220.083     2627672.592 8   2053327.59647  22330219.930    22330227.9754
 01  4 21 17 42  0.0010000  0  7 05 30 04 24 10 07 09
  21487460.864   -13922806.670 9 -10829256.67447  21487460.331    21487467.3304
  23964878.925    -9424147.252 8  -7322186.55145  23964879.220    23964888.9554
  21509233.837     3116784.435 9   2434359.02547  21509234.007    21509240.7064
  20673082.610    -9358307.106 9  -7276084.86348  20673082.423    20673089.3064
  24804698.133    -5621452.252 7  -4368046.07945  24804697.236    24804716.5994
  24251847.841     8659564.077 8   6619420.50545  24251847.125    24251859.5544
  22342682.906     2693164.987 8   2104360.54147  22342682.753    22342690.8764
 01  4 21 17 42 30.0010000  0  7 05 30 04 24 10 07 09
  21475401.984   -13986176.065 9 -10878635.38247  21475401.469    21475408.4754
  23946205.343    -9522277.182 8  -7398651.30545  23946205.656    23946215.2714
  21522404.145     3185994.547 9   2488288.92847  21522404.299    21522411.0274
  20671416.196    -9367064.128 9  -7282908.50348  20671416.017    20671422.9164
  24785397.635    -5722875.605 7  -4447076.85845  24785396.698    24785416.0044
  24264660.410     8726894.509 7   6671885.58145  24264659.735    24264672.2854
  22355219.455     2759044.944 8   2155695.48347  22355219.334    22355227.5354
 01  4 21 17 43  0.0010000  0  7 05 30 04 24 10 07 09
  21463400.673   -14049243.193 9 -10927778.55747  21463400.177    21463407.1774
  23927546.318    -9620330.877 8  -7475056.66245  23927546.564    23927556.0834
  21535647.357     3255587.785 9   2542517.36547  21535647.521    21535654.2634
  20669850.758    -9375290.462 9  -7289318.62348  20669850.590    20669857.4874
  24766083.865    -5824368.490 7  -4526161.83345  24766082.938    24766102.1014
  24277478.411     8794252.553 7   6724372.19345  24277477.771    24277490.2414
  22367829.278     2825309.361 8   2207330.00447  22367829.134    22367837.3494
 01  4 21 17 43 30.0010000  0  7 05 30 04 24 10 07 09
  21451457.255   -14112006.070 9 -10976684.65247  21451456.766    21451463.7424
  23908902.281    -9718306.499 8  -7551401.15745  23908902.401    23908911.8964
  21548962.874     3325561.126 9   2597041.98747  21548963.053    21548969.8214
  20668386.170    -9382986.896 9  -7295315.83248  20668386.014    20668392.8644
  24746757.466    -5925927.989 7  -4605298.70645  24746756.558    24746775.5414
  24290301.583     8861637.935 7   6776880.11245  24290300.975    24290313.4054
  22380511.620     2891955.401 8   2259261.89247  22380511.494    22380519.7494
 01  4 21 17 44  0.0010000  0  7 05 30 04 24 10 07 09
  21439572.175   -14174462.636 9 -11025352.06547  21439571.663    21439578.6384
  23890273.251    -9816202.270 8  -7627683.43245  23890273.338    23890282.8304
  21562350.320     3395912.163 9   2651860.91147  21562350.455    21562357.2284
  20667022.273    -9390154.400 9  -7300900.89248  20667022.108    20667028.9294
  24727418.904    -6027551.294 7  -4684485.29745  24727418.145    24727437.0824
  24303129.931     8929050.616 7   6829409.29045  24303129.274    24303141.7664
  22393266.102     2958980.357 8   2311489.03647  22393265.964    22393274.2374
 01  4 21 17 44 30.0010000  0  7 05 30 04 24 10 07 09
  21427745.790   -14236610.521 9 -11073778.94347  21427745.291    21427752.2404
  23871659.800    -9914015.978 8  -7703901.77245  23871659.844    23871669.4444
  21575809.137     3466638.346 9   2706972.16147  21575809.268    21575816.0394
  20665759.083    -9396792.658 9  -7306073.54948  20665758.903    20665765.7074
  24708068.796    -6129235.461 7  -4763719.30445  24708068.021    24708086.8014
  24315963.519     8996490.993 7   6881960.04845  24315962.899    24315975.1664
  22406092.274     3026381.870 8   2364009.59747  22406092.105    22406100.4014
 01  4 21 17 45  0.0010000  0  7 05 30 04 24 10 07 09
  21415978.624   -14298447.564 9 -11121963.62147  21415978.097    21415985.0164
  23853062.287   -10011745.545 8  -7780054.55445  23853062.379    23853072.0244
  21589338.848     3537736.954 9   2762373.60247  21589338.962    21589345.7494
  20664596.390    -9402902.738 9  -7310834.64548  20664596.188    20664602.9824
  24688707.808    -6230977.668 7  -4842998.56845  24688706.974    24688725.4954
  24328802.429     9063959.181 7   6934532.48145  24328801.731    24328814.0244
  22418989.557     3094157.072 8   2416821.34247  22418989.396    22418997.6844
 01  4 21 17 45 30.0010000  0  7 05 30 04 24 10 07 09
  21404271.002   -14359971.564 9 -11169904.36647  21404270.462    21404277.3394
  23834481.186   -10109388.834 8  -7856140.11545  23834481.452    23834491.0334
  21602938.935     3609205.808 9   2818063.54747  21602939.046    21602945.8464
  20663534.135    -9408484.811 9  -7315184.30848  20663533.933    20663540.7264
  24669336.091    -6332774.929 7  -4922320.70245  24669335.255    24669353.6494
  24341646.704     9131455.432 7   6987126.77945  24341645.958    24341658.3754
  22431957.534     3162303.619 8   2469922.44447  22431957.379    22431965.6654
 01  4 21 17 46  0.0010000  0  7 05 30 04 24 10 07 09
  21392623.383   -14421180.260 9 -11217599.41947  21392622.845    21392629.6784
  23815916.958   -10206943.936 8  -7932156.96746  23815917.264    23815926.8094
  21616608.956     3681041.959 9   2874039.69947  21616609.073    21616615.8664
  20662572.164    -9413540.083 9  -7319123.47448  20662571.969    20662578.7454
  24649954.440    -6434624.181 7  -5001683.38345  24649953.673    24649971.9364
  24354496.195     9198979.652 7   7039742.84945  24354495.524    24354507.9984
  22444995.651     3230818.678 8   2523310.69747  22444995.462    22445003.7344
 01  4 21 17 46 30.0010000  0  7 05 30 04 24 10 07 09
  21381036.126   -14482071.490 9 -11265047.09447  21381035.597    21381042.4114
  23797369.872   -10304408.968 8  -8008103.62746  23797370.204    23797379.7104
  21630348.362     3753242.797 9   2930300.02547  21630348.491    21630355.2894
  20661710.298    -9418069.205 9  -7322652.65348  20661710.086    20661716.8634
  24630563.450    -6536522.615 7  -5081084.39645  24630562.767    24630580.9694
  24367351.087     9266531.955 7   7092380.80045  24367350.385    24367363.0254
  22458103.304     3299699.480 8   2576983.94647  22458103.119    22458111.4244
 01  4 21 17 47  0.0010000  0  7 05 30 04 24 10 07 09
  21369509.628   -14542643.484 9 -11312246.01347  21369509.117    21369515.8834
  23778840.380   -10401782.056 8  -8083978.65046  23778840.651    23778850.1454
  21644156.608     3825805.328 9   2986842.18347  21644156.742    21644163.5504
  20660948.417    -9422072.958 9  -7325772.45748  20660948.203    20660954.9804
  24611163.673    -6638467.492 7  -5160521.61145  24611163.007    24611181.0904
  24380211.294     9334112.217 7   7145040.54345  24380210.671    24380223.3544
  22471280.022     3368943.345 8   2630940.09647  22471279.877    22471288.2024
 01  4 21 17 47 30.0010000  0  7 05 30 04 24 10 07 09
  21358044.281   -14602894.188 9 -11359194.57847  21358043.754    21358050.5264
  23760328.658   -10499061.273 8  -8159780.51146  23760328.926    23760338.4764
  21658033.255     3898727.289 9   3043664.41947  21658033.385    21658040.2294
  20660286.435    -9425551.716 9  -7328483.17148  20660286.231    20660293.0054
  24591755.624    -6740456.113 7  -5239992.90045  24591754.943    24591772.7734
  24393076.932     9401720.453 7   7197722.09445  24393076.234    24393089.0254
  22484525.294     3438547.436 8   2685176.94047  22484525.147    22484533.5104
 01  4 21 17 48  0.0010000  0  7 05 30 04 24 10 07 09
  21346640.496   -14662821.235 9 -11405890.94347  21346639.969    21346646.7464
  23741835.278   -10596244.284 8  -8235507.41046  23741835.589    23741845.0414
  21671977.697     3972005.765 9   3100764.45947  21671977.842    21671984.7444
  20659724.123    -9428506.468 9  -7330785.56948  20659723.931    20659730.7064
  24572339.847    -6842485.218 7  -5319495.75545  24572339.054    24572356.8804
  24405947.871     9469356.990 7   7250425.69345  24405947.214    24405960.0554
  22497838.681     3508509.220 8   2739692.50547  22497838.540    22497846.9174
 01  4 21 17 48 30.0010000  0  7 05 30 04 24 10 07 09
  21335298.710   -14722422.454 9 -11452333.41447  21335298.201    21335304.9944
  23723360.670   -10693328.922 8  -8311157.66846  23723360.919    23723370.3654
  21685989.549     4045638.416 9   3158140.47647  21685989.702    21685996.6254
  20659261.385    -9430938.020 9  -7332680.27748  20659261.201    20659267.9974
  24552917.011    -6944551.906 7  -5399027.89345  24552916.171    24552933.8204
  24418824.327     9537021.966 7   7303151.44845  24418823.650    24418836.5674
  22511219.537     3578825.862 8   2794484.57947  22511219.407    22511227.8074
 01  4 21 17 49  0.0010000  0  7 05 30 04 24 10 07 09
  21324019.279   -14781696.048 9 -11498520.59447  21324018.769    21324025.5844
  23704904.989   -10790313.765 8  -8386730.14946  23704905.236    23704914.6394
  21700068.243     4119622.171 9   3215790.08347  21700068.405    21700075.3504
  20658898.038    -9432847.416 9  -7334168.11348  20658897.883    20658904.6644
  24533487.529    -7046653.247 7  -5478587.02645  24533486.682    24533504.2734
  24431706.102     9604715.334 7   7355899.32945  24431705.452    24431718.5394
  22524667.364     3649494.340 8   2849550.81147  22524667.217    22524675.6644
 01  4 21 17 49 30.0010000  0  7 05 30 04 24 10 07 09
  21312802.697   -14840639.514 9 -11544450.53747  21312802.214    21312808.9864
  23686468.788   -10887196.397 8  -8462222.98746  23686469.019    23686478.3764
  21714213.257     4193954.465 9   3273711.27447  21714213.423    21714220.4024
  20658633.921    -9434235.176 9  -7335249.47948  20658633.775    20658640.5714
  24514051.897    -7148786.145 7  -5558170.74845  24514050.996    24514068.7434
  24444593.381     9672437.147 7   7408669.38445  24444592.750    24444605.7464
  22538181.682     3720512.158 8   2904889.26047  22538181.571    22538190.0534
 01  4 21 17 50  0.0010000  0  7 05 30 04 24 10 07 09
  21301649.261   -14899250.986 9 -11590121.78247  21301648.765    21301655.5234
  23668052.432   -10983974.632 8  -8537634.46646  23668052.608    23668061.8954
  21728424.060     4268632.665 9   3331902.00147  21728424.255    21728431.2504
  20658468.882    -9435102.416 9  -7335925.24148  20658468.740    20658475.5494
  24494610.957    -7250947.802 7  -5637776.87545  24494610.125    24494627.6824
  24457486.088     9740187.686 8   7461461.82045  24457485.425    24457498.4084
  22551761.963     3791876.517 8   2960497.73347  22551761.860    22551770.3564
 01  4 21 17 50 30.0010000  0  7 05 30 04 24 10 07 09
  21290559.340   -14957528.918 9 -11635533.12347  21290558.853    21290565.5954
  23649656.223   -11080646.720 8  -8612963.23046  23649656.404    23649665.7164
  21742700.241     4343654.179 9   3390360.25247  21742700.451    21742707.4554
  20658402.730    -9435450.072 9  -7336196.13448  20658402.595    20658409.3964
  24475164.908    -7353135.888 7  -5717403.61445  24475164.107    24475181.6844
  24470384.101     9807966.601 8   7514276.36645  24470383.406    24470396.5164
  22565407.665     3863584.397 8   3016373.87847  22565407.543    22565416.0004
 01  4 21 17 51  0.0010000  0  7 05 30 04 24 10 07 09
  21279533.549   -15015469.757 9 -11680681.79847  21279533.066    21279539.7964
  23631280.746   -11177209.572 8  -8688206.85446  23631280.935    23631290.3174
  21757041.391     4419017.152 9   3449084.57247  21757041.583    21757048.6094
  20658435.482    -9435277.839 9  -7336061.91448  20658435.343    20658442.1704
  24455714.708    -7455346.125 7  -5797047.60545  24455713.812    24455731.3154
  24483287.900     9875775.269 7   7567114.09145  24483287.143    24483300.3204
  22579118.317     3935633.962 8   3072516.27447  22579118.212    22579126.6734
 01  4 21 17 51 30.0010000  0  7 05 30 04 24 10 07 09
  21268572.148   -15073072.305 9 -11725566.87247  21268571.654    21268578.3614
  23612926.341   -11273662.219 8  -8763364.61046  23612926.461    23612935.9454
  21771446.887     4494718.043 9   3508072.20947  21771447.061    21771454.1084
  20658566.793    -9434587.757 9  -7335524.18048  20658566.652    20658573.4764
  24436260.619    -7557576.537 7  -5876707.31045  24436259.830    24436277.0954
  24496197.068     9943612.722 7   7619974.23845  24496196.406    24496209.6894
  22592893.305     4008021.464 8   3128921.99547  22592893.195    22592901.6674
 01  4 21 17 52  0.0010000  0  7 05 30 04 24 10 07 09
  21257675.542   -15130334.056 9 -11770186.38347  21257675.058    21257681.7614
  23594593.362   -11370002.190 8  -8838434.56846  23594593.503    23594602.9484
  21785916.153     4570754.305 9   3567321.17547  21785916.344    21785923.3884
  20658796.602    -9433380.120 9  -7334583.15148  20658796.453    20658803.2774
  24416803.463    -7659823.536 7  -5956379.95045  24416802.690    24416819.7914
  24509111.829    10011479.513 7   7672857.25245  24509111.185    24509124.4344
  22606732.156     4080744.591 8   3185589.24647  22606732.045    22606740.5674
 01  4 21 17 52 30.0010000  0  7 05 30 04 24 10 07 09
  21246844.259   -15187252.685 9 -11814538.52747  21246843.756    21246850.4934
  23576282.264   -11466226.885 8  -8913414.71446  23576282.399    23576291.8204
  21800448.841     4647123.880 9   3626829.86947  21800449.053    21800456.0944
  20659124.779    -9431655.564 9  -7333239.33148  20659124.636    20659131.4534
  24397343.562    -7762083.931 7  -6036063.02445  24397342.772    24397359.9234
  24522032.298    10079376.126 7   7725763.50845  24522031.591    24522044.9944
  22620634.372     4153800.855 8   3242516.07547  22620634.280    22620642.8154
 01  4 21 17 53  0.0010000  0  7 05 30 04 24 10 07 09
  21236078.503   -15243826.737 9 -11858622.16647  21236078.029    21236084.7684
  23557993.415   -11562334.952 8  -8988303.96646  23557993.541    23558002.9374
  21815044.371     4723823.359 9   3686595.62947  21815044.539    21815051.5764
  20659550.994    -9429415.771 9  -7331494.02948  20659550.841    20659557.6794
  24377881.698    -7864355.466 7  -6115754.78045  24377880.885    24377897.9724
  24534958.132    10147301.878 7   7778692.45145  24534957.592    24534970.9304
  22634599.386     4227186.668 8   3299699.69547  22634599.253    22634607.8344
 01  4 21 17 53 30.0010000  0  7 05 30 04 24 10 07 09
  21225378.888   -15300053.420 9 -11902435.13247  21225378.406    21225385.1854
  23539727.325   -11658323.520 8  -9063100.11846  23539727.456    23539736.7204
  21829702.248     4800850.717 9   3746616.87747  21829702.421    21829709.4754
  20660075.200    -9426660.946 9  -7329347.40748  20660075.038    20660081.8774
  24358418.430    -7966634.404 7  -6195452.30045  24358417.619    24358434.6114
  24547889.792    10215257.626 7   7831644.77045  24547889.199    24547902.6204
  22648626.647     4300900.191 8   3357138.66247  22648626.512    22648635.1634
 01  4 21 17 54  0.0010000  0  7 05 30 04 24 10 07 09
  21214745.658   -15355931.184 9 -11945976.20547  21214745.178    21214751.9564
  23521484.238   -11754191.058 8  -9137801.95246  23521484.426    23521493.5884
  21844421.884     4878202.724 9   3806891.10447  21844422.051    21844429.1394
  20660697.093    -9423392.836 9  -7326800.81748  20660696.937    20660703.7624
  24338954.223    -8068918.239 7  -6275153.63845  24338953.344    24338970.4224
  24560827.147    10283243.034 7   7884620.20345  24560826.524    24560840.0624
  22662715.642     4374938.124 8   3414830.42447  22662715.538    22662724.2824
 01  4 21 17 54 30.0010000  0  7 05 30 04 24 10 07 09
  21204179.283   -15411457.793 9 -11989243.66347  21204178.782    21204185.5544
  23503264.681   -11849935.202 8  -9212407.63746  23503264.829    23503273.9264
  21859202.829     4955876.983 9   3867416.43647  21859203.038    21859210.1484
  20661416.502    -9419612.355 9  -7323854.98748  20661416.349    20661423.1514
  24319489.668    -8171203.627 7  -6354856.19245  24319488.919    24319505.8774
  24573770.248    10351258.487 7   7937619.02645  24573769.623    24573783.1804
  22676865.880     4449297.593 8   3472772.72847  22676865.762    22676874.5364
 01  4 21 17 55  0.0010000  0  7 05 30 04 24 10 07 09
  21193680.121   -15466631.103 9 -12032235.81747  21193679.631    21193686.4094
  23485068.988   -11945553.958 8  -9286915.63546  23485069.106    23485078.1734
  21874044.616     5033870.837 9   3928190.79847  21874044.814    21874051.9644
  20662233.250    -9415320.376 9  -7320510.58748  20662233.104    20662239.9084
  24300025.335    -8273487.856 7  -6434557.83845  24300024.593    24300041.4714
  24586719.078    10419303.960 7   7990641.23645  24586718.419    24586731.9794
  22691076.750     4523975.469 8   3530963.13247  22691076.604    22691085.3884
 01  4 21 17 55 30.0010000  0  7 05 30 04 24 10 07 09
  21183248.688   -15521448.539 9 -12074950.66747  21183248.183    21183254.9634
  23466897.610   -12041044.568 8  -9361323.77646  23466897.745    23466906.7204
  21888946.787     5112181.913 9   3989212.34847  21888946.987    21888954.1374
  20663147.178    -9410517.574 9  -7316768.13948  20663147.021    20663153.8204
  24280561.897    -8375767.346 7  -6514255.80945  24280561.128    24280578.0284
  24599673.700    10487380.166 7   8043687.40045  24599672.931    24599686.8044
  22705347.837     4598969.755 8   3589400.09647  22705347.705    22705356.4774
 01  4 21 17 56  0.0010000  0  7 05 30 04 24 10 07 09
  21172885.139   -15575909.354 9 -12117387.63147  21172884.637    21172891.3914
  23448750.824   -12136406.143 8  -9435631.36346  23448750.978    23448759.8994
  21903908.663     5190806.350 9   4050478.07647  21903908.819    21903915.9284
  20664157.898    -9405206.317 9  -7312629.49648  20664157.741    20664164.5064
  24261099.762    -8478040.289 7  -6593948.67645  24261098.991    24261115.9004
  24612633.931    10555485.895 7   8096756.58745  24612633.198    24612647.0014
  22719678.253     4674276.027 8   3648080.15547  22719678.104    22719686.9244
 01  4 21 17 56 30.0010000  0  8 05 30 04 24 10 07 06 09
  21162589.971   -15630010.858 9 -12159544.61247  21162589.474    21162596.1864
  23430629.098   -12231636.031 8  -9509836.33846  23430629.233    23430638.1664
  21918929.675     5269741.967 9   4111986.28247  21918929.830    21918936.9214
  20665265.225    -9399387.379 9  -7308095.25948  20665265.065    20665271.8204
  24241639.517    -8580303.352 7  -6673633.86645  24241638.663    24241655.5264
  24625600.026    10623621.849 7   8149849.29245  24625599.241    24625613.1394
  25161962.216    -5616550.242 8  -4358500.96345  25161962.316    25161975.5544
  22734067.620     4749892.139 8   3707001.64647  22734067.492    22734076.3344
 01  4 21 17 57  0.0010000  0  8 05 30 04 24 10 07 06 09
  21152362.815   -15683754.814 9 -12201422.98647  21152362.294    21152369.0224
  23412532.147   -12326735.591 8  -9583939.75446  23412532.361    23412541.1664
  21934008.671     5348982.498 9   4173732.08347  21934008.822    21934015.9514
  20666468.333    -9393065.023 9  -7303168.74948  20666468.142    20666474.9334
  24222181.078    -8682557.081 7  -6753311.80345  24222180.234    24222196.8024
  24638571.168    10691784.452 7   8202962.79345  24638570.481    24638584.0694
  25148332.152    -5688176.106 8  -4414313.20045  25148332.082    25148345.1864
  22748514.724     4825811.602 8   3766159.51947  22748514.581    22748523.4994
 01  4 21 17 57 30.0010000  0  8 05 30 04 24 10 07 06 09
  21142205.233   -15737133.026 9 -12243016.36747  21142204.716    21142211.4604
  23394461.492   -12421696.940 8  -9657935.45446  23394461.681    23394470.5744
  21949146.289     5428531.024 8   4235717.87747  21949146.432    21949153.6304
  20667768.091    -9386234.557 9  -7297846.31048  20667767.922    20667774.7364
  24202726.075    -8784792.454 7  -6832975.41645  24202725.253    24202741.7074
  24651548.410    10759979.758 7   8256101.73645  24651547.738    24651561.4834
  25134708.683    -5759767.333 8  -4470098.46845  25134708.584    25134721.5584
  22763020.103     4902037.548 8   3825556.19947  22763019.949    22763028.9544
 01  4 21 17 58  0.0010000  0  8 05 30 04 24 10 07 06 09
  21132117.694   -15790143.180 9 -12284322.94847  21132117.190    21132123.9174
  23376417.559   -12516517.694 8  -9731821.61246  23376417.743    23376426.6714
  21964342.077     5508385.186 8   4297941.82847  21964342.222    21964349.4534
  20669164.387    -9378896.900 9  -7292128.66148  20669164.215    20669171.0524
  24183275.111    -8887006.060 7  -6912622.08145  24183274.428    24183290.7694
  24664531.911    10828208.067 7   8309266.41845  24664531.440    24664544.9954
  25121091.822    -5831323.882 7  -4525856.68045  25121091.720    25121104.6324
  22777583.342     4978567.209 8   3885189.54447  22777583.177    22777592.2094
 01  4 21 17 58 30.0010000  0  8 05 30 04 24 10 07 06 09
  21122100.234   -15842785.199 9 -12325342.67147  21122099.725    21122106.4374
  23358400.469   -12611197.294 8  -9805597.79546  23358400.646    23358409.6054
  21979595.171     5588540.622 8   4360400.53547  21979595.333    21979602.5904
  20670656.642    -9371055.204 9  -7286018.25348  20670656.462    20670663.2924
  24163828.660    -8989196.408 7  -6992250.62945  24163828.081    24163844.2094
  24677521.490    10896467.962 7   8362455.69045  24677520.957    24677534.6764
  25107481.229    -5902847.553 7  -4581589.29445  25107481.093    25107494.0164
  22792203.479     5055396.008 8   3945055.97847  22792203.326    22792212.3804
 01  4 21 17 59  0.0010000  0  8 05 30 04 24 10 07 06 09
  21112153.272   -15895056.740 9 -12366073.71547  21112152.781    21112159.4614
  23340410.656   -12705733.404 8  -9879262.16146  23340410.840    23340419.8574
  21994905.146     5668994.736 8   4423091.97147  21994905.304    21994912.5954
  20672244.595    -9362710.436 9  -7279515.84448  20672244.413    20672251.2484
  24144387.313    -9091360.627 8  -7071858.84945  24144386.719    24144402.7544
  24690517.180    10964759.734 7   8415669.84245  24690516.771    24690530.5194
  25093876.965    -5974338.339 7  -4637296.30445  25093876.890    25093889.6674
  22806880.008     5132521.082 8   4005153.27547  22806879.865    22806888.9704
 01  4 21 17 59 30.0010000  0  8 05 30 04 24 10 07 06 09
  21102277.170   -15946956.059 9 -12406514.71147  21102276.688    21102283.3164
  23322448.608   -12800124.083 8  -9952813.19746  23322448.775    23322457.8224
  22010271.386     5749744.599 8   4486013.87147  22010271.506    22010278.8314
  20673928.003    -9353864.089 9  -7272622.59448  20673927.818    20673934.6214
  24124951.463    -9193495.956 7  -7151444.55345  24124950.864    24124966.8334
  24703518.909    11033083.273 7   8468908.72745  24703518.330    24703532.0764
  25080278.821    -6045796.950 7  -4692978.23245  25080278.705    25080291.3474
  22821612.334     5209939.185 8   4065478.91347  22821612.176    22821621.3204
 01  4 21 18  0  0.0010000  0  8 05 30 04 24 10 07 06 09
  21092472.193   -15998481.613 9 -12446664.46747  21092471.666    21092478.2684
  23304514.531   -12894367.519 8 -10026249.51946  23304514.770    23304523.7724
  22025693.303     5830787.190 8   4549163.86647  22025693.440    22025700.7924
  20675706.586    -9344517.727 9  -7265339.71948  20675706.386    20675713.1944
  24105521.611    -9295599.454 8  -7231005.46545  24105520.996    24105536.8314
  24716526.611    11101438.200 7   8522172.06945  24716526.006    24716539.9404
  25066686.745    -6117223.807 7  -4748635.41745  25066686.544    25066699.2234
  22836399.831     5287647.118 8   4126030.39647  22836399.669    22836408.8184
 01  4 21 18  0 30.0010000  0  8 05 30 04 24 10 07 06 09
  21082738.870   -16049630.576 9 -12486520.77447  21082738.344    21082744.9484
  23286609.055   -12988460.981 8 -10099568.97046  23286609.286    23286618.2784
  22041170.600     5912120.472 8   4612540.36847  22041170.715    22041178.0624
  20677580.238    -9334671.686 9  -7257667.48248  20677580.039    20677586.8324
  24086098.588    -9397667.352 7  -7310538.64345  24086097.882    24086113.6504
  24729540.358    11169825.251 7   8575460.40945  24729539.585    24729553.7664
  25053100.579    -6188618.575 7  -4804267.57845  25053100.490    25053113.2304
  22851242.013     5365642.625 8   4186805.95447  22851241.854    22851251.0424
 01  4 21 18  1  0.0010000  0  8 05 30 04 24 10 07 06 09
  21073077.541   -16100401.010 9 -12526082.12447  21073077.022    21073083.6294
  23268732.573   -13082402.430 8 -10172770.00746  23268732.812    23268741.6384
  22056702.634     5993741.553 8   4676141.12147  22056702.732    22056710.1154
  20679548.647    -9324327.595 9  -7249607.16148  20679548.447    20679555.2484
  24066682.861    -9499696.887 7  -7390041.91145  24066682.153    24066697.8574
  24742560.205    11238244.623 7   8628773.94845  24742559.571    24742574.0874
  25039520.466    -6259981.651 7  -4859875.04845  25039520.461    25039533.3194
  22866138.388     5443922.538 8   4247803.12347  22866138.202    22866147.4134
 01  4 21 18  1 30.0010000  0  8 05 30 04 24 10 07 06 09
  21063488.626   -16150791.054 9 -12565347.06247  21063488.111    21063494.7034
  23250885.397   -13176189.632 8 -10245850.83746  23250885.656    23250894.4384
  22072288.934     6075647.798 8   4739964.08147  22072289.042    22072296.4494
  20681611.585    -9313486.844 9  -7241159.82648  20681611.378    20681618.2124
  24047274.982    -9601685.357 7  -7469513.18845  24047274.239    24047289.8134
  24755586.295    11306696.320 7   8682112.70845  24755585.584    24755600.1574
  25025946.212    -6331313.098 7  -4915457.89545  25025946.297    25025959.2924
  22881088.201     5522483.823 8   4309019.54646  22881088.032    22881097.2734
 01  4 21 18  2  0.0010000  0  8 05 30 04 24 10 07 06 09
  21053972.562   -16200798.275 9 -12604313.69847  21053972.028    21053978.6444
  23233068.071   -13269820.171 8 -10318809.58846  23233068.341    23233076.9764
  22087929.048     6157836.767 8   4804007.34447  22087929.164    22087936.5704
  20683768.816    -9302150.489 9  -7232326.30648  20683768.635    20683775.4414
  24027875.654    -9703628.873 7  -7548949.44645  24027874.819    24027890.3254
  24768618.648    11375180.861 7   8735477.04845  24768617.962    24768632.5484
  25012378.260    -6402612.803 7  -4971015.96645  25012378.251    25012391.2194
  22896091.078     5601324.023 8   4370453.30646  22896090.916    22896100.2144
 01  4 21 18  2 30.0010000  0  8 05 30 04 24 10 07 06 09
  21044529.509   -16250421.934 9 -12642981.45747  21044528.956    21044535.5434
  23215280.769   -13363292.884 8 -10391645.35546  23215281.065    23215289.6254
  22103622.209     6240304.563 8   4868267.87747  22103622.321    22103629.7634
  20686019.983    -9290320.738 9  -7223108.31748  20686019.796    20686026.5784
  24008485.257    -9805525.307 8  -7628349.01845  24008484.433    24008499.8324
  24781657.092    11443697.069 7   8788866.06145  24781656.466    24781670.9154
  24998816.138    -6473882.119 7  -5026550.37845  24998816.060    24998829.1054
  22911146.288     5680439.054 8   4432101.21946  22911146.104    22911155.4854
 01  4 21 18  3  0.0010000  0  8 05 30 04 24 10 07 06 09
  21035160.038   -16299658.627 9 -12681347.68647  21035159.512    21035166.0844
  23197524.143   -13456604.030 8 -10464355.23446  23197524.438    23197532.9574
  22119368.180     6323049.963 8   4932744.71947  22119368.310    22119375.7784
  20688365.007    -9277997.487 9  -7213505.78748  20688364.813    20688371.6044
  23989104.634    -9907370.392 8  -7707708.58345  23989103.750    23989119.0424
  24794701.963    11512246.706 7   8842281.12945  24794701.425    24794715.6264
  24985259.936    -6545119.781 7  -5082060.09945  24985259.885    24985272.9474
  22926253.475     5759827.361 8   4493962.06546  22926253.315    22926262.7504
 01  4 21 18  3 30.0010000  0  8 05 30 04 24 10 07 06 09
  21025864.511   -16348506.728 9 -12719411.11747  21025863.987    21025870.5824
  23179798.570   -13549751.769 8 -10536937.77946  23179798.859    23179807.4284
  22135166.423     6406069.969 8   4997435.53147  22135166.573    22135174.0724
  20690803.538    -9265182.949 9  -7203520.43348  20690803.335    20690810.1584
  23969734.176   -10009161.632 8  -7787026.18845  23969733.299    23969748.5104
  24807752.903    11580829.340 7   8895721.90645  24807752.331    24807766.8684
  24971709.677    -6616326.581 7  -5137545.76245  24971709.715    24971722.6914
  22941412.026     5839485.443 8   4556033.13346  22941411.871    22941421.3274
 01  4 21 18  4  0.0010000  0  8 05 30 04 24 10 07 06 09
  21016643.291   -16396964.546 9 -12757170.43147  21016642.771    21016649.3604
  23162104.542   -13642733.944 8 -10609391.32146  23162104.829    23162113.2974
  22151016.404     6489361.697 8   5062338.07847  22151016.540    22151024.0394
  20693335.287    -9251878.308 9  -7193153.18148  20693335.092    20693341.9204
  23950374.521   -10110896.069 7  -7866299.52745  23950373.712    23950388.8754
  24820810.213    11649445.087 7   8949188.48045  24820809.571    24820824.1904
  24958165.301    -6687502.662 7  -5193007.50845  24958165.262    24958178.2374
  22956621.308     5919410.276 8   4618312.05646  22956621.161    22956630.6954
 01  4 21 18  4 30.0010000  0  7 05 30 04 24 10 06 09
  21007496.874   -16445029.060 9 -12794623.27947  21007496.353    21007502.9514
  23144442.677   -13735547.344 8 -10681713.36546  23144442.976    23144451.3214
  22166917.761     6572923.446 8   5127451.03447  22166917.902    22166925.4234
  20695960.304    -9238083.806 9  -7182404.22248  20695960.115    20695966.9294
  23931026.546   -10212569.251 8  -7945525.12145  23931025.716    23931040.8254
  24944626.759    -6758647.276 7  -5248444.74645  24944626.774    24944639.8364
  22971881.059     5999599.970 8   4680797.36046  22971880.887    22971890.3994
 01  4 21 18  5  0.0010000  0  7 05 30 04 24 10 06 09
  20998425.653   -16492698.683 9 -12831768.41347  20998425.133    20998431.7194
  23126813.296   -13828190.068 8 -10753902.40246  23126813.500    23126821.8534
  22182869.896     6656752.296 8   5192772.12347  22182870.058    22182877.5964
  20698678.208    -9223801.273 9  -7171274.97948  20698678.013    20698684.8044
  23911690.758   -10314178.409 7  -8024700.83445  23911689.982    23911705.0684
  24931094.125    -6829761.183 7  -5303858.07145  24931094.183    24931107.2074
  22987190.542     6080051.214 8   4743486.47446  22987190.409    22987199.9344
 01  4 21 18  5 30.0010000  0  7 05 30 04 24 10 06 09
  20989429.794   -16539972.075 9 -12868604.79247  20989429.281    20989435.8484
  23109216.680   -13920660.487 8 -10825957.16446  23109216.872    23109225.1884
  22198872.264     6740844.815 8   5258298.66347  22198872.410    22198879.9554
  20701488.480    -9209033.134 9  -7159767.33948  20701488.288    20701495.0814
  23892367.505   -10415721.492 8  -8103825.07145  23892366.689    23892381.7664
  24917567.265    -6900845.162 8  -5359248.09645  24917567.237    24917580.2174
  23002549.073     6160760.060 8   4806376.31646  23002548.936    23002558.4504
 01  4 21 18  6  0.0010000  0  7 05 30 04 24 10 06 09
  20980509.732   -16586847.213 9 -12905130.85247  20980509.206    20980515.7814
  23091653.261   -14012956.473 8 -10897876.01546  23091653.461    23091661.7454
  22214924.258     6825198.263 8   5324028.53047  22214924.408    22214931.9604
  20704390.885    -9193780.878 9  -7147882.47448  20704390.679    20704397.4904
  23873057.554   -10517195.179 8  -8182895.23145  23873056.707    23873071.7144
  24904046.038    -6971899.300 8  -5414614.86745  24904045.928    24904058.8684
  23017956.117     6241723.686 8   4869464.68646  23017955.960    23017965.5024
 01  4 21 18  6 30.0010000  0  7 05 30 04 24 10 06 09
  20971665.786   -16633322.174 9 -12941345.08347  20971665.268    20971671.8494
  23074123.456   -14105075.798 8 -10969657.20546  23074123.677    23074131.8984
  22231025.432     6909810.016 8   5389959.67047  22231025.571    22231033.1784
  20707385.213    -9178045.688 9  -7135621.29348  20707385.026    20707391.8094
  23853761.389   -10618596.248 8  -8261908.81445  23853760.626    23853775.3994
  24890530.429    -7042923.957 8  -5469958.65045  24890530.235    24890543.2144
  23033411.007     6322939.021 8   4932749.18246  23033410.871    23033420.4474
 01  4 21 18  7  0.0010000  0  7 05 30 04 24 10 06 09
  20962898.583   -16679394.236 9 -12977245.36847  20962898.058    20962904.6214
  23056627.851   -14197015.338 8 -11041298.30746  23056628.089    23056636.3334
  22247175.388     6994678.215 8   5456090.63847  22247175.540    22247183.1554
  20710471.366    -9161828.120 9  -7122984.23848  20710471.159    20710477.9174
  23834479.724   -10719920.820 8  -8340862.78645  23834479.053    23834493.7414
  24877020.591    -7113918.630 8  -5525279.07745  24877020.447    24877033.2924
  23048913.407     6404404.125 8   4996228.31146  23048913.249    23048922.9264
 01  4 21 18  7 30.0010000  0  7 05 30 04 24 10 06 09
  20954208.344   -16725061.572 9 -13012830.29347  20954207.834    20954214.3534
  23039166.805   -14288773.033 8 -11112797.70646  23039167.037    23039175.3414
  22263373.635     7079800.050 8   5522419.24747  22263373.757    22263381.3784
  20713648.882    -9145130.120 9  -7109972.82448  20713648.669    20713655.4244
  23815213.216   -10821165.967 8  -8419754.87045  23815212.582    23815227.2014
  24863516.311    -7184883.601 8  -5580576.35545  24863516.176    24863528.9584
  23064462.717     6486115.695 8   5059899.48546  23064462.575    23064472.2774
 01  4 21 18  8  0.0010000  0  7 05 30 04 24 10 06 09
  20945595.395   -16770322.805 9 -13048098.76547  20945594.896    20945601.3924
  23021740.832   -14380347.065 8 -11184154.00746  23021741.041    23021749.3104
  22279619.572     7165172.546 8   5588943.18147  22279619.700    22279627.2924
  20716917.535    -9127953.361 9  -7096588.34948  20716917.317    20716924.0904
  23795962.241   -10922329.307 8  -8498583.19145  23795961.629    23795976.1484
  24850017.621    -7255819.412 8  -5635850.90245  24850017.421    24850030.2764
  23080058.284     6568070.364 8   5123760.08846  23080058.138    23080067.8904
 01  4 21 18  8 30.0010000  0  7 05 30 04 24 10 06 09
  20937060.220   -16815175.475 9 -13083048.88047  20937059.705    20937066.2094
  23004350.316   -14471734.254 8 -11255364.70146  23004350.510    23004358.8344
  22295912.710     7250793.486 8   5655660.70746  22295912.881    22295920.4984
  20720277.083    -9110298.747 9  -7082831.52248  20720276.881    20720283.6724
  23776727.672   -11023406.546 8  -8577344.44045  23776727.015    23776741.5454
  24836524.536    -7326725.587 8  -5691102.38145  24836524.412    24836537.1014
  23095699.723     6650265.730 8   5187808.25446  23095699.550    23095709.3304
 01  4 21 18  9  0.0010000  0  7 05 30 04 24 10 06 09
  20928603.343   -16859616.506 9 -13117678.23747  20928602.830    20928609.3114
  22986995.909   -14562931.518 8 -11326427.41346  22986996.144    22987004.4904
  22312252.838     7336661.221 8   5722570.54946  22312253.048    22312260.6434
  20723727.488    -9092166.716 9  -7068702.68148  20723727.292    20723734.0974
  23757510.278   -11124393.846 8  -8656035.59645  23757509.569    23757524.1264
  24823037.251    -7397601.484 8  -5746330.25345  24823037.279    24823049.7974
  23111386.509     6732699.867 8   5252042.46946  23111386.340    23111396.1964
 01  4 21 18  9 30.0010000  0  7 05 30 04 24 10 06 09
  20920224.839   -16903645.681 9 -13151986.66947  20920224.330    20920230.8234
  22969677.854   -14653938.085 8 -11397341.54746  22969678.142    22969686.4424
  22328639.209     7422771.679 8   5789669.52246  22328639.395    22328647.0194
  20727268.155    -9073560.349 9  -7054204.22548  20727267.971    20727274.7654
  23738310.409   -11225289.363 8  -8734655.23245  23738309.591    23738324.1024
  24809555.452    -7468448.990 8  -5801535.99245  24809555.382    24809567.8924
  23127117.873     6815367.990 8   5316459.01046  23127117.719    23127127.6094
 01  4 21 18 10  0.0010000  0  7 05 30 04 24 10 06 09
  20911925.141   -16947260.793 9 -13185972.45547  20911924.636    20911931.1284
  22952396.613   -14744751.492 8 -11468105.15746  22952396.896    22952405.1844
  22345071.285     7509122.372 8   5856955.68646  22345071.469    22345079.1264
  20730898.765    -9054481.478 9  -7039337.58948  20730898.578    20730905.3824
  23719128.634   -11326089.640 8  -8813200.64945  23719127.810    23719142.2164
  24796078.922    -7539267.877 8  -5856719.43445  24796078.842    24796091.3114
  23142893.253     6898267.703 8   5381056.00846  23142893.108    23142903.0504
 01  4 21 18 10 30.0010000  0  7 05 30 04 24 10 06 09
  20903704.590   -16990460.079 9 -13219634.22547  20903704.087    20903710.5644
  22935152.587   -14835369.140 8 -11538716.22746  22935152.885    22935161.1164
  22361548.536     7595710.536 8   5924426.90346  22361548.692    22361556.3904
  20734619.020    -9034931.426 9  -7024103.79348  20734618.822    20734625.6414
  23699965.430   -11426791.800 8  -8891669.61645  23699964.576    23699978.9294
  24782607.821    -7610058.483 8  -5911880.83345  24782607.628    24782620.1964
  23158712.155     6981395.822 8   5445830.98846  23158711.977    23158721.9964
 01  4 21 18 11  0.0010000  0  7 05 30 04 24 10 06 09
  20895563.624   -17033241.130 9 -13252970.09847  20895563.113    20895569.5904
  22917946.278   -14925788.440 8 -11609172.73646  22917946.576    22917954.8344
  22378070.564     7682534.066 8   5992081.52446  22378070.714    22378078.4534
  20738428.685    -9014911.684 9  -7008504.00748  20738428.485    20738435.2974
  23680821.604   -11527392.091 8  -8970059.17945  23680820.839    23680835.0914
  24769142.104    -7680820.520 8  -5967019.96445  24769141.869    24769154.4294
  23174573.989     7064749.590 8   5510781.79946  23174573.826    23174583.8854
 01  4 21 18 11 30.0010000  0  7 05 30 04 24 10 06 09
  20887502.640   -17075601.909 9 -13285978.48147  20887502.123    20887508.5984
  22900778.205   -15016006.936 8 -11679472.76946  22900778.481    22900786.7874
  22394636.954     7769590.627 8   6059917.72246  22394637.115    22394644.8864
  20742327.531    -8994422.934 9  -6992538.75848  20742327.346    20742334.1704
  23661697.772   -11627887.242 8  -9048366.83845  23661697.048    23661711.2214
  24755681.995    -7751553.713 7  -6022136.60745  24755681.819    24755694.2344
  23190478.215     7148326.212 8   5575906.26846  23190478.066    23190488.1304
 01  4 21 18 12  0.0010000  0  7 05 30 04 24 10 06 09
  20879521.877   -17117540.907 9 -13318658.21447  20879521.378    20879527.8654
  22883648.744   -15106022.596 8 -11749614.75246  22883649.010    22883657.2894
  22411247.088     7856877.214 8   6127933.15746  22411247.216    22411255.0654
  20746315.210    -8973467.623 9  -6976209.95648  20746315.025    20746321.8464
  23642594.553   -11728274.412 8  -9126590.34945  23642593.793    23642607.8854
  24742227.039    -7822258.874 7  -6077231.40745  24742226.963    24742239.3944
  23206424.224     7232122.422 8   5641201.83746  23206424.037    23206434.1924
 01  4 21 18 12 30.0010000  0  7 05 30 04 24 10 06 09
  20871621.714   -17159056.556 9 -13351008.05747  20871621.227    20871627.7094
  22866558.280   -15195833.379 8 -11819597.09746  22866558.531    22866566.7264
  22427900.474     7944390.705 8   6196125.40546  22427900.578    22427908.4034
  20750391.289    -8952047.762 9  -6959519.16348  20750391.103    20750397.9204
  23623512.429   -11828550.818 8  -9204727.54545  23623511.693    23623525.7164
  24728777.393    -7892936.429 7  -6132304.69945  24728777.445    24728789.8134
  23222411.384     7316134.837 8   5706665.87646  23222411.219    23222421.3884
 01  4 21 18 13  0.0010000  0  7 05 30 04 24 10 06 09
  20863802.613   -17200146.168 9 -13383025.93147  20863802.120    20863808.5834
  22849507.447   -15285435.991 8 -11889417.22546  22849507.685    22849515.8274
  22444596.690     8032129.395 8   6264493.12546  22444596.779    22444604.5924
  20754555.626    -8930164.106 9  -6942466.97448  20754555.450    20754562.2334
  23604452.201   -11928712.239 8  -9282775.14745  23604451.449    23604465.4354
  24715333.204    -7963585.579 7  -6187355.86245  24715333.131    24715345.4714
  23238439.367     7400361.374 8   5772296.75646  23238439.163    23238449.3604
 01  4 21 18 13 30.0010000  0  7 05 30 04 24 10 06 09
  20856064.920   -17240808.164 9 -13414710.59447  20856064.407    20856070.9104
  22832496.556   -15374828.423 8 -11959073.57646  22832496.771    22832504.8644
  22461335.211     8120090.642 8   6333034.26846  22461335.331    22461343.1774
  20758807.959    -8907818.076 9  -6925054.49148  20758807.766    20758814.5544
  23585414.315   -12028755.779 8  -9360730.88345  23585413.549    23585427.5244
  24701894.283    -8034206.708 7  -6242385.16445  24701894.215    24701906.4114
  23254507.399     7484798.493 8   5838091.74346  23254507.179    23254517.3734
 01  4 21 18 14  0.0010000  0  7 05 30 04 24 10 06 09
  20848408.988   -17281040.312 9 -13446060.31447  20848408.457    20848414.9384
  22815526.248   -15464007.844 8 -12028563.93846  22815526.480    22815534.4884
  22478115.652     8208272.184 8   6401747.06146  22478115.764    22478123.6434
  20763147.957    -8885011.323 9  -6907283.00548  20763147.752    20763154.5534
  23566399.544   -12128677.940 8  -9438592.04946  23566398.762    23566412.7284
  24688460.590    -8104799.473 7  -6297392.33445  24688460.664    24688473.1564
  23270615.034     7569443.992 8   5904049.09246  23270614.818    23270625.0734
 01  4 21 18 14 30.0010000  0  7 05 30 04 24 10 06 09
  20840835.177   -17320841.001 9 -13477073.82947  20840834.660    20840841.1174
  22798596.853   -15552972.124 8 -12097886.67446  22798597.050    22798605.0214
  22494937.495     8296671.251 8   6470629.35146  22494937.579    22494945.4984
  20767575.310    -8861745.498 9  -6889153.80348  20767575.117    20767581.8944
  23547408.580   -12228475.404 8  -9516356.04845  23547407.779    23547421.7284
  24675032.470    -8175364.425 7  -6352377.86445  24675032.481    24675045.0544
  23286761.719     7654294.725 8   5970166.36046  23286761.520    23286771.8074
 01  4 21 18 15  0.0010000  0  7 05 30 04 24 10 06 09
  20833343.706   -17360208.912 9 -13507750.11547  20833343.187    20833349.6294
  22781708.792   -15641719.315 8 -12167040.23646  22781708.932    22781716.8844
  22511800.187     8385284.724 8   6539678.71346  22511800.295    22511808.1864
  20772089.604    -8838022.774 9  -6870668.57548  20772089.402    20772096.1974
  23528441.774   -12328145.591 8  -9594020.87345  23528440.960    23528454.8124
  24661609.532    -8245902.435 7  -6407342.38045  24661609.453    24661622.0274
  23302946.798     7739347.015 8   6036440.67846  23302946.566    23302956.8994
 01  4 21 18 15 30.0010000  0  7 05 30 04 24 10 06 09
  20825935.064   -17399141.641 9 -13538087.29847  20825934.536    20825940.9814
  22764862.572   -15730246.527 8 -12236022.38846  22764862.744    22764870.6154
  22528703.283     8474110.308 8   6608893.35546  22528703.333    22528711.1874
  20776690.572    -8813844.624 9  -6851828.47548  20776690.367    20776697.1654
  23509499.838   -12427684.881 8  -9671583.69745  23509498.993    23509512.8654
  24648191.890    -8316413.077 7  -6462285.57745  24648191.712    24648204.1504
  23319169.827     7824598.662 8   6102870.33846  23319169.594    23319179.8934
 01  4 21 18 16  0.0010000  0  7 05 30 04 24 10 06 09
  20818609.618   -17437637.163 9 -13568083.79948  20818609.107    20818615.5404
  22748058.714   -15818550.998 8 -12304830.97646  22748058.917    22748066.7234
  22545646.280     8563146.033 8   6678271.73146  22545646.324    22545654.2214
  20781377.917    -8789212.406 9  -6832634.55248  20781377.712    20781384.5214
  23490583.489   -12527089.732 8  -9749041.76246  23490582.668    23490596.4684
  24634779.328    -8386896.029 7  -6517207.19245  24634779.177    24634791.5284
  23335430.153     7910046.406 8   6169452.79646  23335429.907    23335440.3284
 01  4 21 18 16 30.0010000  0  7 05 30 04 24 10 06 09
  20811367.523   -17475694.473 9 -13597738.83448  20811367.011    20811373.4714
  22731297.437   -15906631.432 8 -12373464.98946  22731297.700    22731305.4784
  22562628.539     8652388.343 8   6747811.09346  22562628.627    22562636.5724
  20786151.172    -8764128.823 9  -6813088.91848  20786150.987    20786157.8094
  23471693.320   -12626357.674 8  -9826393.16346  23471692.535    23471706.1544
  24621371.769    -8457352.403 7  -6572108.09445  24621371.629    24621383.9424
  23351727.056     7995686.565 8   6236185.19546  23351726.836    23351737.2844
 01  4 21 18 17  0.0010000  0  7 05 30 04 24 10 06 09
  20804209.332   -17513310.879 9 -13627050.31248  20804208.846    20804215.2984
  22714579.522   -15994484.235 8 -12441921.63446  22714579.774    22714587.5704
  22579649.826     8741835.701 8   6817510.22946  22579649.953    22579657.9484
  20791010.311    -8738593.886 9  -6793191.58248  20791010.133    20791016.9624
  23452830.037   -12725484.189 8  -9903634.36446  23452829.235    23452842.7814
  24607969.354    -8527781.344 7  -6626987.63045  24607969.347    24607981.6464
  23368060.166     8081517.212 8   6303066.02946  23368059.968    23368070.5064
 01  4 21 18 17 30.0010000  0  7 05 30 04 24 10 06 09
  20797135.424   -17550484.611 9 -13656016.84448  20797134.933    20797141.3614
  22697905.318   -16082107.304 8 -12510199.26546  22697905.577    22697913.3674
  22596709.738     8831485.522 8   6887367.13346  22596709.833    22596717.8594
  20795954.922    -8712609.860 9  -6772944.30548  20795954.730    20795961.5754
  23433994.101   -12824466.791 8  -9980763.42446  23433993.285    23434006.7864
  24594572.284    -8598183.058 7  -6681845.94545  24594572.133    24594584.5174
  23384428.998     8167535.139 8   6370092.77646  23384428.766    23384439.3844
 01  4 21 18 18  0.0010000  0  7 05 30 04 24 10 06 09
  20790145.986   -17587214.280 9 -13684637.35748  20790145.472    20790151.8994
  22681275.332   -16169498.139 8 -12578295.93646  22681275.600    22681283.3834
  22613807.613     8921335.299 8   6957379.84246  22613807.737    22613815.7594
  20800984.604    -8686178.957 9  -6752348.81248  20800984.398    20800991.2214
  23415186.114   -12923302.311 8 -10057777.87646  23415185.285    23415198.7944
  24581180.195    -8668558.067 7  -6736683.44745  24581180.103    24581192.4374
  23400832.833     8253737.181 8   6437262.99946  23400832.630    23400843.3054
 01  4 21 18 18 30.0010000  0  7 05 30 04 24 10 06 09
  20783241.374   -17623498.341 9 -13712910.64448  20783240.862    20783247.2834
  22664689.888   -16256654.880 8 -12646210.19146  22664690.142    22664697.9284
  22630942.928     9011381.591 8   7027545.67846  22630943.064    22630951.1534
  20806098.887    -8659303.225 9  -6731406.70348  20806098.678    20806105.5164
  23396406.776   -13021987.670 8 -10134675.34146  23396405.916    23396419.3554
  24567793.259    -8738906.534 8  -6791500.27745  24567793.171    24567805.5194
  23417271.018     8340119.997 8   6504574.07946  23417270.851    23417281.6334
 01  4 21 18 19  0.0010000  0  7 05 30 04 24 10 06 09
  20776422.016   -17659334.370 9 -13740834.81248  20776421.503    20776427.9054
  22648149.630   -16343574.303 8 -12713939.51346  22648149.882    22648157.6674
  22648115.304     9101622.576 8   7097863.21646  22648115.435    22648123.5284
  20811297.650    -8631983.588 9  -6710118.69048  20811297.439    20811304.2734
  23377656.675   -13120518.770 8 -10211452.60446  23377655.896    23377669.2274
  24554411.471    -8809228.008 8  -6846296.09445  24554411.374    24554423.5694
  23433743.208     8426681.273 8   6572024.20846  23433743.047    23433753.8834
 01  4 21 18 19 30.0010000  0  7 05 30 04 24 10 06 09
  20769688.162   -17694721.042 9 -13768408.83148  20769687.624    20769694.0364
  22631654.944   -16430254.497 8 -12781482.43746  22631655.171    22631662.9164
  22665324.225     9192055.736 8   7168330.51446  22665324.382    22665332.5074
  20816580.504    -8604222.242 9  -6688486.49148  20816580.301    20816587.1314
  23358936.498   -13218892.957 8 -10288107.59446  23358935.715    23358948.9824
  24541034.707    -8879523.226 8  -6901071.43945  24541034.635    24541046.7194
  23450248.789     8513417.525 8   6639610.68246  23450248.630    23450259.4484
 01  4 21 18 20  0.0010000  0  7 05 30 04 24 10 06 09
  20763040.218   -17729656.170 9 -13795630.99848  20763039.677    20763046.1084
  22615206.266   -16516692.739 8 -12848836.82746  22615206.478    22615214.2154
  22682569.284     9282678.812 8   7238945.78846  22682569.414    22682577.5974
  20821947.121    -8576020.661 9  -6666511.25148  20821946.906    20821953.7064
  23340246.873   -13317106.643 8 -10364637.51446  23340246.085    23340259.3274
  24527662.903    -8949791.943 8  -6955826.13845  24527662.843    24527674.8774
  23466787.103     8600326.376 8   6707331.64946  23466786.971    23466797.8494
 01  4 21 18 20 30.0010000  0  7 05 30 04 24 10 06 09
  20756478.414   -17764138.659 9 -13822500.46348  20756477.879    20756484.3194
  22598803.981   -16602887.000 8 -12916001.10246  22598804.193    22598811.8634
  22699849.969     9373488.604 8   7309706.56546  22699850.050    22699858.2464
  20827397.079    -8547381.138 9  -6644194.75948  20827396.853    20827403.6424
  23321588.270   -13415156.858 8 -10441040.06646  23321587.501    23321600.7484
  24514296.083    -9020034.704 8  -7010560.62245  24514295.966    24514307.9724
  23483357.663     8687404.368 8   6775184.41746  23483357.559    23483368.4624
 01  4 21 18 21  0.0010000  0  7 05 30 04 24 10 06 09
  20750003.167   -17798166.302 9 -13849015.50248  20750002.612    20750009.0364
  22582448.804   -16688833.860 8 -12982972.59146  22582449.006    22582456.6764
  22717165.807     9464483.320 8   7380611.43246  22717165.863    22717174.1024
  20832930.138    -8518304.644 9  -6621537.76448  20832929.893    20832936.7214
  23302961.495   -13513040.149 8 -10517312.56546  23302960.726    23302973.9164
  24500934.331    -9090250.923 8  -7065274.42745  24500934.166    24500946.1054
  23499959.968     8774648.842 8   6843166.91446  23499959.805    23499970.7554
 01  4 21 18 21 30.0010000  0  7 05 30 04 24 10 06 09
  20743614.691   -17831738.051 9 -13875175.30348  20743614.155    20743620.5574
  22566140.922   -16774532.193 8 -13049750.41947  22566141.126    22566148.7614
  22734516.180     9555659.762 8   7451657.89946  22734516.242    22734524.5164
  20838545.788    -8488794.237 9  -6598542.66148  20838545.565    20838552.3804
  23284367.055   -13610753.957 8 -10593453.00146  23284366.259    23284379.4014
  24487577.370    -9160441.516 8  -7119968.25845  24487577.233    24487589.1024
  23516593.206     8862056.090 8   6911276.23646  23516593.051    23516603.9884
 01  4 21 18 22  0.0010000  0  7 05 30 04 24 10 06 09
  20737313.535   -17864850.986 9 -13900977.59048  20737312.977    20737319.3684
  22549880.969   -16859978.387 8 -13116331.77547  22549881.172    22549888.8044
  22751900.890     9647016.692 8   7522845.00146  22751900.966    22751909.2664
  20844243.920    -8458850.493 9  -6575209.89348  20844243.670    20844250.5054
  23265805.716   -13708293.624 8 -10669457.74846  23265804.939    23265817.9244
  24474225.554    -9230605.350 7  -7174641.23945  24474225.487    24474237.2084
  23533257.060     8949624.343 8   6979511.02246  23533256.895    23533267.9084
 01  4 21 18 22 30.0010000  0  7 05 30 04 24 10 06 09
  20731099.690   -17897504.834 9 -13926422.14048  20731099.129    20731105.5174
  22533669.283   -16945170.797 8 -13182715.38246  22533669.486    22533677.1344
  22769319.226     9738550.245 8   7594169.74046  22769319.328    22769327.6064
  20850023.996    -8428476.151 9  -6551541.59448  20850023.779    20850030.5934
  23247277.912   -13805657.246 8 -10745325.31646  23247277.085    23247290.0724
  24460878.462    -9300743.807 7  -7229294.44045  24460878.357    24460890.1654
  23549950.750     9037349.419 8   7047868.00446  23549950.618    23549961.6504
 01  4 21 18 23  0.0010000  0  7 05 30 04 24 10 06 09
  20724973.757   -17929696.859 9 -13951506.83048  20724973.200    20724979.5864
  22517506.517   -17030106.187 8 -13248898.72046  22517506.725    22517514.3334
  22786770.925     9830258.974 8   7665630.97246  22786771.037    22786779.3204
  20855885.881    -8397671.870 9  -6527538.27548  20855885.651    20855892.4594
  23228784.428   -13902840.503 8 -10821052.33346  23228783.598    23228796.5964
  24447536.494    -9370855.931 8  -7283927.13445  24447536.363    24447548.1454
  23566673.872     9125229.416 8   7116345.71246  23566673.711    23566684.8064
 01  4 21 18 23 30.0010000  0  7 05 30 04 24 10 06 09
  20718935.915   -17961425.817 9 -13976230.68948  20718935.350    20718941.7534
  22501393.116   -17114782.492 8 -13314880.17946  22501393.300    22501400.8624
  22804255.477     9922140.306 8   7737226.70646  22804255.562    22804263.8464
  20861829.066    -8366440.418 9  -6503202.10048  20861828.826    20861835.6314
  23210325.858   -13999840.185 8 -10896636.31446  23210325.017    23210337.9724
  24434199.514    -9440942.148 7  -7338539.65045  24434199.316    24434210.9574
  23583425.831     9213261.030 8   7184941.55146  23583425.674    23583436.8134
 01  4 21 18 24  0.0010000  0  7 05 30 04 24 10 06 09
  20712986.523   -17992690.051 9 -14000592.42448  20712985.958    20712992.3594
  22485329.477   -17199197.108 8 -13380657.72847  22485329.660    22485337.2074
  22821772.294    10014191.499 8   7808954.78246  22821772.396    22821780.7514
  20867853.149    -8334783.728 9  -6478534.57348  20867852.896    20867859.6974
  23191902.758   -14096653.391 8 -10972074.98246  23191901.911    23191914.8054
  24420867.320    -9511002.664 7  -7393132.12845  24420867.166    24420878.7224
  23600206.094     9301441.030 8   7253653.00746  23600205.947    23600217.1004
 01  4 21 18 24 30.0010000  0  7 05 30 04 24 10 06 09
  20707125.829   -18023488.091 9 -14024590.89248  20707125.285    20707131.6804
  22469316.065   -17283347.779 8 -13446229.61147  22469316.276    22469323.7964
  22839320.916    10106409.848 8   7880813.11746  22839321.026    22839329.4424
  20873957.787    -8302703.680 9  -6453537.15748  20873957.540    20873964.3494
  23173515.694   -14193276.845 8 -11047365.79446  23173514.870    23173527.7464
  24407539.898    -9581037.650 7  -7447704.71445  24407539.662    24407551.3324
  23617013.934     9389766.305 8   7322477.66546  23617013.771    23617025.0214
 01  4 21 18 25  0.0010000  0  7 05 30 04 24 10 06 09
  20701354.281   -18053817.764 9 -14048224.39848  20701353.731    20701360.1464
  22453353.435   -17367231.622 8 -13511593.57547  22453353.657    22453361.1694
  22856901.069    10198793.655 8   7952800.37846  22856901.186    22856909.6304
  20880142.809    -8270201.260 9  -6428210.61848  20880142.548    20880149.3994
  23155165.511   -14289706.750 8 -11122505.78846  23155164.724    23155177.4884
  24394217.465    -9651046.698 7  -7502257.11645  24394217.315    24394228.9334
  23633848.991     9478234.461 8   7391413.66846  23633848.856    23633860.1464
 01  4 21 18 25 30.0010000  0  7 05 30 04 24 10 06 09
  20695672.002   -18083678.030 9 -14071492.13448  20695671.465    20695677.9084
  22437441.955   -17450846.786 8 -13576748.18347  22437442.172    22437449.6594
  22874512.126    10291340.064 8   8024914.34946  22874512.265    22874520.6894
  20886407.635    -8237279.185 9  -6402557.08048  20886407.381    20886414.2664
  23136852.665   -14385940.644 8 -11197493.04846  23136851.871    23136864.6294
  24380899.717    -9721030.600 7  -7556789.91445  24380899.605    24380911.2484
  23650710.613     9566841.832 8   7460458.16246  23650710.473    23650721.7744
 01  4 21 18 26  0.0010000  0  7 05 30 04 24 10 06 09
  20690079.525   -18113066.742 9 -14094392.42448  20690078.986    20690085.4434
  22421582.165   -17534190.144 8 -13641690.99247  22421582.402    22421589.8444
  22892153.716    10384046.893 8   8097153.31746  22892153.842    22892162.2784
  20892752.078    -8203938.907 9  -6376577.66848  20892751.849    20892758.7404
  23118577.907   -14481974.652 8 -11272324.53746  23118577.102    23118589.7724
  24367587.030    -9790988.783 7  -7611302.67145  24367586.880    24367598.4434
  23667598.263     9655586.195 8   7529609.38346  23667598.122    23667609.4464
 01  4 21 18 26 30.0010000  0  7 05 30 04 24 10 06 09
  20684576.925   -18141982.990 9 -14116924.56148  20684576.396    20684582.8544
  22405774.476   -17617259.565 8 -13706420.34047  22405774.715    22405782.1994
  22909825.276    10476911.237 8   8169515.02946  22909825.438    22909833.9184
  20899175.607    -8170183.075 9  -6350274.44748  20899175.372    20899182.2824
  23100341.712   -14577805.838 8 -11346997.99846  23100340.907    23100353.5084
  24354279.203    -9860921.761 7  -7665795.79345  24354279.084    24354290.5124
  23684511.264     9744463.875 8   7598864.49046  23684511.164    23684522.5584
 01  4 21 18 27  0.0010000  0  7 05 30 04 24 10 06 09
  20679164.603   -18170424.872 9 -14139087.05948  20679164.073    20679170.5254
  22390019.463   -17700052.508 8 -13770934.25047  22390019.702    22390027.1054
  22927526.393    10569930.927 8   8241997.78046  22927526.593    22927535.1214
  20905677.998    -8136012.866 9  -6323648.33748  20905677.780    20905684.6694
  23082144.697   -14673430.959 8 -11421510.87546  23082143.945    23082156.4774
  24340976.039    -9930829.465 7  -7720269.22345  24340975.973    24340987.3874
  23701449.144     9833472.168 8   7668221.37646  23701449.018    23701460.6024
 01  4 21 18 27 30.0010000  0  7 05 30 04 24 10 06 09
  20673842.923   -18198390.543 9 -14160878.48648  20673842.397    20673848.8504
  22374317.607   -17782566.088 8 -13835230.47047  22374317.842    22374325.2204
  22945256.787    10663103.912 8   8314599.99146  22945256.919    22945265.4614
  20912258.887    -8101430.174 9  -6296700.80848  20912258.665    20912265.5644
  23063987.672   -14768846.123 8 -11495860.15346  23063986.905    23063999.3754
  24327677.914   -10000711.547 8  -7774722.69045  24327677.720    24327689.2154
  23718411.360     9922608.503 8   7737678.02346  23718411.235    23718422.9544
 01  4 21 18 28  0.0010000  0  7 05 30 04 24 10 06 09
  20668612.071   -18225878.895 9 -14182297.97748  20668611.538    20668617.9914
  22358669.284   -17864798.415 8 -13899307.53047  22358669.505    22358676.8384
  22963015.718    10756427.175 8   8387319.29146  22963015.815    22963024.3834
  20918917.837    -8066437.197 9  -6269433.58248  20918917.625    20918924.5214
  23045871.085   -14864048.661 8 -11570043.74646  23045870.316    23045882.7704
  24314384.561   -10070568.652 8  -7829156.69745  24314384.302    24314395.7934
  23735397.392    10011869.340 8   7807231.68646  23735397.236    23735408.9674
 01  4 21 18 28 30.0010000  0  7 05 30 04 24 10 06 09
  20663472.454   -18252887.892 9 -14203343.94648  20663471.936    20663478.3374
  22343075.023   -17946746.459 8 -13963163.07347  22343075.241    22343082.5184
  22980802.907    10849899.246 8   8460154.55246  22980803.001    22980811.6294
  20925654.586    -8031035.471 9  -6241847.84848  20925654.371    20925661.2694
  23027795.664   -14959034.774 8 -11644058.68346  23027794.919    23027807.3174
  24301095.981   -10140400.472 8  -7883570.98945  24301095.821    24301107.0584
  23752406.695    10101252.434 8   7876880.62046  23752406.540    23752418.2124
 01  4 21 18 29  0.0010000  0  7 05 30 04 24 10 06 09
  20658424.237   -18279416.508 9 -14224015.59448  20658423.711    20658430.1034
  22327535.301   -18028408.060 8 -14026795.41947  22327535.529    22327542.7894
  22998617.838    10943516.987 8   8533103.31446  22998617.939    22998626.5944
  20932468.679    -7995227.429 9  -6213945.50148  20932468.434    20932475.3404
  23009762.018   -15053801.641 8 -11717902.79646  23009761.264    23009773.5834
  24287812.185   -10210207.311 8  -7937965.82045  24287812.018    24287823.2844
  23769438.616    10190754.096 8   7946621.94046  23769438.419    23769450.1044
 01  4 21 18 29 30.0010000  0  7 05 30 04 24 10 06 09
  20653467.744   -18305463.100 9 -14244311.64048  20653467.202    20653473.5944
  22312050.556   -18109780.725 8 -14090202.61447  22312050.759    22312058.0444
  23016460.098    11037278.219 8   8606163.87846  23016460.216    23016468.8664
  20939359.681    -7959015.027 9  -6185728.07048  20939359.453    20939366.3554
  22991770.791   -15148345.496 8 -11791573.13046  22991770.019    22991782.2564
  24274533.064   -10279988.885 8  -7992340.96245  24274532.931    24274544.2184
  23786492.496    10280371.576 8   8016453.51046  23786492.293    23786504.0064
 01  4 21 18 30  0.0010000  0  7 05 30 04 24 10 06 09
  20648603.311   -18331025.889 9 -14264230.70148  20648602.770    20648609.1684
  22296621.270   -18190861.573 8 -14153382.41447  22296621.500    22296628.8094
  23034329.323    11131181.103 8   8679334.82846  23034329.425    23034338.1054
  20946327.366    -7922399.764 9  -6157196.71748  20946327.129    20946334.0354
  22973822.632   -15242663.124 8 -11865067.18246  22973821.865    22973834.0024
  24261258.838   -10349745.089 8  -8046696.34645  24261258.640    24261269.9754
  23803567.851    10370102.493 8   8086373.45646  23803567.672    23803579.4594
 01  4 21 18 30 30.0010000  0  7 05 30 04 24 10 06 09
  20643831.260   -18356103.260 9 -14283771.51248  20643830.723    20643837.0944
  22281248.095   -18271647.969 8 -14216332.78847  22281248.323    22281255.6144
  23052225.041    11225223.054 8   8752614.13846  23052225.117    23052233.7844
  20953371.258    -7885384.050 9  -6128353.32448  20953371.013    20953377.9084
  22955918.107   -15336751.361 8 -11938382.50446  22955917.310    22955929.4374
  24247989.441   -10419476.047 8  -8101032.05845  24247989.237    24248000.5904
  23820664.224    10459943.504 8   8156379.20246  23820664.047    23820675.8494
 01  4 21 18 31  0.0010000  0  7 05 30 04 24 10 06 09
  20639151.762   -18380694.293 9 -14302933.35948  20639151.213    20639157.5844
  22265931.336   -18352138.118 8 -14279052.32147  22265931.527    22265938.8194
  23070146.712    11319401.197 8   8825999.56546  23070146.809    23070155.4934
  20960490.962    -7847969.683 9  -6099199.29448  20960490.714    20960497.6384
  22938057.752   -15430607.211 8 -12011516.73846  22938056.944    22938069.0754
  24234724.663   -10489182.304 8  -8155348.50545  24234724.510    24234735.8494
  23837780.972    10549891.254 8   8226468.11046  23837780.717    23837792.5424
 01  4 21 18 31 30.0010000  0  7 05 30 04 24 10 06 09
  20634565.174   -18404796.924 9 -14321714.63548  20634564.638    20634571.0084
  22250671.467   -18432328.953 8 -14341538.62347  22250671.641    22250678.9624
  23088093.906    11413713.999 8   8899489.92846  23088094.025    23088102.7274
  20967686.209    -7810158.481 9  -6069736.04348  20967685.983    20967692.9054
  22920242.448   -15524226.766 8 -12084466.87046  22920241.628    22920253.6884
  24221464.774   -10558863.250 8  -8209645.23346  24221464.529    24221475.8494
  23854917.493    10639943.416 8   8296638.37246  23854917.224    23854929.1214
 01  4 21 18 32  0.0010000  0  7 05 30 04 24 10 06 09
  20630071.699   -18428410.383 9 -14340114.74148  20630071.169    20630077.5424
  22235468.890   -18512218.453 8 -14403790.12747  22235469.085    22235476.4044
  23106066.236    11508158.603 8   8973082.97646  23106066.333    23106075.0944
  20974956.575    -7771952.720 9  -6039965.34348  20974956.340    20974963.2704
  22902472.658   -15617607.225 8 -12157230.68346  22902471.839    22902483.7494
  24208209.667   -10628519.429 8  -8263922.65246  24208209.445    24208220.6314
  23872073.223    10730096.774 8   8366887.51246  23872073.028    23872084.9574
 01  4 21 18 32 30.0010000  0  7 05 30 04 24 10 06 09
  20625671.686   -18451532.733 9 -14358132.16748  20625671.135    20625677.5204
  22220324.304   -18591803.381 8 -14465804.30047  22220324.500    22220331.8724
  23124063.258    11602733.007 8   9046777.17146  23124063.324    23124072.1554
  20982301.701    -7733353.913 9  -6009888.37348  20982301.465    20982308.4134
  22884749.024   -15710745.027 8 -12229805.42646  22884748.199    22884759.9894
  24194959.203   -10698150.146 8  -8318180.23146  24194959.039    24194970.3064
  23889247.658    10820348.707 8   8437213.43246  23889247.498    23889259.5384
 01  4 21 18 33  0.0010000  0  7 05 30 04 24 10 06 09
  20621365.403   -18474162.372 9 -14375765.66448  20621364.876    20621371.2394
  22205238.171   -18671081.302 8 -14527579.25447  22205238.393    22205245.7364
  23142084.474    11697435.177 8   9120570.91446  23142084.668    23142093.5994
  20989721.208    -7694364.279 9  -5979506.86348  20989720.969    20989727.9294
  22867072.194   -15803636.649 8 -12302188.34146  22867071.386    22867083.1434
  24181713.568   -10767755.548 8  -8372418.07145  24181713.508    24181724.7644
  23906440.409    10910696.246 8   8507613.86146  23906440.166    23906452.2984
 01  4 21 18 33 30.0010000  0  7 05 30 04 24 10 06 09
  20617153.080   -18496298.277 9 -14393014.43248  20617152.552    20617158.9014
  22190210.857   -18750049.949 8 -14589113.21447  22190211.067    22190218.4084
  23160129.608    11792262.609 8   9194462.28546  23160129.796    23160138.8234
  20997214.717    -7654985.577 9  -5948822.18548  20997214.491    20997221.4474
  22849442.703   -15896279.539 8 -12374377.44446  22849441.881    22849453.5854
  24168472.753   -10837335.935 8  -8426636.44345  24168472.734    24168483.9284
  23923650.708    11001136.452 8   8578086.49845  23923650.511    23923662.7104
 01  4 21 18 34  0.0010000  0  7 05 30 04 24 10 06 09
  20613034.961   -18517939.195 9 -14409877.49948  20613034.433    20613040.8064
  22175242.828   -18828707.185 8 -14650404.51347  22175243.059    22175250.3494
  23178198.154    11887212.787 8   9268449.29346  23178198.347    23178207.3254
  21004781.793    -7615220.569 9  -5917836.49048  21004781.572    21004788.5024
  22831861.225   -15988670.048 8 -12446369.88846  22831860.373    22831872.0914
  24155236.715   -10906891.343 8  -8480835.35145  24155236.708    24155247.8614
  23940878.161    11091666.311 8   8648629.01345  23940877.984    23940890.1334
 01  4 21 18 34 30.0010000  0  7 05 30 04 24 10 06 09
  20609011.254   -18539083.861 9 -14426353.87548  20609010.719    20609017.0934
  22160334.561   -18907050.521 8 -14711451.21447  22160334.800    22160342.0404
  23196289.605    11982283.066 8   9342529.89246  23196289.703    23196298.7454
  21012421.968    -7575071.222 9  -5886551.30848  21012421.743    21012428.6754
  22814328.355   -16080804.981 8 -12518163.18546  22814327.510    22814339.2814
  24142005.423   -10976422.041 8  -8535014.99045  24142005.328    24142016.4714
  23958122.089    11182282.614 8   8719238.87246  23958121.897    23958134.0974
 01  4 21 18 35  0.0010000  0  7 05 30 04 24 10 06 09
  20605082.332   -18559730.604 9 -14442442.26548  20605081.809    20605088.1724
  22145486.615   -18985077.071 8 -14772251.06847  22145486.838    22145494.0364
  23214403.599    12077471.741 8   9416702.72946  23214403.712    23214412.6834
  21020135.064    -7534538.792 9  -5854967.62748  21020134.834    21020141.7704
  22796844.841   -16172680.815 8 -12589754.58046  22796844.013    22796855.7404
  24128778.785   -11045927.648 7  -8589175.07245  24128778.725    24128789.9154
  23975381.962    11272982.891 8   8789914.16346  23975381.748    23975394.0554
 01  4 21 18 35 30.0010000  0  7 05 30 04 24 10 06 09
  20601248.337   -18579878.512 9 -14458141.94948  20601247.813    20601254.1374
  22130699.408   -19062784.368 8 -14832802.14847  22130699.576    22130706.7914
  23232539.645    12172776.209 8   9490965.80346  23232539.707    23232548.6524
  21027920.490    -7493626.052 9  -5823087.60148  21027920.294    21027927.2434
  22779411.174   -16264294.612 8 -12661141.80546  22779410.363    22779422.0104
  24115556.840   -11115408.330 8  -8643315.73445  24115556.797    24115568.0584
  23992657.166    11363763.834 8   8860652.29746  23992656.989    23992669.3524
 01  4 21 18 36  0.0010000  0  7 05 30 04 24 10 06 09
  20597509.589   -18599525.718 9 -14473451.47748  20597509.051    20597515.4244
  22115973.413   -19140169.612 9 -14893102.28647  22115973.600    22115980.8194
  23250697.288    12268194.905 8   9565317.87746  23250697.356    23250706.3624
  21035778.055    -7452334.212 9  -5790912.17448  21035777.864    21035784.8274
  22762028.069   -16355642.607 8 -12732321.90446  22762027.297    22762038.9074
  24102339.851   -11184863.677 8  -8697436.64845  24102339.758    24102351.0584
  24009947.294    11454623.119 8   8931451.48146  24009947.119    24009959.5854
 01  4 21 18 36 30.0010000  0  7 05 30 04 24 10 06 09
  20593866.268   -18618671.364 9 -14488370.17948  20593865.763    20593872.1634
  22101309.127   -19217230.891 9 -14953149.98547  22101309.322    22101316.4964
  23268876.135    12363724.901 8   9639756.68146  23268876.222    23268885.3064
  21043707.285    -7410666.042 9  -5758443.50648  21043707.065    21043714.0534
  22744696.125   -16446722.018 8 -12803292.71846  22744695.375    22744706.9144
  24089127.511   -11254294.230 8  -8751538.24945  24089127.414    24089138.7584
  24027251.644    11545557.174 8   9002308.92846  24027251.439    24027264.0494
 01  4 21 18 37  0.0010000  0  7 05 30 04 24 10 06 09
  20590318.677   -18637314.141 9 -14502897.03748  20590318.159    20590324.5744
  22086706.974   -19293965.387 9 -15012943.05447  22086707.181    22086714.3174
  23287075.737    12459364.148 8   9714280.61246  23287075.872    23287085.0194
  21051707.777    -7368623.263 9  -5725682.93647  21051707.576    21051714.5764
  22727415.970   -16537529.547 8 -12874051.67446  22727415.188    22727426.6814
  24075919.995   -11323699.720 8  -8805620.31945  24075919.838    24075931.1104
  24044569.645    11636563.257 8   9073222.49746  24044569.520    24044582.1974
 01  4 21 18 37 30.0010000  0  7 05 30 04 24 10 06 09
  20586867.034   -18655452.626 9 -14517030.93748  20586866.539    20586872.9684
  22072167.515   -19370370.444 9 -15072479.41047  22072167.756    22072174.9114
  23305295.720    12555110.505 8   9788888.01846  23305295.899    23305305.0604
  21059779.097    -7326208.146 9  -5692632.23547  21059778.898    21059785.9094
  22710188.105   -16628061.790 8 -12944596.12146  22710187.325    22710198.7934
  24062717.298   -11393079.944 8  -8859682.70945  24062717.158    24062728.3314
  24061900.985    11727638.632 8   9144190.06446  24061900.812    24061913.4914
 01  4 21 18 38  0.0010000  0  7 05 30 04 24 10 06 09
  20583511.650   -18673085.289 9 -14530770.68848  20583511.152    20583517.6124
  22057691.256   -19446443.426 9 -15131757.01147  22057691.528    22057698.6744
  23323535.802    12650962.049 8   9863577.39046  23323535.972    23323545.1214
  21067920.956    -7283422.670 9  -5659292.94047  21067920.762    21067927.7804
  22693013.295   -16718315.096 8 -13014923.21246  22693012.545    22693023.9994
  24049519.464   -11462434.618 8  -8913725.19445  24049519.334    24049530.4944
  24079244.974    11818780.677 8   9215209.58246  24079244.785    24079257.4974
 01  4 21 18 38 30.0010000  0  7 05 30 04 24 10 06 09
  20580252.681   -18690211.337 9 -14544115.67848  20580252.198    20580258.6724
  22043278.535   -19522182.477 9 -15190774.41347  22043278.796    22043285.9424
  23341795.300    12746915.989 8   9938346.53346  23341795.501    23341804.6714
  21076132.883    -7240268.713 9  -5625666.52547  21076132.677    21076139.7384
  22675892.078   -16808286.793 8 -13085030.86946  22675891.357    22675902.7974
  24036326.369   -11531764.322 8  -8967748.21645  24036326.228    24036337.3874
  24096600.881    11909986.032 8   9286278.42045  24096600.710    24096613.5724
 01  4 21 18 39  0.0010000  0  7 05 30 04 24 10 06 09
  20577090.340   -18706829.360 9 -14557064.80048  20577089.867    20577096.3624
  22028929.947   -19597584.679 9 -15249529.32947  22028930.209    22028937.3274
  23360073.949    12842970.487 8  10013194.03646  23360074.156    23360083.4194
  21084414.498    -7196748.541 9  -5591754.74447  21084414.314    21084421.3924
  22658825.229   -16897973.417 8 -13154916.39846  22658824.452    22658835.8154
  24023138.114   -11601068.698 8  -9021751.50745  24023137.987    24023149.0564
  24113968.359    12001252.038 8   9357394.53245  24113968.257    24113981.2184
 01  4 21 18 39 30.0010000  0  7 05 30 04 24 10 06 09
  20574024.995   -18722937.995 9 -14569616.99648  20574024.509    20574031.0344
  22014645.947   -19672647.260 9 -15308019.60247  22014646.238    22014653.3734
  23378371.444    12939123.539 8  10088118.32846  23378371.610    23378380.8784
  21092765.515    -7152863.844 9  -5557558.91947  21092765.312    21092772.4134
  22641813.198   -16987371.563 8 -13224577.13746  22641812.460    22641823.7524
  24009954.723   -11670347.451 8  -9075734.83745  24009954.674    24009965.5814
  24131346.918    12092575.999 8   9428555.79745  24131346.795    24131359.9034
 01  4 21 18 40  0.0010000  0  7 05 30 04 24 10 06 09
  20571056.599   -18738537.027 9 -14581772.10248  20571056.124    20571062.6554
  22000426.911   -19747368.635 9 -15366244.00047  22000427.201    22000434.3174
  23396687.144    13035372.207 8  10163117.13246  23396687.260    23396696.5334
  21101185.290    -7108617.785 9  -5523081.51547  21101185.114    21101192.1874
  22624856.540   -17076478.883 8 -13294011.25446  22624855.798    22624867.0624
  23996776.082   -11739601.483 8  -9129698.90445  23996775.978    23996786.8184
  24148735.788    12183954.189 8   9499759.33045  24148735.658    24148748.8374
 01  4 21 18 40 30.0010000  0  7 05 30 04 24 10 06 09
  20568185.640   -18753624.043 9 -14593528.22948  20568185.172    20568191.6894
  21986273.448   -19821745.387 9 -15424199.85947  21986273.739    21986280.8264
  23415020.688    13131714.991 8  10238189.30046  23415020.828    23415030.1064
  21109673.682    -7064011.092 9  -5488323.09347  21109673.517    21109680.6074
  22607956.035   -17165290.905 8 -13363215.27646  22607955.298    22607966.4974
  23983602.352   -11808829.663 8  -9183642.83745  23983602.248    23983612.9074
  24166134.634    12275385.034 8   9571003.86845  24166134.563    24166147.8284
 01  4 21 18 41  0.0010000  0  7 05 30 04 24 10 06 09
  20565412.179   -18768198.751 9 -14604885.16048  20565411.692    20565418.2074
  21972185.922   -19895775.670 9 -15481885.74147  21972186.192    21972193.2944
  23433371.640    13228149.517 8  10313332.93546  23433371.814    23433381.0894
  21118230.117    -7019046.911 9  -5453286.11147  21118229.944    21118237.0484
  22591112.185   -17253805.161 8 -13432187.27546  22591111.429    22591122.6804
  23970433.284   -11878032.636 8  -9237567.13845  23970433.204    23970443.9244
  24183542.789    12366864.661 8   9642286.41745  24183542.721    24183556.1414
 01  4 21 18 41 30.0010000  0  7 05 30 04 24 10 06 09
  20562736.594   -18782259.207 9 -14615841.37448  20562736.114    20562742.6294
  21958164.948   -19969455.968 9 -15539298.90847  21958165.239    21958172.3484
  23451739.741    13324674.131 8  10388546.77146  23451739.918    23451749.3054
  21126854.386    -6973726.247 9  -5417971.35347  21126854.213    21126861.3464
  22574325.701   -17342017.775 8 -13500924.22546  22574324.950    22574336.2284
  23957269.242   -11947209.521 8  -9291471.08745  23957269.178    23957279.8954
  24200959.836    12458391.181 8   9713605.50745  24200959.794    24200973.3264
 01  4 21 18 42  0.0010000  0  7 05 30 04 24 10 06 09
  20560158.812   -18795805.504 9 -14626396.94848  20560158.309    20560164.8594
  21944210.816   -20042785.118 9 -15596438.45547  21944211.119    21944218.2324
  23470124.400    13421285.643 8  10463828.28446  23470124.591    23470134.0804
  21135545.818    -6928052.500 9  -5382381.46147  21135545.656    21135552.8064
  22557597.060   -17429926.570 8 -13569424.44346  22557596.331    22557607.5984
  23944109.986   -12016361.503 8  -9345355.62445  23944109.898    23944120.5484
  24218385.111    12549960.363 8   9784957.82645  24218385.040    24218398.6534
 01  4 21 18 42 30.0010000  0  7 05 30 04 24 10 06 09
  20557679.338   -18808835.240 9 -14636550.01048  20557678.855    20557685.4094
  21930324.213   -20115759.477 9 -15653301.54947  21930324.522    21930331.6104
  23488525.389    13517982.887 8  10539176.61646  23488525.602    23488535.1344
  21144304.289    -6882026.548 9  -5346517.12447  21144304.133    21144311.2834
  22540927.113   -17517527.372 8 -13637684.66946  22540926.341    22540937.5854
  23930955.648   -12085487.254 8  -9399219.73145  23930955.565    23930966.2804
  24235818.269    12641570.548 8   9856342.10546  24235818.141    24235831.8034
 01  4 21 18 43  0.0010000  0  7 05 30 04 24 10 06 09
  20555298.270   -18821347.803 9 -14646300.07848  20555297.793    20555304.3614
  21916505.578   -20188376.807 9 -15709886.43447  21916505.859    21916512.9354
  23506942.296    13614763.717 8  10614590.09546  23506942.502    23506952.1004
  21153129.356    -6835650.776 9  -5310380.20147  21153129.203    21153136.3854
  22524316.400   -17604816.891 8 -13705702.34146  22524315.601    22524326.7784
  23917806.278   -12154587.177 8  -9453063.70646  23917806.207    23917816.8864
  24253258.553    12733218.533 8   9927755.84145  24253258.458    24253272.1084
 01  4 21 18 43 30.0010000  0  7 05 30 04 24 10 06 09
  20553015.712   -18833342.724 9 -14655646.78948  20553015.234    20553021.8144
  21902755.191   -20260635.431 9 -15766191.81047  21902755.468    21902762.5554
  23525374.529    13711625.162 8  10690066.38446  23525374.712    23525384.3514
  21162020.354    -6788928.303 9  -5273973.11747  21162020.198    21162027.4074
  22507765.355   -17691792.569 8 -13773475.45846  22507764.579    22507775.7104
  23904661.840   -12223661.582 8  -9506887.78546  23904661.737    23904672.3724
  24270705.424    12824901.079 8   9999196.50245  24270705.340    24270718.9974
 01  4 21 18 44  0.0010000  0  7 05 30 04 24 10 06 09
  20550831.908   -18844818.836 9 -14664589.23648  20550831.435    20550838.0204
  21889073.566   -20332532.774 9 -15822215.66347  21889073.840    21889080.9114
  23543821.733    13808565.005 8  10765603.75246  23543821.871    23543831.5674
  21170977.040    -6741860.891 9  -5237297.24947  21170976.868    21170984.0814
  22491274.555   -17778451.509 8 -13841001.77946  22491273.776    22491284.8714
  23891522.224   -12292710.663 8  -9560692.14846  23891522.064    23891532.6904
  24288158.358    12916615.145 8  10070661.73645  24288158.167    24288171.8164
 01  4 21 18 44 30.0010000  0  7 05 30 04 24 10 06 09
  20548747.180   -18855774.312 9 -14673125.99148  20548746.709    20548753.2934
  21875461.346   -20404065.289 9 -15877955.23647  21875461.623    21875468.6694
  23562283.754    13905582.749 8  10841201.83146  23562283.870    23562293.6214
  21179999.204    -6694449.176 9  -5200353.09647  21179999.042    21180006.2584
  22474844.845   -17864789.549 8 -13908278.03446  22474844.080    22474855.1804
  23878387.590   -12361733.240 8  -9614475.83546  23878387.467    23878398.0094
  24305616.807    13008358.807 8  10142150.01145  24305616.621    24305630.3234
 01  4 21 18 45  0.0010000  0  7 05 30 04 24 10 06 09
  20546761.669   -18866208.405 9 -14681256.48048  20546761.193    20546767.7574
  21861918.920   -20475230.988 9 -15933408.98947  21861919.198    21861926.2194
  23580759.946    14002675.314 8  10916858.20546  23580760.080    23580769.8844
  21189086.292    -6646696.401 9  -5163143.18447  21189086.121    21189093.3344
  22458476.779   -17950803.712 8 -13975301.92746  22458476.031    22458487.1004
  23865257.982   -12430729.383 8  -9668238.94046  23865257.886    23865268.3884
  24323080.305    13100128.964 8  10213658.93845  24323080.131    24323093.9324
 01  4 21 18 45 30.0010000  0  7 05 30 04 24 10 06 09
  20544875.560   -18876120.218 9 -14688979.99248  20544875.079    20544881.6374
  21848446.815   -20546027.315 9 -15988574.91447  21848447.095    21848454.0744
  23599250.056    14099840.962 8  10992571.52446  23599250.189    23599260.0334
  21198237.944    -6598604.491 9  -5125669.00547  21198237.775    21198244.9754
  22442170.986   -18036490.690 8 -14042070.87346  22442170.219    22442181.2304
  23852133.367   -12499699.012 8  -9721981.37946  23852133.272    23852143.7824
  24340548.288    13191922.854 8  10285186.34845  24340548.108    24340562.0274
 01  4 21 18 46  0.0010000  0  7 05 30 04 24 10 06 09
  20543088.879   -18885509.357 9 -14696296.23148  20543088.386    20543094.9704
  21835045.377   -20616452.479 9 -16043451.63147  21835045.632    21835052.5734
  23617753.576    14197076.919 8  11068339.62746  23617753.689    23617763.5934
  21207453.521    -6550176.493 9  -5087932.94647  21207453.336    21207460.5584
  22425927.973   -18121847.760 8 -14108582.74546  22425927.194    22425938.1844
  23839013.760   -12568642.549 8  -9775703.49046  23839013.654    23839024.1604
  24358020.269    13283737.268 8  10356729.76145  24358020.103    24358034.0324
 01  4 21 18 46 30.0010000  0  7 05 30 04 24 10 06 09
  20541402.044   -18894373.832 9 -14703203.64048  20541401.564    20541408.1434
  21821715.199   -20686502.642 9 -16098036.13347  21821715.471    21821722.4004
  23636270.312    14294382.406 8  11144161.90546  23636270.400    23636280.4794
  21216732.966    -6501412.793 9  -5049935.29847  21216732.791    21216740.0274
  22409748.441   -18206871.193 8 -14174834.63946  22409747.675    22409758.6604
  23825899.268   -12637558.936 8  -9829404.45946  23825899.154    23825909.6884
  24375495.637    13375570.309 8  10428287.68545  24375495.535    24375509.5844
 01  4 21 18 47  0.0010000  0  7 05 30 04 24 10 06 09
  20539814.969   -18902714.054 9 -14709702.54548  20539814.492    20539821.0744
  21808456.540   -20756177.183 9 -16152327.94747  21808456.820    21808463.7684
  23654799.478    14391753.614 8  11220035.39145  23654799.603    23654809.7514
  21226075.611    -6452317.060 9  -5011678.92647  21226075.444    21226082.6794
  22393632.757   -18291559.029 8 -14240825.03346  22393631.991    22393642.9494
  23812789.756   -12706449.464 8  -9883085.28646  23812789.669    23812800.1594
  24392973.852    13467417.905 8  10499856.94045  24392973.814    24392987.8434
 01  4 21 18 47 30.0010000  0  7 05 30 04 24 10 06 09
  20538328.033   -18910527.910 9 -14715791.28848  20538327.552    20538334.1574
  21795270.126   -20825472.255 9 -16206324.06847  21795270.398    21795277.3184
  23673341.087    14489189.835 8  11295959.54045  23673341.176    23673351.3294
  21235481.206    -6402890.394 9  -4973164.68047  21235481.042    21235488.2864
  22377581.825   -18375906.848 8 -14306550.48246  22377581.073    22377591.9314
  23799685.397   -12775312.794 8  -9936744.91646  23799685.301    23799695.8424
  24410454.555    13559278.289 8  10571436.17745  24410454.544    24410468.6464
 01  4 21 18 48  0.0010000  0  7 05 30 04 24 10 06 09
  20536941.347   -18917815.139 9 -14721469.67848  20536940.872    20536947.4794
  21782156.195   -20894386.214 9 -16260023.22047  21782156.447    21782163.3584
  23691894.654    14586688.270 8  11371932.17045  23691894.771    23691904.8264
  21244949.204    -6353135.854 9  -4934394.95447  21244949.028    21244956.3034
  22361596.026   -18459912.328 8 -14372009.17146  22361595.260    22361606.0644
  23786586.100   -12844149.389 8  -9990383.71146  23786585.980    23786596.5504
  24427937.034    13651147.836 8  10643022.54145  24427936.931    24427951.0394
 01  4 21 18 48 30.0010000  0  7 05 30 04 24 10 06 09
  20535655.085   -18924574.537 9 -14726736.77348  20535654.612    20535661.2264
  21769115.363   -20962916.005 9 -16313423.01947  21769115.635    21769122.5514
  23710459.694    14684247.292 8  11447952.02045  23710459.800    23710469.9104
  21254479.359    -6303054.721 9  -4895370.74147  21254479.190    21254486.4634
  22345676.029   -18543571.852 8 -14437198.28446  22345675.291    22345686.0804
  23773492.001   -12912958.958 8 -10044001.45146  23773491.924    23773502.4194
  24445420.765    13743024.229 8  10714614.22645  24445420.656    24445434.7264
 01  4 21 18 49  0.0010000  0  7 05 30 04 24 10 06 09
  20534469.348   -18930805.797 9 -14731592.32948  20534468.873    20534475.5004
  21756148.035   -21031059.708 9 -16366521.97747  21756148.302    21756155.1774
  23729035.788    14781864.531 8  11524017.21845  23729035.930    23729046.0324
  21264071.125    -6252649.856 9  -4856094.27047  21264070.950    21264078.2464
  22329822.474   -18626882.348 8 -14502115.42446  22329821.736    22329832.5134
  23760403.100   -12981741.562 8 -10097598.18146  23760402.975    23760413.4204
  24462905.241    13834904.356 8  10786208.82145  24462905.093    24462919.1604
 01  4 21 18 49 30.0010000  0  7 05 30 04 24 10 06 09
  20533384.388   -18936507.431 9 -14736035.18948  20533383.914    20533390.5314
  21743254.745   -21098814.273 9 -16419317.70747  21743254.998    21743261.8394
  23747622.703    14879538.818 8  11600126.88045  23747622.853    23747632.9734
  21273724.184    -6201922.804 9  -4816566.74647  21273724.017    21273731.3364
  22314036.015   -18709840.409 8 -14566757.93246  22314035.285    22314046.0194
  23747319.419   -13050496.461 8 -10151173.32746  23747319.263    23747329.6714
  24480389.940    13926785.960 8  10857804.56445  24480389.808    24480403.8634
 01  4 21 18 50  0.0010000  0  7 05 30 04 24 10 06 09
  20532400.279   -18941679.149 9 -14740065.13048  20532399.795    20532406.4024
  21730435.897   -21166177.683 9 -16471808.64447  21730436.162    21730442.9514
  23766220.041    14977267.603 8  11676278.98145  23766220.127    23766230.2754
  21283438.115    -6150876.002 9  -4776790.07047  21283437.952    21283445.2744
  22298317.173   -18792443.207 8 -14631123.62146  22298316.417    22298327.1024
  23734241.033   -13119223.993 8 -10204727.14246  23734240.768    23734251.0914
  24497874.346    14018665.843 8  10929398.95545  24497874.154    24497888.2904
 01  4 21 18 50 30.0010000  0  7 05 30 04 24 10 06 09
  20531517.232   -18946319.937 9 -14743681.35848  20531516.747    20531523.3314
  21717691.960   -21233147.556 9 -16523992.93047  21717692.195    21717698.9614
  23784827.346    15075048.905 8  11752472.02945  23784827.436    23784837.6024
  21293212.490    -6099511.615 9  -4736765.92647  21293212.306    21293219.6294
  22282666.547   -18874687.652 8 -14695210.07647  22282665.762    22282676.3864
  23721167.778   -13187923.939 8 -10258259.47546  23721167.597    23721177.8254
  24515357.827    14110541.194 8  11000989.81945  24515357.661    24515371.9824
 01  4 21 18 51  0.0010000  0  7 05 30 04 24 10 06 09
  20530735.338   -18950429.045 9 -14746883.28948  20530734.838    20530741.4244
  21705023.423   -21299721.194 9 -16575868.46247  21705023.635    21705030.3844
  23803444.260    15172880.632 8  11828704.37745  23803444.398    23803454.4834
  21303046.879    -6047831.828 9  -4696496.01447  21303046.688    21303054.0094
  22267084.667   -18956570.601 8 -14759014.83147  22267083.869    22267094.4694
  23708099.788   -13256596.164 8 -10311770.20946  23708099.595    23708109.7934
  24532839.985    14202409.330 7  11072575.05045  24532839.808    24532854.2714
 01  4 21 18 51 30.0010000  0  7 05 30 04 24 10 06 09
  20530054.846   -18954005.258 9 -14749669.97848  20530054.329    20530060.9054
  21692430.773   -21365895.951 9 -16627433.17647  21692431.002    21692437.7424
  23822070.593    15270761.758 8  11904975.20245  23822070.702    23822080.7644
  21312940.981    -5995838.168 9  -4655981.52647  21312940.798    21312948.1114
  22251572.240   -19038088.477 8 -14822535.12547  22251571.428    22251581.9964
  23695037.229   -13325239.912 8 -10365258.75246  23695037.067    23695047.2254
  24550320.394    14294268.124 8  11144153.00245  24550320.226    24550334.7344
 01  4 21 18 52  0.0010000  0  7 05 30 04 24 10 06 09
  20529475.905   -18957047.826 9 -14752040.83948  20529475.390    20529481.9554
  21679914.460   -21431669.449 9 -16678685.22447  21679914.697    21679921.3954
  23840705.788    15368689.613 8  11981282.46545  23840705.942    23840715.9594
  21322894.336    -5943533.251 9  -4615224.50447  21322894.137    21322901.4654
  22236129.778   -19119238.560 8 -14885768.81647  22236128.979    22236139.5124
  23681980.095   -13393855.191 8 -10418725.11546  23681979.927    23681990.0774
  24567798.365    14386114.435 8  11215721.20745  24567798.297    24567812.8584
 01  4 21 18 52 30.0010000  0  7 05 30 04 24 10 06 09
  20528998.427   -18959557.043 9 -14753996.10348  20528997.920    20529004.4814
  21667474.822   -21497040.284 9 -16729623.50747  21667475.039    21667481.7454
  23859349.378    15466661.908 8  12057624.30845  23859349.585    23859359.5794
  21332906.430    -5890919.628 9  -4574226.93547  21332906.236    21332913.5844
  22220757.816   -19200018.203 8 -14948713.86547  22220757.010    22220767.5324
  23668928.290   -13462442.578 8 -10472169.74646  23668928.122    23668938.2474
  24585273.275    14477944.817 7  11287276.99645  24585273.179    24585287.9704
 01  4 21 18 53  0.0010000  0  7 05 30 04 24 10 06 09
  20528622.693   -18961531.784 9 -14755534.88948  20528622.191    20528628.7574
  21655112.346   -21562005.304 9 -16780245.57147  21655112.568    21655119.2674
  23878001.172    15564677.111 8  12133999.61345  23878001.383    23878011.4874
  21342976.974    -5837998.731 9  -4532989.92747  21342976.775    21342984.1414
  22205457.094   -19280423.862 8 -15011367.49347  22205456.293    22205466.7474
  23655882.001   -13531001.235 8 -10525591.98946  23655881.744    23655891.7714
  24602744.830    14569757.322 8  11358818.85345  24602744.723    24602759.6504
 01  4 21 18 53 30.0010000  0  7 05 30 04 24 10 06 09
  20528348.820   -18962970.980 9 -14756656.37348  20528348.310    20528354.8964
  21642827.617   -21626561.878 9 -16830549.37047  21642827.862    21642834.5444
  23896660.853    15662733.560 8  12210407.05645  23896661.016    23896671.2564
  21353105.560    -5784772.939 9  -4491515.34247  21353105.343    21353112.7154
  22190228.131   -19360452.214 8 -15073727.12347  22190227.325    22190237.7114
  23642841.183   -13599530.706 8 -10578991.49346  23642840.962    23642851.0354
  24620212.530    14661549.234 7  11430344.65545  24620212.371    24620227.4914
 01  4 21 18 54  0.0010000  0  7 05 30 04 24 10 06 09
  20528176.858   -18963874.757 9 -14757360.64348  20528176.339    20528182.9404
  21630620.915   -21690708.579 9 -16880533.78747  21630621.153    21630627.8134
  23915327.770    15760828.564 8  12286844.52445  23915327.953    23915338.3254
  21363291.658    -5731244.928 9  -4449805.25847  21363291.441    21363298.7794
  22175071.335   -19440101.085 8 -15135791.04547  22175070.538    22175080.9014
  23629805.825   -13668031.762 8 -10632368.85246  23629805.636    23629815.5894
  24637675.669    14753317.119 8  11501851.74745  24637675.512    24637690.6924
 01  4 21 18 54 30.0010000  0  7 05 30 04 24 10 06 09
  20528107.172   -18964241.324 9 -14757646.31048  20528106.637    20528113.2414
  21618492.906   -21754441.655 9 -16930195.89647  21618493.119    21618499.8144
  23934001.944    15858961.457 8  12363311.50745  23934002.125    23934012.6564
  21373535.087    -5677415.798 9  -4407860.54247  21373534.860    21373542.1734
  22159987.598   -19519366.127 8 -15197555.87747  22159986.811    22159997.1184
  23616776.181   -13736503.138 8 -10685723.08446  23616775.986    23616785.8394
  24655133.939    14845059.432 8  11573338.90945  24655133.736    24655148.9874
 01  4 21 18 55  0.0010000  0  7 05 30 04 24 10 06 09
  20528139.579   -18964071.234 9 -14757513.80248  20528139.035    20528145.6334
  21606443.771   -21817760.112 9 -16979534.92947  21606443.990    21606450.6904
  23952682.721    15957128.956 8  12439805.46145  23952682.972    23952693.5504
  21383835.197    -5623288.631 9  -4365683.58347  21383834.969    21383842.2694
  22144977.252   -19598245.740 8 -15259020.38147  22144976.442    22144986.6984
  23603751.878   -13804945.753 8 -10739054.90446  23603751.723    23603761.5304
  24672586.682    14936772.396 8  11644803.20245  24672586.473    24672601.7034
 01  4 21 18 55 30.0010000  0  7 05 30 04 24 10 06 09
  20528274.317   -18963363.194 9 -14756962.11548  20528273.762    20528280.3724
  21594474.157   -21880660.701 9 -17028548.35647  21594474.377    21594481.0714
  23971369.965    16055330.052 8  12516325.60645  23971370.255    23971380.8224
  21394191.676    -5568865.250 9  -4323275.81447  21394191.439    21394198.7524
  22130040.998   -19676735.900 8 -15320181.41147  22130040.172    22130050.3664
  23590733.235   -13873358.522 8 -10792363.46546  23590733.096    23590742.9094
  24690033.395    15028453.879 8  11716242.95945  24690033.185    24690048.4064
 01  4 21 18 56  0.0010000  0  7 05 30 04 24 10 06 09
  20528511.431   -18962117.224 9 -14755991.25948  20528510.888    20528517.4974
  21582584.327   -21943141.902 9 -17077234.98247  21582584.538    21582591.2344
  23990063.108    16153562.193 8  12592869.94045  23990063.384    23990073.9584
  21404604.006    -5514148.230 9  -4280639.23047  21404603.781    21404611.1074
  22115179.236   -19754834.360 8 -15381037.22047  22115178.451    22115188.5954
  23577720.239   -13941741.895 8 -10845649.12946  23577720.094    23577729.8084
  24707473.461    15120100.525 8  11787655.58345  24707473.172    24707488.5204
 01  4 21 18 56 30.0010000  0  7 05 30 04 24 10 06 09
  20528851.207   -18960331.786 9 -14754600.04048  20528850.662    20528857.2964
  21570775.018   -22005200.159 9 -17125592.04347  21570775.243    21570781.9154
  24008761.949    16251824.560 8  12669437.80845  24008762.239    24008772.9284
  21415072.012    -5459138.844 9  -4237774.83147  21415071.784    21415079.1244
  22100392.822   -19832537.086 8 -15441584.66747  22100392.037    22100402.1434
  23564713.050   -14010094.646 8 -10898910.91446  23564712.929    23564722.6234
  24724906.464    15211710.390 8  11859039.53145  24724906.173    24724921.6934
 01  4 21 18 57  0.0010000  0  7 05 30 04 24 10 06 09
  20529293.556   -18958007.399 9 -14752788.86448  20529293.026    20529299.6694
  21559046.471   -22066834.119 9 -17173618.48447  21559046.683    21559053.3304
  24027466.062    16350114.336 8  12746027.04845  24027466.271    24027477.0284
  21425595.110    -5403839.867 9  -4194684.77347  21425594.879    21425602.2334
  22085682.074   -19909842.119 8 -15501822.22947  22085681.291    22085691.3574
  23551711.584   -14078417.545 8 -10952149.44246  23551711.430    23551721.1174
  24742331.946    15303280.160 8  11930392.25445  24742331.719    24742347.1334
 01  4 21 18 57 30.0010000  0  7 05 30 04 24 10 06 09
  20529838.581   -18955143.256 9 -14750557.09848  20529838.059    20529844.7244
  21547399.110   -22128041.129 9 -17221312.23147  21547399.346    21547405.9974
  24046175.128    16448429.978 8  12822636.45645  24046175.329    24046186.1224
  21436172.935    -5348253.270 9  -4151370.59947  21436172.706    21436180.0684
  22071047.568   -19986746.205 8 -15561747.35847  22071046.793    22071056.8554
  23538715.926   -14146710.034 8 -11005364.26546  23538715.736    23538725.4644
  24759749.384    15394807.477 8  12001711.89345  24759749.121    24759764.4924
 01  4 21 18 58  0.0010000  0  7 05 30 04 24 10 06 09
  20530486.555   -18951738.240 9 -14747903.87248  20530486.040    20530492.7024
  21535833.607   -22188818.312 9 -17268671.05447  21535833.843    21535840.4674
  24064888.816    16546770.071 8  12899264.90845  24064888.984    24064899.7394
  21446805.125    -5292380.999 9  -4107833.81847  21446804.906    21446812.2924
  22056490.124   -20063245.517 8 -15621357.09147  22056489.380    22056499.3914
  23525726.201   -14214971.477 8 -11058554.89846  23525725.969    23525735.6674
  24777158.193    15486290.173 7  12072996.74745  24777157.950    24777173.4104
 01  4 21 18 58 30.0010000  0  7 05 30 04 24 10 06 09
  20531237.468   -18947792.299 9 -14744829.14448  20531236.940    20531243.6174
  21524350.171   -22249164.135 9 -17315693.74947  21524350.402    21524357.0354
  24083606.730    16645132.434 8  12975910.72945  24083606.955    24083617.6184
  21457491.183    -5236225.472 9  -4064076.32047  21457490.978    21457498.3854
  22042010.196   -20139337.938 8 -15680649.76147  22042009.385    22042019.3624
  23512742.226   -14283202.058 8 -11111721.49946  23512742.097    23512751.7194
  24794557.771    15577724.832 7  12144244.17345  24794557.595    24794573.3004
 01  4 21 18 59  0.0010000  0  7 05 30 04 24 10 06 09
  20532091.522   -18943304.284 9 -14741332.02248  20532090.989    20532097.6784
  21512949.478   -22309075.171 9 -17362377.65247  21512949.705    21512956.3364
  24102328.658    16743516.059 8  13052573.10845  24102328.815    24102339.5124
  21468230.859    -5179788.252 9  -4020099.31947  21468230.653    21468238.0784
  22027608.409   -20215019.441 8 -15739622.24347  22027607.595    22027617.5254
  23499764.457   -14351400.428 8 -11164862.99746  23499764.361    23499773.9284
  24811947.904    15669109.526 7  12215452.67045  24811947.735    24811963.6384
 01  4 21 18 59 30.0010000  0  7 05 30 04 24 10 06 09
  20533048.584   -18938275.194 9 -14737413.28048  20533048.047    20533054.7304
  21501631.640   -22368550.497 9 -17408722.03247  21501631.880    21501638.5114
  24121054.029    16841917.996 8  13129249.73645  24121054.232    24121064.9964
  21479023.607    -5123072.411 9  -3975905.21547  21479023.381    21479030.7964
  22013285.034   -20290288.721 8 -15798273.51447  22013284.221    22013294.1074
  23486792.625   -14419567.716 8 -11217980.27346  23486792.452    23486802.0664
  24829327.872    15760440.680 7  12286619.43645  24829327.684    24829343.5704
 01  4 21 19  0  0.0010000  0  7 05 30 04 24 10 06 09
  20534108.851   -18932703.601 9 -14733071.81248  20534108.333    20534115.0064
  21490397.362   -22427586.995 9 -17454724.47647  21490397.587    21490404.2144
  24139782.753    16940337.328 8  13205939.91145  24139782.926    24139793.6654
  21489869.186    -5066078.786 9  -3931494.65847  21489868.943    21489876.3784
  21999040.879   -20365141.696 8 -15856600.39447  21999040.072    21999049.9534
  23473826.906   -14487702.703 8 -11271072.38446  23473826.738    23473836.3304
  24846697.286    15851716.522 7  12357743.11445  24846696.980    24846712.9904
 01  4 21 19  0 30.0010000  0  7 05 30 04 24 10 06 09
  20535272.284   -18926589.751 9 -14728307.80848  20535271.767    20535278.4364
  21479246.902   -22486182.763 9 -17500383.49947  21479247.147    21479253.7814
  24158514.409    17038771.648 8  13282641.79445  24158514.488    24158525.2094
  21500766.973    -5008810.668 9  -3886870.20947  21500766.729    21500774.1744
  21984876.414   -20439575.913 8 -15914600.98047  21984875.618    21984885.4774
  23460867.221   -14555805.767 8 -11324139.61546  23460867.071    23460876.6934
  24864055.651    15942934.048 7  12428821.33845  24864055.482    24864071.4114
 01  4 21 19  1  0.0010000  0  7 05 30 04 24 10 06 09
  20536539.020   -18919933.127 9 -14723120.86248  20536538.500    20536545.1824
  21468180.754   -22544335.668 9 -17545697.42547  21468180.988    21468187.6584
  24177248.587    17137219.291 8  13359354.06845  24177248.629    24177259.2844
  21511716.606    -4951270.104 9  -3842033.46547  21511716.369    21511723.8264
  21970792.174   -20513588.389 8 -15972272.93447  21970791.378    21970801.2274
  23447913.719   -14623876.540 8 -11377181.70046  23447913.577    23447923.1824
  24881402.469    16034090.453 7  12499851.91845  24881402.263    24881418.4154
 01  4 21 19  1 30.0010000  0  7 05 30 04 24 10 06 09
  20537909.135   -18912733.406 9 -14717510.72548  20537908.602    20537915.2954
  21457199.310   -22602043.369 9 -17590664.44847  21457199.560    21457206.1994
  24195984.923    17235678.384 8  13436075.26045  24195984.998    24195995.6714
  21522717.725    -4893459.116 9  -3796986.00747  21522717.483    21522724.9554
  21956788.692   -20587176.652 8 -16029614.33447  21956787.912    21956797.7764
  23434966.483   -14691914.864 8 -11430198.49046  23434966.280    23434975.8794
  24898737.053    16125183.012 7  12570832.74045  24898736.862    24898753.2374
 01  4 21 19  2  0.0010000  0  7 05 30 04 24 10 06 09
  20539382.712   -18904989.813 9 -14711476.79148  20539382.182    20539388.8944
  21446303.119   -22659303.404 9 -17635282.63747  21446303.323    21446309.9424
  24214723.038    17334147.492 7  13512804.23945  24214723.016    24214733.9674
  21533769.860    -4835379.882 9  -3751729.52447  21533769.621    21533777.1074
  21942866.637   -20660337.082 8 -16086622.36747  21942865.840    21942875.7084
  23422025.457   -14759920.002 8 -11483189.42646  23422025.279    23422034.7974
  24916059.066    16216209.424 7  12641762.01145  24916058.871    24916075.3324
 01  4 21 19  2 30.0010000  0  7 05 30 04 24 10 06 09
  20540959.767   -18896702.468 9 -14705019.15348  20540959.240    20540965.9434
  21435492.461   -22716113.585 9 -17679550.29447  21435492.687    21435499.2734
  24233462.688    17432624.722 7  13589539.53945  24233462.752    24233473.6914
  21544872.681    -4777034.311 9  -3706265.50847  21544872.435    21544879.9704
  21929026.473   -20733067.163 8 -16143295.06347  21929025.692    21929035.5184
  23409090.771   -14827891.782 8 -11536154.37146  23409090.614    23409100.0704
  24933368.045    16307166.770 7  12712637.46645  24933367.798    24933384.3314
 01  4 21 19  3  0.0010000  0  7 05 30 04 24 10 06 09
  20542640.551   -18887870.004 9 -14698136.75348  20542640.026    20542646.7504
  21424768.083   -22772470.683 9 -17723464.89547  21424768.282    21424774.8644
  24252203.715    17531109.486 7  13666280.72445  24252203.848    24252214.8554
  21556025.933    -4718423.742 9  -3660595.00347  21556025.694    21556033.2584
  21915268.993   -20805363.065 8 -16199629.44047  21915268.196    21915277.9564
  23396162.677   -14895828.864 8 -11589092.27746  23396162.514    23396171.9884
  24950663.592    16398053.794 8  12783458.12345  24950663.414    24950680.0304
 01  4 21 19  3 30.0010000  0  7 05 30 04 24 10 06 09
  20544424.790   -18878494.017 9 -14690830.82148  20544424.271    20544430.9874
  21414129.959   -22828374.193 9 -17767026.04747  21414130.176    21414136.7834
  24270945.546    17629598.350 7  13743025.10945  24270945.674    24270956.9784
  21567228.860    -4659552.141 9  -3614721.09047  21567228.628    21567236.2124
  21901594.290   -20877223.578 8 -16255624.55047  21901593.492    21901603.2364
  23383240.909   -14963732.706 8 -11642004.28746  23383240.700    23383250.2424
  24967944.934    16488865.919 8  12854220.40145  24967944.671    24967961.4124
 01  4 21 19  4  0.0010000  0  7 05 30 04 24 10 06 09
  20546312.757   -18868572.966 9 -14683100.17048  20546312.234    20546318.9484
  21403578.820   -22883820.854 9 -17810231.22047  21403579.030    21403585.6144
  24289687.989    17728090.464 7  13819772.00345  24289688.129    24289699.6144
  21578481.378    -4600420.209 9  -3568644.32847  21578481.128    21578488.7224
  21888003.161   -20948644.912 8 -16311277.45347  21888002.362    21888012.0764
  23370325.734   -15031601.804 8 -11694889.21746  23370325.481    23370335.0764
  24985211.613    16579601.553 7  12924923.06645  24985211.368    24985228.2454
 01  4 21 19  4 30.0010000  0  7 05 30 04 24 10 06 09
  20548304.607   -18858105.865 9 -14674944.02948  20548304.075    20548310.7924
  21393115.197   -22938807.535 9 -17853077.96647  21393115.394    21393121.9944
  24308431.062    17826585.269 8  13896520.99645  24308431.282    24308442.8344
  21589783.145    -4541029.275 9  -3522365.75347  21589782.894    21589790.4734
  21874496.415   -21019623.042 8 -16366584.99947  21874495.592    21874505.3064
  23357417.399   -15099435.078 8 -11747746.24046  23357417.187    23357426.7954
  25002463.516    16670259.150 8  12995564.92345  25002463.354    25002480.1844
 01  4 21 19  5  0.0010000  0  7 05 30 04 24 10 06 09
  20550399.754   -18847096.058 9 -14666364.99548  20550399.215    20550405.9224
  21382738.842   -22993335.584 9 -17895567.33747  21382739.048    21382745.6414
  24327173.698    17925077.298 8  13973267.83845  24327173.927    24327185.4804
  21601133.054    -4481385.484 9  -3475890.14247  21601132.797    21601140.3634
  21861073.779   -21090159.078 8 -16421548.06247  21861072.974    21861082.6164
  23344515.381   -15167235.719 8 -11800577.84446  23344515.188    23344524.6834
  25019699.444    16760832.616 8  13066141.21345  25019699.222    25019716.2074
 01  4 21 19  5 30.0010000  0  7 05 30 04 24 10 06 09
  20552598.814   -18835540.045 9 -14657360.34948  20552598.292    20552604.9604
  21372450.862   -23047399.441 9 -17937695.00547  21372451.050    21372457.6204
  24345916.175    18023568.673 8  14050014.16245  24345916.363    24345927.9834
  21612531.374    -4421487.190 9  -3429216.22347  21612531.126    21612538.6884
  21847736.512   -21160246.704 8 -16476161.70947  21847735.698    21847745.3014
  23331620.224   -15234999.897 8 -11853381.01646  23331620.056    23331629.4854
  25036919.423    16851322.772 8  13136652.60245  25036919.221    25036936.3274
 01  4 21 19  6  0.0010000  0  7 05 30 04 24 10 06 09
  20554901.665   -18823438.706 9 -14647930.77248  20554901.138    20554907.8164
  21362251.349   -23100998.150 9 -17979460.21947  21362251.551    21362258.1094
  24364657.983    18122056.192 8  14126757.51145  24364658.118    24364669.8174
  21623977.611    -4361337.190 9  -3382346.16647  21623977.362    21623984.9184
  21834484.865   -21229884.344 8 -16530424.71647  21834484.032    21834493.6294
  23318731.832   -15302728.484 8 -11906156.46246  23318731.698    23318741.0884
  25054122.946    16941725.816 8  13207096.11145  25054122.631    25054139.8714
 01  4 21 19  6 30.0010000  0  7 05 30 04 24 10 06 09
  20557308.308   -18810791.749 9 -14638076.03748  20557307.772    20557314.4794
  21352140.834   -23154129.142 9 -18020860.97847  21352141.040    21352147.5864
  24383398.796    18220538.850 8  14203497.03745  24383399.024    24383410.7074
  21635471.315    -4300937.622 9  -3335281.63447  21635471.085    21635478.6494
  21821319.431   -21299068.646 8 -16584334.48047  21821318.616    21821328.1994
  23305850.359   -15370420.717 8 -11958903.58446  23305850.176    23305859.5994
  25071309.446    17032039.630 7  13277470.07845  25071309.073    25071326.4694
 01  4 21 19  7  0.0010000  0  7 05 30 04 24 10 06 09
  20559818.697   -18797599.695 9 -14627796.55648  20559818.174    20559824.9064
  21342119.553   -23206790.950 9 -18061896.13747  21342119.788    21342126.3704
  24402138.200    18319014.227 8  14280230.91445  24402138.371    24402150.1884
  21647011.913    -4240291.474 9  -3288024.96547  21647011.696    21647019.3244
  21808240.651   -21367797.589 8 -16637889.41047  21808239.850    21808249.4254
  23292975.697   -15438076.902 8 -12011622.61046  23292975.599    23292985.0044
  25088478.294    17122261.122 7  13347772.06745  25088477.987    25088495.4844
 01  4 21 19  7 30.0010000  0  7 05 30 04 24 10 06 09
  20562432.946   -18783861.819 9 -14617091.75548  20562432.424    20562439.1684
  21332188.148   -23258980.804 9 -18102563.54347  21332188.393    21332194.9644
  24420875.984    18417481.108 8  14356958.13945  24420876.139    24420887.9714
  21658599.156    -4179400.237 9  -3240577.31747  21658598.944    21658606.6074
  21795249.184   -21436067.964 8 -16691087.01147  21795248.394    21795257.9324
  23280108.095   -15505696.084 8 -12064312.81946  23280107.997    23280117.4144
  25105629.155    17212388.341 7  13418000.60545  25105628.954    25105646.7004
 01  4 21 19  8  0.0010000  0  7 05 30 04 24 10 06 09
  20565151.027   -18769578.343 9 -14605961.81548  20565150.502    20565157.2524
  21322346.828   -23310697.126 9 -18142861.95747  21322347.076    21322353.6574
  24439611.840    18515937.634 8  14433677.31945  24439611.948    24439623.7864
  21670232.610    -4118266.294 9  -3192940.54747  21670232.400    21670240.0884
  21782345.409   -21503877.503 8 -16743925.52147  21782344.587    21782354.0734
  23267247.640   -15573278.334 8 -12116974.24646  23267247.490    23267256.8834
  25122761.612    17302418.387 7  13488153.43145  25122761.503    25122779.1904
 01  4 21 19  8 30.0010000  0  7 05 30 04 24 10 06 09
  20567972.977   -18754749.115 9 -14594406.61448  20567972.459    20567979.2054
  21312596.125   -23361937.464 9 -18182789.47947  21312596.367    21312602.9374
  24458345.540    18614382.313 8  14510387.27245  24458345.559    24458357.3904
  21681911.955    -4056891.371 9  -3145116.00447  21681911.725    21681919.4124
  21769529.860   -21571223.298 8 -16796402.67747  21769529.049    21769538.4924
  23254394.176   -15640823.275 8 -12169606.59046  23254394.068    23254403.4504
  25139875.122    17392348.722 7  13558228.54345  25139875.016    25139892.7104
 01  4 21 19  9  0.0010000  0  7 05 30 04 24 10 06 09
  20570898.826   -18739373.765 9 -14582425.86548  20570898.303    20570905.0544
  21302936.547   -23412699.100 9 -18222343.98847  21302936.774    21302943.3274
  24477076.622    18712814.003 8  14587087.09745  24477076.612    24477088.4644
  21693636.757    -3995277.516 9  -3097105.27447  21693636.528    21693644.2304
  21756803.218   -21638102.142 8 -16848515.97147  21756802.379    21756811.8014
  23241548.120   -15708329.812 8 -12222209.01946  23241547.981    23241557.3064
  25156969.276    17482177.305 7  13628224.36645  25156969.062    25156987.0514
 01  4 21 19  9 30.0010000  0  7 05 30 04 24 10 06 09
  20573928.513   -18723452.990 9 -14570020.11048  20573927.976    20573934.7424
  21293368.226   -23462980.736 9 -18261524.47147  21293368.458    21293374.9914
  24495804.906    18811230.898 8  14663775.39845  24495804.977    24495816.6864
  21705406.452    -3933427.488 9  -3048910.51447  21705406.230    21705413.9894
  21744165.764   -21704512.081 8 -16900263.88147  21744164.938    21744174.3494
  23228709.274   -15775798.230 8 -12274781.75046  23228709.139    23228718.3874
  25174043.512    17571900.996 7  13698138.45945  25174043.231    25174061.3774
 01  4 21 19 10  0.0010000  0  7 05 30 04 24 10 06 09
  20577061.973   -18706986.646 9 -14557189.23748  20577061.437    20577068.2034
  21283891.677   -23512780.367 9 -18300329.36947  21283891.908    21283898.4414
  24514529.948    18909630.905 7  14740450.52545  24514529.964    24514541.7814
  21717220.784    -3871342.960 9  -3000533.02247  21717220.551    21717228.3364
  21731618.092   -21770450.255 8 -16951644.18547  21731617.274    21731626.6634
  23215877.821   -15843227.858 8 -12327324.24246  23215877.682    23215886.8814
  25191097.302    17661517.638 7  13767969.13945  25191097.026    25191115.3644
 01  4 21 19 10 30.0010000  0  7 05 30 04 24 10 06 09
  20580299.377   -18689974.160 9 -14543932.80348  20580298.835    20580305.6044
  21274507.341   -23562095.293 9 -18338756.57347  21274507.565    21274514.1194
  24533251.567    19008013.337 7  14817111.95845  24533251.663    24533263.4964
  21729079.460    -3809025.628 9  -2951974.13147  21729079.221    21729087.0194
  21719160.801   -21835913.409 8 -17002654.34147  21719159.989    21719169.3574
  23203053.901   -15910617.788 8 -12379835.80746  23203053.750    23203062.9454
  25208130.332    17751025.024 7  13837714.69145  25208129.874    25208148.2754
 01  4 21 19 11  0.0010000  0  7 05 30 04 24 10 06 09
  20583640.664   -18672415.922 9 -14530251.10748  20583640.122    20583646.8764
  21265215.602   -23610923.769 9 -18376804.72747  21265215.827    21265222.3764
  24551969.560    19106376.239 7  14893758.19545  24551969.695    24551981.4604
  21740981.992    -3746477.757 9  -2903235.60047  21740981.741    21740989.5444
  21706794.279   -21900899.440 8 -17053292.72347  21706793.480    21706802.8064
  23190237.497   -15977967.980 8 -12432316.41246  23190237.383    23190246.5324
  25225142.148    17840420.280 7  13907372.84945  25225141.877    25225160.0644
 01  4 21 19 11 30.0010000  0  7 05 30 04 24 10 06 09
  20587085.694   -18654312.416 9 -14516144.53448  20587085.147    20587091.9174
  21256016.817   -23659263.975 9 -18414472.41147  21256017.026    21256023.5274
  24570683.440    19204717.741 7  14970387.76345  24570683.451    24570695.4444
  21752927.956    -3683701.732 9  -2854319.28647  21752927.701    21752935.4864
  21694519.066   -21965405.891 8 -17103557.40547  21694518.248    21694527.5704
  23177428.765   -16045278.110 8 -12484765.78546  23177428.600    23177437.7634
  25242132.228    17929700.730 7  13976941.57345  25242131.945    25242149.9814
 01  4 21 19 12  0.0010000  0  7 05 30 04 24 10 06 09
  20590634.542   -18635663.418 9 -14501612.90348  20590633.981    20590640.7524
  21246911.288   -23707113.750 9 -18451757.94447  21246911.489    21246917.9794
  24589392.884    19303036.479 7  15046999.55445  24589393.007    24589405.1414
  21764916.894    -3620699.709 9  -2805226.87147  21764916.622    21764924.4294
  21682335.618   -22029429.894 8 -17153446.15547  21682334.792    21682344.1064
  23164627.773   -16112547.693 8 -12537183.57246  23164627.612    23164636.7474
  25259099.735    18018863.913 7  14046418.89345  25259099.459    25259117.5114
 01  4 21 19 12 30.0010000  0  7 05 30 04 24 10 06 09
  20594287.229   -18616468.429 9 -14486655.82248  20594286.682    20594293.4704
  21237899.583   -23754470.569 9 -18488659.35447  21237899.778    21237906.2864
  24608097.892    19401331.576 7  15123592.95145  24608098.068    24608110.2554
  21776948.577    -3557472.898 9  -2755959.29247  21776948.332    21776956.1684
  21670244.572   -22092968.465 8 -17202956.65247  21670243.743    21670253.0294
  23151834.582   -16179775.900 8 -12589569.12646  23151834.408    23151843.5364
  25276044.548    18107908.264 7  14115803.62445  25276044.279    25276062.6864
 01  4 21 19 13  0.0010000  0  7 05 30 04 24 10 06 09
  20598043.603   -18596728.655 9 -14471274.23048  20598043.071    20598049.8994
  21228981.850   -23801333.481 9 -18525175.90147  21228982.042    21228988.5484
  24626797.987    19499600.571 7  15200166.01245  24626798.143    24626810.2894
  21789022.509    -3494024.302 9  -2706518.90247  21789022.264    21789030.1234
  21658246.125   -22156020.051 8 -17252087.67547  21658245.329    21658254.6244
  23139049.147   -16246963.156 8 -12641922.76146  23139049.020    23139058.1274
  25292966.267    18196830.422 7  14185093.12145  25292965.853    25292984.6074
 01  4 21 19 13 30.0010000  0  7 05 30 04 24 10 06 09
  20601903.688   -18576443.907 9 -14455467.98848  20601903.159    20601910.0244
  21220158.609   -23847699.725 9 -18561305.43547  21220158.810    21220165.3304
  24645492.866    19597842.433 7  15276717.93645  24645493.031    24645505.2014
  21801138.295    -3430355.655 9  -2656907.03847  21801138.046    21801145.9014
  21646340.979   -22218581.587 8 -17300836.84847  21646340.181    21646349.4934
  23126271.718   -16314108.355 8 -12694243.62946  23126271.655    23126280.7534
  25309864.401    18285628.413 7  14254285.87445  25309863.955    25309882.7324
 01  4 21 19 14  0.0010000  0  7 05 30 04 24 10 06 09
  20605867.415   -18555614.530 9 -14439237.36048  20605866.895    20605873.7884
  21211430.140   -23893567.834 9 -18597046.81447  21211430.382    21211436.9084
  24664182.281    19696055.431 7  15353247.36145  24664182.572    24664194.7164
  21813295.475    -3366469.356 9  -2607125.58447  21813295.230    21813303.1684
  21634529.638   -22280650.326 8 -17349202.02247  21634528.837    21634538.1504
  23113502.439   -16381211.293 8 -12746531.57046  23113502.305    23113511.4324
  25326738.330    18374299.656 7  14323379.84145  25326737.864    25326756.7844
 01  4 21 19 14 30.0010000  0  6 05 30 04 24 10 06
  20609938.037   -18534223.292 9 -14422568.91848  20609937.527    20609944.4434
  21202800.268   -23938918.280 9 -18632384.82147  21202800.497    21202807.0304
  24682869.337    19794255.580 7  15429766.77045  24682869.475    24682881.7344
  21825497.048    -3302349.836 9  -2557162.40147  21825496.823    21825504.7764
  21622815.766   -22342206.876 8 -17397168.09547  21622814.957    21622824.2474
  23100744.587   -16448254.136 8 -12798772.68546  23100744.447    23100753.5004
 01  4 21 19 15  0.0010000  0  6 05 30 04 24 10 06
  20614111.417   -18512292.174 9 -14405479.78848  20614110.918    20614117.8544
  21194265.079   -23983770.898 9 -18667334.90047  21194265.315    21194271.8594
  24701549.465    19892419.679 7  15506258.10845  24701549.563    24701561.7014
  21837738.443    -3238020.910 9  -2507036.03947  21837738.238    21837746.2274
  21611195.698   -22403270.356 8 -17444749.95247  21611194.871    21611204.1744
  23087994.129   -16515258.094 8 -12850983.50846  23087993.995    23088002.9734
 01  4 21 19 15 30.0010000  0  6 05 30 04 24 10 06
  20618387.201   -18489822.973 9 -14387971.37648  20618386.698    20618393.6604
  21185824.740   -24028125.087 9 -18701896.60047  21185824.989    21185831.5324
  24720222.349    19990545.012 8  15582719.24845  24720222.386    24720234.5134
  21850019.117    -3173485.870 9  -2456749.07647  21850018.906    21850026.9194
  21599669.631   -22463839.841 8 -17491946.87747  21599668.820    21599678.1134
  23075250.878   -16582223.953 8 -12903164.63646  23075250.757    23075259.7494
 01  4 21 19 16  0.0010000  0  6 05 30 04 24 10 06
  20622765.934   -18466812.836 9 -14370041.45448  20622765.437    20622772.4394
  21177480.154   -24071975.959 9 -18736066.10247  21177480.435    21177486.9844
  24738888.032    20088632.861 8  15659151.18445  24738888.103    24738900.2074
  21862339.135    -3108743.936 9  -2406300.90047  21862338.937    21862346.9894
  21588238.727   -22523909.374 8 -17538754.23447  21588237.924    21588247.2124
  23062515.565   -16649148.263 8 -12955313.39046  23062515.453    23062524.4244
 01  4 21 19 16 30.0010000  0  7 05 17 30 04 24 10 06
  20627247.028   -18443264.745 9 -14351692.34948  20627246.534    20627253.5524
  25331971.915    -3946805.400 7  -3057039.54945  25331971.442    25331990.5064
  21169231.236   -24115324.293 9 -18769844.01647  21169231.506    21169238.0874
  24757545.708    20186679.242 7  15735550.78445  24757545.837    24757558.0624
  21874697.641    -3043799.962 9  -2355695.28747  21874697.432    21874705.5014
  21576902.847   -22583479.373 8 -17585172.34247  21576902.062    21576911.3484
  23049787.655   -16716033.326 8 -13007431.55646  23049787.544    23049796.5214
 01  4 21 19 17  0.0010000  0  7 05 17 30 04 24 10 06
  20631826.821   -18419197.894 9 -14332939.01148  20631826.334    20631833.3744
  25314675.389    -4037698.024 7  -3127864.64045  25314674.916    25314693.9744
  21161074.722   -24158186.995 9 -18803243.51647  21161074.993    21161081.5674
  24776191.707    20284663.964 7  15811902.33145  24776191.869    24776204.1664
  21887090.651    -2978674.521 9  -2304948.26647  21887090.443    21887098.5374
  21565658.880   -22642566.505 8 -17631214.19047  21565658.096    21565667.3544
  23037063.832   -16782897.379 8 -13059533.35746  23037063.703    23037072.6874
 01  4 21 19 17 30.0010000  0  7 05 17 30 04 24 10 06
  20636512.153   -18394576.404 9 -14313753.49048  20636511.660    20636518.7364
  25297406.066    -4128447.315 7  -3198578.07645  25297405.601    25297424.7284
  21153017.891   -24200525.901 9 -18836234.86747  21153018.160    21153024.7144
  24794832.588    20382621.709 7  15888232.85245  24794832.804    24794845.1224
  21899524.709    -2913333.376 9  -2254033.16847  21899524.515    21899532.6254
  21554514.142   -22701132.181 9 -17676849.70747  21554513.361    21554522.6024
  23024351.004   -16849703.704 8 -13111590.17046  23024350.864    23024359.8454
 01  4 21 19 18  0.0010000  0  7 05 17 30 04 24 10 06
  20641301.955   -18369406.121 9 -14294140.33848  20641301.464    20641308.5584
  25280163.309    -4219057.845 7  -3269183.41645  25280162.928    25280181.6714
  21145060.004   -24242345.027 9 -18868821.18747  21145060.279    21145066.8284
  24813467.013    20480545.563 7  15964536.97145  24813467.244    24813479.6384
  21911998.337    -2847784.290 9  -2202956.04247  21911998.139    21912006.2834
  21543468.124   -22759179.084 9 -17722080.98447  21543467.348    21543476.5614
  23011648.103   -16916457.291 8 -13163605.88646  23011648.028    23011657.0414
 01  4 21 19 18 30.0010000  0  7 05 17 30 04 24 10 06
  20646195.501   -18343690.446 9 -14274102.20548  20646195.016    20646202.1174
  25262946.613    -4309531.683 7  -3339682.18045  25262946.017    25262964.8604
  21137200.859   -24283645.126 9 -18901003.07847  21137201.130    21137207.6514
  24832094.282    20578431.372 7  16040811.42945  24832094.498    24832106.9364
  21924510.517    -2782032.474 9  -2151720.94147  21924510.317    21924518.5114
  21532520.663   -22816708.130 9 -17766908.73747  21532519.877    21532529.0814
  22998954.786   -16983160.613 8 -13215582.43446  22998954.715    22998963.7484
 01  4 21 19 19  0.0010000  0  7 05 17 30 04 24 10 06
  20651192.671   -18317430.453 9 -14253639.93148  20651192.167    20651199.2784
  25245755.890    -4399868.518 7  -3410074.20945  25245755.308    25245774.0584
  21129440.653   -24324425.274 9 -18932779.81048  21129440.922    21129447.4324
  24850713.842    20676276.804 7  16117054.46845  24850714.158    24850726.4264
  21937060.840    -2716080.449 9  -2100329.84047  21937060.629    21937068.8384
  21521672.014   -22873717.781 9 -17811331.76547  21521671.237    21521680.4134
  22986271.140   -17049813.734 8 -13267519.87546  22986271.076    22986280.0504
 01  4 21 19 19 30.0010000  0  7 05 17 30 04 24 10 06
  20656292.926   -18290628.713 9 -14232755.51648  20656292.436    20656299.5504
  25228590.921    -4490069.542 7  -3480360.43145  25228590.440    25228609.0194
  21121779.373   -24364685.587 9 -18964151.47548  21121779.616    21121786.1804
  24869325.041    20774078.308 8  16193263.25345  24869325.373    24869337.6234
  21949648.569    -2649931.987 9  -2048785.66547  21949648.364    21949656.5704
  21510922.294   -22930207.758 9 -17855349.85247  21510921.519    21510930.6754
  22973596.675   -17116418.310 8 -13319419.47846  22973596.590    22973605.6254
 01  4 21 19 20  0.0010000  0  7 05 17 30 04 24 10 06
  20661496.216   -18263285.411 9 -14211449.09948  20661495.724    20661502.8544
  25211452.102    -4580133.380 7  -3550539.71645  25211451.695    25211469.9514
  21114217.363   -24404424.093 9 -18995116.53648  21114217.631    21114224.1894
  24887927.691    20871835.058 7  16269437.18045  24887928.026    24887940.3114
  21962273.194    -2583589.305 9  -1997090.14647  21962273.005    21962281.2284
  21500271.997   -22986175.196 9 -17898960.75947  21500271.222    21500280.3334
  22960931.565   -17182973.363 8 -13371280.48646  22960931.528    22960940.5724
 01  4 21 19 20 30.0010000  0  7 05 17 30 04 24 10 06
  20666802.416   -18235401.361 9 -14189721.32548  20666801.921    20666809.0784
  25194339.462    -4670059.464 7  -3620611.67745  25194339.023    25194357.2474
  21106754.935   -24443639.403 9 -19025673.91148  21106755.177    21106761.7244
  24906521.442    20969545.315 7  16345574.85945  24906521.634    24906534.1994
  21974934.386    -2517054.748 9  -1945245.11047  21974934.199    21974942.4344
  21489721.494   -23041618.209 9 -17942163.02547  21489720.706    21489729.8134
  22948275.958   -17249478.659 8 -13423102.74346  22948275.929    22948284.9634
 01  4 21 19 21  0.0010000  0  6 05 17 30 24 10 06
  20672211.248   -18206977.990 9 -14167573.30448  20672210.746    20672217.9304
  25177253.153    -4759847.620 7  -3690576.20045  25177252.711    25177270.7754
  21099392.267   -24482330.466 9 -19055822.79148  21099392.524    21099399.0464
  21987631.721    -2450330.405 9  -1893252.20147  21987631.509    21987639.7294
  21479270.991   -23096535.532 9 -17984955.67247  21479270.211    21479279.3034
  22935629.841   -17315934.374 8 -13474886.36746  22935629.804    22935638.7884
 01  4 21 19 21 30.0010000  0  6 05 17 30 24 10 06
  20677722.700   -18178015.268 9 -14145005.00848  20677722.201    20677729.3984
  25160193.033    -4849496.395 7  -3760432.09245  25160192.782    25160210.7854
  21092129.782   -24520495.013 9 -19085561.39848  21092130.042    21092136.5774
  22000364.824    -2383417.822 9  -1841112.60647  22000364.634    22000372.8394
  21468921.133   -23150924.200 9 -18027336.37647  21468920.336    21468929.4154
  22922993.416   -17382339.326 8 -13526630.43146  22922993.372    22923002.3074
 01  4 21 19 22  0.0010000  0  6 05 17 30 24 10 06
  20683336.665   -18148513.848 9 -14122016.94648  20683336.164    20683343.3894
  25143159.855    -4939004.861 7  -3830178.66645  25143159.633    25143177.6794
  21084967.776   -24558131.614 9 -19114888.61848  21084968.040    21084974.5724
  22013133.295    -2316319.541 9  -1788828.31247  22013133.085    22013141.3154
  21458672.238   -23204782.078 9 -18069303.48147  21458671.451    21458680.5024
  22910366.682   -17448693.141 8 -13578334.64946  22910366.603    22910375.4984
 01  4 21 19 22 30.0010000  0  6 05 17 30 24 10 06
  20689052.994   -18118474.497 9 -14098609.71848  20689052.497    20689059.7344
  25126153.660    -5028372.378 7  -3899815.40645  25126153.246    25126171.3194
  21077906.511   -24595238.611 9 -19143803.15948  21077906.779    21077913.3154
  22025936.677    -2249037.419 9  -1736400.76547  22025936.491    22025944.7434
  21448524.749   -23258107.264 9 -18110855.49747  21448523.986    21448532.9974
  22897749.715   -17514995.477 8 -13629998.75846  22897749.618    22897758.5014
 01  4 21 19 23  0.0010000  0  6 05 17 30 24 10 06
  20694871.614   -18087897.631 9 -14074783.64648  20694871.129    20694878.3804
  25109174.321    -5117597.980 7  -3969341.54645  25109173.881    25109191.8104
  21070946.385   -24631814.418 9 -19172303.78248  21070946.647    21070953.1804
  22038774.648    -2181573.701 9  -1683831.71047  22038774.464    22038782.7434
  21438479.047   -23310897.521 9 -18151990.69047  21438478.260    21438487.2404
  22885142.723   -17581245.626 8 -13681622.19146  22885142.595    22885151.4534
 01  4 21 19 23 30.0010000  0  6 05 17 30 24 10 06
  20700792.432   -18056783.813 9 -14050539.17048  20700791.940    20700799.2214
  25092222.237    -5206680.554 7  -4038756.25745  25092221.727    25092239.6544
  21064087.719   -24667857.097 9 -19200388.98648  21064087.966    21064094.5054
  22051646.907    -2113929.851 9  -1631122.29247  22051646.732    22051655.0084
  21428535.609   -23363150.420 9 -18192707.16747  21428534.834    21428543.7804
  22872545.761   -17647442.547 8 -13733204.14746  22872545.636    22872554.5444
 01  4 21 19 24  0.0010000  0  6 05 17 30 24 10 06
  20706815.198   -18025133.997 9 -14025877.03548  20706814.710    20706822.0024
  25075297.509    -5295619.500 7  -4108059.05945  25075297.124    25075314.9874
  21057330.677   -24703365.433 9 -19228057.81748  21057330.933    21057337.4994
  22064552.897    -2046108.487 9  -1578274.55947  22064552.728    22064561.0254
  21418694.744   -23414864.151 9 -18233003.50647  21418694.007    21418702.9094
  22859958.974   -17713586.238 8 -13784744.62446  22859958.870    22859967.7604
 01  4 21 19 24 30.0010000  0  6 05 17 30 24 10 06
  20712939.830   -17992949.117 9 -14000797.96448  20712939.350    20712946.6554
  25058400.299    -5384414.164 7  -4177249.45045  25058399.851    25058417.7244
  21050675.612   -24738337.857 9 -19255309.05248  21050675.870    21050682.4494
  22077492.447    -1978111.275 9  -1525289.78947  22077492.260    22077500.5484
  21408956.860   -23466036.951 9 -18272878.34347  21408956.098    21408964.9914
  22847382.447   -17779676.285 8 -13836243.29846  22847382.346    22847391.2224
 01  4 21 19 25  0.0010000  0  6 05 17 30 24 10 06
  20719166.182   -17960229.733 9 -13975302.39848  20719165.700    20719173.0284
  25041530.743    -5473063.604 7  -4246326.65445  25041530.180    25041547.9084
  21044122.908   -24772772.697 9 -19282141.39848  21044123.157    21044129.7144
  22090464.955    -1909940.585 9  -1472169.84747  22090464.769    22090473.0494
  21399322.239   -23516666.921 9 -18312330.20147  21399321.468    21399330.3544
  22834816.199   -17845712.049 8 -13887699.67046  22834816.096    22834824.9544
 01  4 21 19 25 30.0010000  0  6 05 17 30 24 10 06
  20725494.212   -17926975.916 9 -13949390.39348  20725493.729    20725501.0564
  25024689.137    -5561566.322 7  -4315289.51645  25024688.559    25024706.2284
  21037672.875   -24806667.801 9 -19308553.16548  21037673.122    21037679.6764
  22103470.193    -1841597.718 9  -1418915.74847  22103470.016    22103478.3574
  21389791.484   -23566751.053 9 -18351356.72747  21389790.706    21389799.5944
  22822260.489   -17911692.357 8 -13939112.82346  22822260.398    22822269.2354
 01  4 21 19 26  0.0010000  0  6 05 17 30 24 10 06
  20731923.766   -17893188.633 9 -13923062.70148  20731923.268    20731930.5814
  25007875.451    -5649921.656 7  -4384137.53145  25007875.038    25007892.5054
  21031325.836   -24840021.736 9 -19334543.24748  21031326.086    21031332.6634
  22116507.853    -1773084.742 9  -1365529.09447  22116507.680    22116516.0424
  21380364.902   -23616287.771 9 -18389956.70547  21380364.122    21380372.9534
  22809715.430   -17977616.704 8 -13990482.37846  22809715.343    22809724.1684
 01  4 21 19 26 30.0010000  0  6 05 17 30 24 10 06
  20738454.745   -17858868.427 9 -13896319.74248  20738454.257    20738461.5644
  24991090.126    -5738128.537 7  -4452869.90145  24991089.709    24991107.0094
  21025082.037   -24872833.023 9 -19360110.48348  21025082.279    21025088.8614
  22129577.607    -1704403.109 9  -1312011.01947  22129577.422    22129585.8104
  21371043.021   -23665274.451 9 -18428128.07547  21371042.246    21371051.0424
  22797181.245   -18043483.942 8 -14041807.43846  22797181.150    22797189.9794
 01  4 21 19 27  0.0010000  0  6 05 17 30 24 10 06
  20745086.762   -17824017.255 9 -13869163.04548  20745086.266    20745093.5884
  24974332.913    -5826187.257 7  -4521486.80645  24974332.540    24974349.6454
  21018941.665   -24905100.917 9 -19385254.29748  21018941.939    21018948.5034
  22142678.826    -1635556.099 8  -1258364.07347  22142678.632    22142687.0574
  21361825.954   -23713710.093 9 -18465870.06847  21361825.186    21361833.9964
  22784657.814   -18109294.611 8 -14093088.41046  22784657.759    22784666.5534
 01  4 21 19 27 30.0010000  0  6 05 17 30 24 10 06
  20751819.857   -17788634.678 9 -13841592.26848  20751819.364    20751826.6894
  24957604.217    -5914095.665 7  -4589986.58645  24957603.841    24957621.1634
  21012905.159   -24936822.874 9 -19409972.70848  21012905.418    21012911.9984
  22155811.348    -1566544.383 9  -1204588.79647  22155811.181    22155819.6254
  21352714.350   -23761591.667 9 -18503180.31947  21352713.574    21352722.3904
  22772145.554   -18175046.808 8 -14144323.81946  22772145.472    22772154.2614
 01  4 21 19 28  0.0010000  0  6 05 17 30 24 10 06
  20758653.962   -17752721.535 9 -13813608.06448  20758653.473    20758660.8064
  24940904.232    -6001853.013 7  -4658368.65145  24940903.902    24940921.1824
  21006972.884   -24967997.232 9 -19434264.41848  21006973.145    21006979.7254
  22168974.919    -1497369.737 9  -1150686.55647  22168974.758    22168983.2124
  21343708.486   -23808917.389 9 -18540057.44247  21343707.719    21343716.5224
  22759644.438   -18240740.187 8 -14195513.40646  22759644.396    22759653.2114
 01  4 21 19 28 30.0010000  0  6 05 17 30 24 10 06
  20765588.795   -17716278.933 9 -13785211.29248  20765588.312    20765595.6444
  24924233.310    -6089458.588 7  -4726632.46945  24924232.913    24924250.2144
  21001144.974   -24998623.014 9 -19458128.66448  21001145.260    21001151.8484
  22182168.992    -1428034.779 9  -1096659.39647  22182168.814    22182177.2794
  21334808.730   -23855685.709 9 -18576500.22247  21334807.950    21334816.7444
  22747154.682   -18306374.192 8 -14246656.72646  22747154.633    22747163.3824
 01  4 21 19 29  0.0010000  0  6 05 17 30 24 10 06
  20772624.228   -17679307.810 9 -13756402.69248  20772623.752    20772631.0704
  24907591.417    -6176911.863 7  -4794777.59945  24907590.974    24907608.2014
  20995421.745   -25028698.910 9 -19481564.43248  20995422.012    20995428.6294
  22195393.155    -1358541.541 9  -1042508.89947  22195392.999    22195401.4804
  21326015.365   -23901894.922 9 -18612507.34347  21326014.588    21326023.3744
  22734676.317   -18371948.256 8 -14297753.34046  22734676.251    22734684.9694
 01  4 21 19 29 30.0010000  0  6 05 17 30 24 10 06
  20779760.039   -17641809.177 9 -13727183.04348  20779759.562    20779766.8824
  24890978.511    -6264212.084 7  -4862803.47545  24890978.065    24890995.2674
  20989803.351   -25058223.551 9 -19504570.64948  20989803.621    20989810.2754
  22208647.158    -1288891.600 9   -988236.30047  22208647.004    22208655.5124
  21317328.781   -23947542.873 9 -18648077.12647  21317328.021    21317336.7774
  22722209.459   -18437461.866 8 -14348802.85146  22722209.372    22722218.0984
 01  4 21 19 30  0.0010000  0  6 05 17 30 24 10 06
  20786996.012   -17603784.062 9 -13697553.14948  20786995.542    20787002.8814
  24874394.890    -6351358.345 7  -4930709.39345  24874394.446    24874411.5694
  20984290.165   -25087195.564 9 -19527146.25248  20984290.448    20984297.0984
  22221930.570    -1219086.961 9   -933843.15747  22221930.417    22221938.9294
  21308749.365   -23992627.863 9 -18683208.23947  21308748.610    21308757.3184
  22709754.324   -18502914.135 8 -14399804.56646  22709754.214    22709762.9004
 01  4 21 19 30 30.0010000  0  6 05 17 30 24 10 06
  20794332.284   -17565231.992 9 -13667512.64048  20794331.804    20794339.1784
  24857841.020    -6438348.764 8  -4998493.87145  24857840.546    24857857.6134
  20978882.697   -25115612.131 9 -19549289.03848  20978882.962    20978889.6254
  22235243.377    -1149128.313 8   -879330.00247  22235243.201    22235251.7324
  21300277.654   -24037146.791 9 -18717898.26047  21300276.885    21300285.5994
  22697311.113   -18568303.340 8 -14450757.12946  22697311.009    22697319.6614
 01  4 21 19 31  0.0010000  0  6 05 17 30 24 10 06
  20801768.164   -17526156.353 9 -13637064.15848  20801767.686    20801775.0974
  24841316.481    -6525184.678 7  -5066157.95945  24841316.015    24841333.0784
  20973580.669   -25143474.440 9 -19570999.93348  20973580.932    20973587.6194
  22248584.588    -1079019.967 8   -824700.20847  22248584.435    22248593.0074
  21291913.559   -24081100.199 9 -18752147.62347  21291912.806    21291921.5014
  22684879.650   -18633630.997 8 -14501661.74546  22684879.515    22684888.1844
 01  4 21 19 31 30.0010000  0  6 05 17 30 24 10 06
  20809303.886   -17486556.023 9 -13606206.82548  20809303.419    20809310.8404
  24824821.776    -6611863.386 7  -5133699.56645  24824821.404    24824838.4594
  20968384.761   -25170778.930 9 -19592276.16848  20968385.049    20968391.7264
  22261954.319    -1008761.857 9   -769953.71447  22261954.160    22261962.7694
  21283657.843   -24124484.146 9 -18785953.24747  21283657.071    21283665.7394
  22672460.402   -18698894.223 8 -14552516.15846  22672460.282    22672468.9214
 01  4 21 19 32  0.0010000  0  6 05 17 30 24 10 06
  20816939.241   -17446432.404 9 -13574941.74348  20816938.763    20816946.1934
  24808357.074    -6698384.423 7  -5201118.34845  24808356.722    24808373.7974
  20963295.244   -25197524.777 9 -19613117.10248  20963295.503    20963302.1824
  22275352.182     -938355.995 8   -715092.10347  22275352.014    22275360.6494
  21275510.767   -24167297.247 9 -18819314.07247  21275510.011    21275518.6474
  22660053.538   -18764092.617 8 -14603320.06546  22660053.461    22660062.0324
 01  4 21 19 32 30.0010000  0  6 05 17 30 24 10 06
  20824673.854   -17405786.942 9 -13543270.03348  20824673.368    20824680.8254
  24791922.527    -6784747.324 7  -5268413.92845  24791922.140    24791939.2014
  20958312.238   -25223710.714 9 -19633521.74248  20958312.512    20958319.1744
  22288777.742     -867804.392 8   -660116.93647  22288777.560    22288786.2654
  21267472.516   -24209538.365 9 -18852229.19647  21267471.726    21267480.3684
  22647659.095   -18829225.872 8 -14654073.21246  22647658.982    22647667.5424
 01  4 21 19 33  0.0010000  0  6 05 17 30 24 10 06
  20832507.543   -17364621.014 9 -13511192.75148  20832507.065    20832514.5254
  24775518.181    -6870951.748 7  -5335585.93945  24775517.727    24775534.7754
  20953435.899   -25249336.223 9 -19653489.67248  20953436.158    20953442.7904
  22302230.553     -797109.931 8   -605030.41947  22302230.367    22302239.0824
  21259543.379   -24251206.062 9 -18884697.48447  21259542.595    21259551.2274
  22635277.093   -18894293.688 8 -14704775.35246  22635276.924    22635285.5044
 01  4 21 19 33 30.0010000  0  6 05 17 30 24 10 06
  20840440.272   -17322934.725 9 -13478709.99948  20840439.774    20840447.2344
  24759144.332    -6956995.971 7  -5402633.14545  24759143.912    24759160.7284
  20948666.607   -25274399.040 9 -19673019.14648  20948666.850    20948673.4904
  22315710.488     -726272.885 8   -549832.81147  22315710.295    22315719.0114
  21251723.899   -24292297.644 9 -18916716.85947  21251723.118    21251731.7384
  22622907.801   -18959294.425 8 -14755425.23047  22622907.677    22622916.2354
 01  4 21 19 34  0.0010000  0  6 05 17 30 24 10 06
  20848471.735   -17280729.471 9 -13445822.85848  20848471.214    20848478.6654
  24742801.018    -7042879.590 7  -5469555.21545  24742800.637    24742817.2814
  20944004.616   -25298898.277 9 -19692109.47248  20944004.867    20944011.4714
  22329217.108     -655295.548 8   -494525.87947  22329216.905    22329225.6154
  21244014.259   -24332811.895 9 -18948286.36547  21244013.476    21244022.0944
  22610551.429   -19024227.576 8 -14806022.44147  22610551.271    22610559.8524
 01  4 21 19 34 30.0010000  0  6 05 17 30 24 10 06
  20856601.674   -17238006.624 9 -13412532.39648  20856601.165    20856608.6234
  24726488.366    -7128602.192 7  -5536351.79545  24726487.949    24726504.5784
  20939450.041   -25322832.813 9 -19710759.76648  20939450.270    20939456.8554
  22342749.992     -584180.282 8   -439111.46847  22342749.766    22342758.4854
  21236414.795   -24372747.309 9 -18979404.82847  21236414.006    21236422.5684
  22598208.065   -19089092.556 8 -14856566.53447  22598207.886    22598216.4254
 01  4 21 19 35  0.0010000  0  6 05 17 30 24 10 06
  20864829.787   -17194768.078 9 -13378840.09048  20864829.269    20864836.7404
  24710206.539    -7214163.593 7  -5603022.78145  24710205.971    24710222.5364
  20935002.998   -25346202.212 9 -19728969.68848  20935003.229    20935009.8234
  22356308.755     -512928.853 8   -383590.96547  22356308.540    22356317.2544
  21228925.686   -24412102.889 9 -19010071.46847  21228924.881    21228933.4204
  22585877.649   -19153889.395 8 -14907057.53247  22585877.462    22585885.9104
 01  4 21 19 35 30.0010000  0  6 05 17 30 24 10 06
  20873156.061   -17151013.603 9 -13344745.76548  20873155.525    20873162.9884
  24693955.616    -7299561.633 7  -5669566.48045  24693955.182    24693971.4974
  20930664.026   -25369003.810 9 -19746737.17748  20930664.243    20930670.8284
  22369893.183     -441542.475 8   -327965.30047  22369892.955    22369901.6704
  21221547.449   -24450875.558 9 -19040283.89247  21221546.639    21221555.1674
  22573560.554   -19218615.900 8 -14957493.71847  22573560.339    22573568.8044
 01  4 21 19 36  0.0010000  0  6 05 17 30 24 10 06
  20881580.122   -17106745.251 9 -13310251.01248  20881579.583    20881587.0704
  24677735.730    -7384796.776 7  -5735983.26045  24677735.130    24677751.5314
  20926433.082   -25391237.622 9 -19764062.22948  20926433.302    20926439.8564
  22383502.812     -370023.844 8   -272236.59147  22383502.563    22383511.2994
  21214280.180   -24489065.087 9 -19070041.92447  21214279.360    21214287.8714
  22561256.841   -19283272.302 8 -15007875.28447  22561256.607    22561265.0894
 01  4 21 19 36 30.0010000  0  6 05 17 30 24 10 06
  20890101.947   -17061962.962 9 -13275355.79048  20890101.404    20890108.9044
  24661547.306    -7469866.919 7  -5802271.46345  24661546.717    24661562.9534
  20922310.654   -25412901.255 9 -19780942.98848  20922310.876    20922317.4114
  22397137.501     -298373.341 8   -216405.11747  22397137.254    22397146.0204
  21207124.399   -24526668.698 9 -19099343.39847  21207123.594    21207132.0844
  22548966.833   -19347856.302 8 -15058200.42847  22548966.615    22548975.1154
 01  4 21 19 37  0.0010000  0  6 05 17 30 24 10 06
  20898721.128   -17016669.145 9 -13240061.97348  20898720.577    20898728.1004
  24645390.259    -7554772.659 8  -5868431.54745  24645389.642    24645405.6804
  20918296.621   -25433995.011 9 -19797379.68848  20918296.844    20918303.4014
  22410796.754     -226594.037 8   -160473.27447  22410796.498    22410805.2644
  21200080.278   -24563685.933 9 -19128187.95547  21200079.460    21200087.9364
  22536690.516   -19412368.552 8 -15108469.66547  22536690.314    22536698.7914
 01  4 21 19 37 30.0010000  0  6 05 17 30 24 10 06
  20907437.535   -16970864.449 9 -13204370.07548  20907436.982    20907444.5224
  24629264.660    -7639512.781 8  -5934462.55745  24629264.036    24629279.9934
  20914391.457   -25454516.865 9 -19813370.75148  20914391.688    20914398.2334
  22424480.220     -154687.309 8   -104442.14447  22424479.945    22424488.7344
  21193148.076   -24600114.714 9 -19156573.97347  21193147.250    21193155.7234
  22524428.077   -19476807.741 8 -15158681.98047  22524427.893    22524436.3654
 01  4 21 19 38  0.0010000  0  6 05 17 30 24 10 06
  20916250.826   -16924550.540 9 -13168281.38648  20916250.261    20916257.8394
  24613170.631    -7724086.741 7  -6000364.05945  24613169.957    24613185.9644
  20910595.300   -25474466.111 9 -19828915.63148  20910595.506    20910602.0424
  22438187.586      -82654.848 8    -48313.04647  22438187.306    22438196.1144
  21186328.035   -24635953.929 9 -19184500.59447  21186327.211    21186335.6974
  22512179.677   -19541173.332 8 -15208836.94347  22512179.492    22512187.9684
 01  4 21 19 38 30.0010000  0  6 05 17 30 24 10 06
  20925161.008   -16877727.455 9 -13131795.93548  20925160.453    20925168.0484
  24597108.571    -7808492.704 7  -6066134.65645  24597107.817    24597123.7674
  20906908.484   -25493840.612 9 -19844012.65548  20906908.678    20906915.2054
  22451918.788      -10497.345 8      7913.50447  22451918.530    22451927.3244
  21179620.731   -24671201.001 9 -19211965.80247  21179619.914    21179628.3894
  22499945.708   -19605463.236 8 -15258932.93247  22499945.532    22499953.9794
 01  4 21 19 39  0.0010000  0  6 05 17 30 24 10 06
  20934167.629   -16830397.647 9 -13094915.63648  20934167.088    20934174.6844
  24581078.225    -7892731.200 8  -6131774.76745  24581077.555    24581093.4484
  20903330.950   -25512640.619 9 -19858662.02148  20903331.155    20903337.6944
  22465673.114       61781.685 8     64234.73647  22465672.868    22465681.6664
  21173026.138   -24705855.573 9 -19238969.31847  21173025.320    21173033.7764
  22487726.075   -19669677.797 8 -15308970.21047  22487725.891    22487734.3054
 01  4 21 19 39 30.0010000  0  6 05 17 30 24 10 06
  20943270.627   -16782561.365 9 -13057640.68148  20943270.086    20943277.6984
  24565080.185    -7976800.435 8  -6197282.98745  24565079.540    24565095.3944
  20899863.166   -25530863.955 9 -19872862.03448  20899863.386    20899869.9274
  22479450.495      134181.878 8    120650.37847  22479450.230    22479459.0844
  21166544.777   -24739915.348 9 -19265509.35447  21166543.957    21166552.3914
  22475521.111   -19733815.079 8 -15358947.26947  22475520.931    22475529.3014
 01  4 21 19 40  0.0010000  0  6 05 17 30 24 10 06
  20952469.548   -16734220.882 9 -13019972.84448  20952469.017    20952476.6544
  24549114.216    -8060700.815 8  -6262659.64845  24549113.673    24549129.4864
  20896505.067   -25548510.800 9 -19886612.83448  20896505.300    20896511.8244
  22493250.428      206700.889 8    177158.61047  22493250.177    22493259.0664
  21160176.595   -24773380.086 9 -19291585.72747  21160175.775    21160184.2074
  22463330.793   -19797875.280 8 -15408864.26347  22463330.620    22463339.0334
 01  4 21 19 40 30.0010000  0  6 05 17 30 24 10 06
  20961764.270   -16685376.992 9 -12981912.74848  20961763.743    20961771.4204
  24533180.646    -8144431.087 8  -6327903.75145  24533180.123    24533195.8574
  20893257.011   -25565579.506 9 -19899913.13948  20893257.239    20893263.7744
  22507072.724      279337.361 8    233758.36347  22507072.488    22507081.4284
  21153922.052   -24806247.716 9 -19317196.81947  21153921.235    21153929.6574
  22451155.409   -19861856.889 8 -15458720.01447  22451155.259    22451163.6984
 01  4 21 19 41  0.0010000  0  6 05 17 30 24 10 06
  20971154.444   -16636031.438 9 -12943461.74248  20971153.922    20971161.6264
  24517279.567    -8227991.020 8  -6393015.12445  24517279.001    24517294.7654
  20890119.058   -25582069.440 9 -19912762.45148  20890119.291    20890125.8684
  22520917.000      352089.149 8    290447.97847  22520916.764    22520925.7004
  21147781.285   -24838517.392 9 -19342341.97747  21147780.466    21147788.8954
  22438995.060   -19925759.499 8 -15508514.20547  22438994.937    22439003.4054
 01  4 21 19 41 30.0010000  0  6 05 17 30 24 10 06
  20980639.840   -16586185.551 9 -12904620.87348  20980639.316    20980647.0624
  24501411.035    -8311379.880 8  -6457993.19145  24501410.437    24501426.1084
  20887091.421   -25597979.850 9 -19925160.19248  20887091.657    20887098.2304
  22534782.876      424954.601 8    347226.15747  22534782.625    22534791.6094
  21141754.602   -24870187.679 9 -19367020.08047  21141753.778    21141762.2074
  22426850.007   -19989582.049 8 -15558246.01147  22426849.865    22426858.3634
 01  4 21 19 42  0.0010000  0  6 05 17 30 24 10 06
  20990220.280   -16535840.391 9 -12865390.95548  20990219.753    20990227.5074
  24485575.182    -8394596.692 7  -6522837.20345  24485574.580    24485590.1984
  20884174.327   -25613309.416 9 -19937105.32648  20884174.567    20884181.1264
  22548670.003      497931.785 8    404091.40747  22548669.801    22548678.8344
  21135842.228   -24901257.042 9 -19391229.92947  21135841.412    21135849.8224
  22414720.424   -20053323.304 8 -15607914.46547  22414720.272    22414728.7554
 01  4 21 19 42 30.0010000  0  6 05 17 30 24 10 06
  20999895.487   -16484997.114 9 -12825772.89948  20999894.955    20999902.7374
  24469772.209    -8477640.536 7  -6587546.43245  24469771.681    24469787.2034
  20881367.960   -25628056.962 9 -19948596.94148  20881368.200    20881374.7754
  22562578.237      571019.669 8    461042.91047  22562578.012    22562587.0804
  21130044.575   -24931723.883 9 -19414970.28047  21130043.745    21130052.1214
  22402606.581   -20116982.038 8 -15657518.63247  22402606.419    22402614.8484
 01  4 21 19 43  0.0010000  0  6 05 17 30 24 10 06
  21009665.209   -16433657.193 9 -12785767.84648  21009664.682    21009672.4804
  24454002.170    -8560511.081 7  -6652120.63845  24454001.668    24454017.2694
  20878672.499   -25642221.966 9 -19959634.62848  20878672.716    20878679.2784
  22576507.237      644216.595 8    518079.37947  22576507.019    22576516.1164
  21124361.737   -24961587.236 9 -19438240.37747  21124360.919    21124369.2784
  22390508.517   -20180557.597 8 -15707057.96447  22390508.364    22390516.7414
 01  4 21 19 43 30.0010000  0  6 05 17 30 24 10 06
  21019529.040   -16381822.822 9 -12745377.51448  21019528.493    21019536.3334
  24438265.224    -8643207.955 7  -6716559.50445  24438264.662    24438280.3944
  20876087.913   -25655804.062 9 -19970218.10248  20876088.125    20876094.6864
  22590456.560      717520.278 8    575199.03747  22590456.302    22590465.4464
  21118793.892   -24990846.340 9 -19461039.63347  21118793.084    21118801.4104
  22378426.372   -20244049.592 8 -15756532.18947  22378426.238    22378434.5874
 01  4 21 19 44  0.0010000  0  6 05 17 30 24 10 06
  21029486.660   -16329495.586 9 -12704603.13348  21029486.110    21029493.9614
  24422561.481    -8725730.863 7  -6780862.81745  24422560.864    24422576.5884
  20873614.437   -25668802.435 9 -19980346.72948  20873614.647    20873621.2094
  22604425.850      790929.096 8    632400.62146  22604425.592    22604434.7764
  21113341.184   -25019500.348 9 -19483367.39247  21113340.359    21113348.6904
  22366360.285   -20307457.397 8 -15805940.81247  22366360.111    22366368.4324
 01  4 21 19 44 30.0010000  0  6 05 17 30 24 10 06
  21039537.875   -16276676.395 9 -12663445.40848  21039537.321    21039545.1884
  24406891.068    -8808078.529 7  -6845029.57945  24406890.371    24406905.9844
  20871252.279   -25681215.782 9 -19990019.49248  20871252.483    20871259.0474
  22618414.949      864441.880 8    689683.22046  22618414.717    22618423.8774
  21108003.997   -25047547.413 9 -19505222.20847  21108003.174    21108011.4774
  22354310.465   -20370779.324 8 -15855282.52447  22354310.293    22354318.5754
 01  4 21 19 45  0.0010000  0  6 05 17 30 24 10 06
  21049682.407   -16223366.900 9 -12621905.63348  21049681.848    21049689.7294
  24391254.055    -8890250.626 7  -6909059.56645  24391253.467    24391268.9454
  20869001.510   -25693043.665 9 -19999236.04848  20869001.721    20869008.2814
  22632423.445      938056.549 8    747045.19346  22632423.199    22632432.4164
  21102782.451   -25074986.585 9 -19526603.34547  21102781.648    21102789.9074
  22342277.120   -20434014.731 8 -15904556.81847  22342276.944    22342285.1984
 01  4 21 19 45 30.0010000  0  6 05 17 30 24 10 06
  21059919.989   -16169568.375 9 -12579984.79448  21059919.451    21059927.3414
  24375650.518    -8972246.338 7  -6972952.10745  24375650.069    24375665.4474
  20866862.360   -25704285.113 9 -20007995.64648  20866862.562    20866869.1494
  22646451.045     1011771.564 8    804485.36546  22646450.798    22646460.0174
  21097676.798   -25101816.727 9 -19547509.91247  21097676.003    21097684.2804
  22330260.489   -20497162.308 8 -15953762.67447  22330260.342    22330268.5974
 01  4 21 19 46  0.0010000  0  6 05 17 30 24 10 06
  21070250.414   -16115281.963 9 -12537683.78447  21070249.869    21070257.7924
  24360080.770    -9054064.647 7  -7036706.43545  24360080.288    24360095.6204
  20864835.003   -25714938.991 9 -20016297.39448  20864835.225    20864841.8274
  22660497.443     1085585.627 8    862002.72046  22660497.204    22660506.4344
  21092687.302   -25128036.441 9 -19567940.82147  21092686.507    21092694.7864
  22318260.810   -20560220.714 8 -16002899.04847  22318260.670    22318268.9254
 01  4 21 19 46 30.0010000  0  6 05 17 30 24 10 06
  21080673.193   -16060510.212 9 -12495004.58447  21080672.654    21080680.5974
  24344544.830    -9135705.822 8  -7100322.74245  24344544.363    24344559.5254
  20862919.415   -25725005.418 9 -20024141.38848  20862919.641    20862926.2624
  22674562.250     1159496.420 8    919595.45146  22674562.037    22674571.2354
  21087814.033   -25153645.670 9 -19587896.02747  21087813.241    21087821.4764
  22306278.165   -20623189.890 8 -16051965.89447  22306278.005    22306286.2264
 01  4 21 19 47  0.0010000  0  6 05 17 30 24 10 06
  21091188.012   -16005254.705 9 -12451948.43247  21091187.485    21091195.4564
  24329042.706    -9217169.367 8  -7163800.64145  24329042.235    24329057.2874
  20861115.736   -25734483.817 9 -20031527.17648  20861115.950    20861122.6224
  22688645.256     1233502.687 8    977262.58646  22688645.038    22688654.2274
  21083057.109   -25178643.347 9 -19607374.69847  21083056.304    21083064.5294
  22294312.691   -20686068.898 8 -16100962.47747  22294312.539    22294320.7234
 01  4 21 19 47 30.0010000  0  6 05 17 30 24 10 06
  21101794.726   -15949516.514 9 -12408516.17047  21101794.182    21101802.1714
  24313574.588    -9298454.062 8  -7227139.20345  24313574.143    24313589.0584
  20859424.195   -25743373.067 9 -20038453.89248  20859424.421    20859431.0954
  22702746.135     1307602.938 8   1035002.95146  22702745.906    22702755.1144
  21078416.795   -25203028.063 9 -19626375.74247  21078416.006    21078424.2434
  22282364.630   -20748856.219 8 -16149887.61847  22282364.470    22282372.6124
 01  4 21 19 48  0.0010000  0  6 05 17 30 24 10 06
  21112493.381   -15893295.065 9 -12364707.34447  21112492.845    21112500.8424
  24298141.026    -9379557.495 8  -7290336.50945  24298140.607    24298155.4194
  20857845.257   -25751670.550 9 -20044919.49348  20857845.474    20857852.1294
  22716865.018     1381797.565 8   1092816.85346  22716864.771    22716873.9704
  21073893.768   -25226796.539 9 -19644896.59947  21073892.988    21073901.2254
  22270434.557   -20811548.813 8 -16198738.94147  22270434.409    22270442.5674
 01  4 21 19 48 30.0010000  0  6 05 17 30 24 10 06
  21123282.840   -15836596.409 9 -12320526.66347  21123282.306    21123290.3224
  24282741.161    -9460483.418 8  -7353395.49945  24282740.749    24282755.4374
  20856378.220   -25759379.981 9 -20050926.86548  20856378.440    20856385.1194
  22731000.710     1456080.739 8   1150699.74846  22731000.476    22731009.6914
  21069487.350   -25249952.353 9 -19662940.05647  21069486.558    21069494.7784
  22258521.861   -20874149.983 8 -16247519.01647  22258521.706    22258529.8894
 01  4 21 19 49  0.0010000  0  6 05 17 30 24 10 06
  21134163.089   -15779420.775 9 -12275974.31147  21134162.554    21134170.5844
  24267375.517    -9541229.843 8  -7416314.62845  24267375.056    24267389.7464
  20855023.451   -25766499.449 9 -20056474.52748  20855023.668    20855030.3594
  22745153.214     1530452.171 8   1208651.41746  22745152.968    22745162.2174
  21065197.956   -25272493.343 9 -19680504.42447  21065197.137    21065205.3374
  22246627.084   -20936657.368 8 -16296226.01547  22246626.921    22246635.1094
 01  4 21 19 49 30.0010000  0  6 05 17 30 24 10 06
  21145134.172   -15721767.651 9 -12231049.89547  21145133.638    21145141.6804
  24252044.625    -9621793.844 8  -7479091.60545  24252044.169    24252058.7504
  20853781.513   -25773025.898 9 -20061560.10048  20853781.727    20853788.4334
  22759322.637     1604912.574 8   1266672.41046  22759322.379    22759331.6674
  21061026.092   -25294416.399 9 -19697587.28647  21061025.266    21061033.4684
  22234750.755   -20999067.534 8 -16344857.26347  22234750.593    22234758.7774
 01  4 21 19 50  0.0010000  0  6 05 17 30 24 10 06
  21156195.469   -15663640.724 9 -12185756.28047  21156194.921    21156202.9794
  24236748.058    -9702177.159 8  -7541727.78545  24236747.609    24236762.1504
  20852652.084   -25778961.378 9 -20066185.17448  20852652.289    20852659.0004
  22773508.340     1679458.579 8   1324760.11046  22773508.098    22773517.3974
  21056971.679   -25315722.494 9 -19714189.40047  21056970.852    21056979.0464
  22222892.748   -21061381.709 8 -16393413.71147  22222892.562    22222900.7334
 01  4 21 19 50 30.0010000  0  6 05 17 30 24 10 06
  21167346.849   -15605040.097 9 -12140093.54847  21167346.311    21167354.3934
  24221486.303    -9782377.703 8  -7604221.55645  24221485.815    24221500.3164
  20851635.512   -25784303.709 9 -20070348.05548  20851635.713    20851642.4054
  22787710.251     1754089.972 8   1382914.35046  22787710.017    22787719.3584
  21053035.042   -25336409.509 9 -19730309.11347  21053034.208    21053042.3894
  22211053.505   -21123597.334 9 -16441893.37347  22211053.338    22211061.4514
 01  4 21 19 51  0.0010000  0  6 05 17 30 24 10 06
  21178587.739   -15545969.148 9 -12094064.33247  21178587.209    21178595.3184
  24206259.142    -9862396.308 8  -7666573.54945  24206258.676    24206273.0374
  20850731.607   -25789053.782 9 -20074049.43848  20850731.829    20850738.5154
  22801927.846     1828803.427 8   1441132.53146  22801927.614    22801936.9564
  21049216.057   -25356478.341 9 -19745947.12447  21049215.222    21049223.3774
  22199232.914   -21185714.900 8 -16490296.61347  22199232.721    22199240.8134
 01  4 21 19 51 30.0010000  0  6 05 17 30 24 10 06
  21189917.991   -15486428.721 9 -12047669.29047  21189917.455    21189925.6074
  24191066.992    -9942231.523 8  -7728782.63445  24191066.503    24191080.8404
  20849940.697   -25793210.187 9 -20077288.22048  20849940.896    20849947.5894
  22816161.002     1903598.840 8   1499414.56646  22816160.771    22816170.1634
  21045515.065   -25375926.938 9 -19761101.84447  21045514.244    21045522.3804
  22187431.328   -21247732.247 8 -16538621.76847  22187431.161    22187439.2564
 01  4 21 19 52  0.0010000  0  6 05 17 30 24 10 06
  21201337.048   -15426421.470 9 -12000910.48647  21201336.500    21201344.6734
  24175909.388   -10021883.929 8  -7790849.26845  24175908.947    24175923.2984
  20849262.660   -25796773.478 9 -20080064.82948  20849262.866    20849269.5624
  22830409.334     1978473.795 8   1557758.58846  22830409.116    22830418.5474
  21041932.029   -25394755.690 9 -19775773.56347  21041931.214    21041939.3134
  22175648.880   -21309649.290 8 -16586868.76447  22175648.708    22175656.8114
 01  4 21 19 52 30.0010000  0  6 05 17 30 24 10 06
  21212845.010   -15365947.239 9 -11953787.80347  21212844.453    21212852.6454
  24160787.188   -10101351.044 8  -7852771.52145  24160786.726    24160801.0844
  20848697.878   -25799741.559 9 -20082377.64348  20848698.097    20848704.7974
  22844672.717     2053428.062 8   1616164.41446  22844672.502    22844681.9804
  21038467.437   -25412962.158 9 -19789960.38947  21038466.623    21038474.7284
  22163886.072   -21371463.098 8 -16635035.32147  22163885.921    22163893.9834
 01  4 21 19 53  0.0010000  0  6 05 17 30 24 10 06
  21224441.210   -15305009.033 9 -11906303.57947  21224440.655    21224448.8944
  24145700.028   -10180633.553 8  -7914549.92145  24145699.590    24145713.9164
  20848246.182   -25802115.225 9 -20084227.27748  20848246.389    20848253.1074
  22858950.753     2128459.240 8   1674630.16946  22858950.548    22858960.0584
  21035121.096   -25430547.045 9 -19803662.86847  21035120.289    21035128.3904
  22152142.886   -21433173.710 8 -16683121.45647  22152142.741    22152150.8354
 01  4 21 19 53 30.0010000  0  6 05 17 30 24 10 06
  21236125.470   -15243608.231 9 -11858458.89747  21236124.926    21236133.1624
  24130648.180   -10259730.645 8  -7976183.84645  24130647.771    24130662.0874
  20847907.769   -25803893.681 9 -20085613.11248  20847908.004    20847914.7154
  22873243.169     2203565.862 8   1733154.71946  22873242.923    22873252.4614
  21031893.302   -25447509.136 9 -19816880.05247  21031892.484    21031900.5874
  22140419.634   -21494779.560 8 -16731125.96647  22140419.487    22140427.5704
 01  4 21 19 54  0.0010000  0  6 05 17 30 24 10 06
  21247897.282   -15181747.306 9 -11810255.67447  21247896.737    21247905.0054
  24115631.599   -10338642.681 8  -8037673.58145  24115631.137    24115645.4604
  20847682.506   -25805077.538 9 -20086535.61948  20847682.740    20847689.4564
  22887549.606     2278746.215 8   1791736.71846  22887549.379    22887558.9024
  21028784.032   -25463848.411 9 -19829611.93247  21028783.206    21028791.2824
  22128716.311   -21556280.698 8 -16779048.88947  22128716.169    22128724.2214
 01  4 21 19 54 30.0010000  0  6 05 17 30 24 10 06
  21259756.358   -15119427.829 9 -11761695.14047  21259755.807    21259764.0934
  24100650.280   -10417368.921 8  -8099018.51945  24100649.888    24100664.1614
  20847570.500   -25805666.180 9 -20086994.31948  20847570.717    20847577.4624
  22901869.888     2353999.416 8   1850375.48346  22901869.605    22901879.2034
  21025793.390   -25479564.187 9 -19841857.96147  21025792.557    21025800.6214
  22117033.286   -21617675.439 8 -16826888.89447  22117033.127    22117041.1364
 01  4 21 19 55  0.0010000  0  6 05 17 30 24 10 06
  21271702.438   -15056650.957 9 -11712778.19747  21271701.887    21271710.2154
  24085704.644   -10495908.100 8  -8160217.70745  24085704.174    24085718.4504
  20847571.934   -25805658.657 9 -20086988.48148  20847572.176    20847578.9084
  22916203.699     2429323.862 8   1909069.76246  22916203.422    22916213.0464
  21022921.584   -25494655.444 9 -19853617.35847  21022920.765    21022928.8244
  22105370.836   -21678961.992 8 -16874644.60447  22105370.660    22105378.6224
 01  4 21 19 55 30.0010000  0  6 05 17 30 24 10 06
  21283735.043   -14993419.383 9 -11663506.94047  21283734.507    21283742.8554
  24070794.491   -10574260.707 8  -8221271.52045  24070794.056    24070808.2924
  20847686.706   -25805055.525 9 -20086518.53248  20847686.947    20847693.6864
  22930550.616     2504717.270 8   1967817.77746  22930550.380    22930560.0034
  21020168.612   -25509122.282 9 -19864890.19847  21020167.791    21020175.8464
  22093728.975   -21740140.279 8 -16922315.95047  22093728.780    22093736.7434
 01  4 21 19 56  0.0010000  0  6 05 17 30 24 10 06
  21295853.885   -14929734.823 9 -11613882.70747  21295853.347    21295861.7154
  24055919.997   -10652425.902 8  -8282179.29645  24055919.544    24055933.7934
  20847914.951   -25803856.256 9 -20085584.06048  20847915.199    20847921.9434
  22944910.509     2580178.670 8   2026618.76846  22944910.269    22944919.9354
  21017534.619   -25522964.043 9 -19875675.96447  21017533.804    21017541.8454
  22082107.987   -21801208.740 8 -16969901.72047  22082107.795    22082115.7934
 01  4 21 19 56 30.0010000  0  6 05 17 30 24 10 06
  21308058.652   -14865598.757 9 -11563906.65847  21308058.118    21308066.4914
  24041081.308   -10730402.988 8  -8342940.49245  24041080.847    24041095.1704
  20848256.709   -25802060.326 9 -20084184.66048  20848256.962    20848263.7154
  22959283.131     2655706.993 8   2085471.91446  22959282.899    22959292.5334
  21015019.712   -25536179.924 9 -19885974.03247  21015018.905    21015026.9304
  22070508.116   -21862166.016 8 -17017400.85347  22070507.955    22070515.9394
 01  4 21 19 57  0.0010000  0  6 05 17 30 24 10 06
  21320349.005   -14801013.123 9 -11513580.29647  21320348.470    21320356.8564
  24026278.531   -10808191.285 8  -8403554.58145  24026278.054    24026292.3684
  20848712.058   -25799667.489 9 -20082320.13948  20848712.307    20848719.0704
  22973668.264     2731300.650 8   2144375.97546  22973668.010    22973677.6274
  21012624.029   -25548769.199 9 -19895783.83647  21012623.214    21012631.2364
  22058929.696   -21923010.736 8 -17064812.28447  22058929.541    22058937.5194
 01  4 21 19 57 30.0010000  0  6 05 17 30 24 10 06
  21332724.300   -14735980.851 9 -11462905.90647  21332723.762    21332732.1864
  24011511.578   -10885791.595 8  -8464022.18445  24011511.097    24011525.3254
  20849280.815   -25796678.733 9 -20079991.26748  20849281.063    20849287.8424
  22988065.332     2806957.510 8   2203329.28246  22988065.114    22988074.7144
  21010347.413   -25560732.520 9 -19905105.88847  21010346.630    21010354.6574
  22047372.673   -21983742.900 9 -17112136.00947  22047372.551    22047380.5104
 01  4 21 19 58  0.0010000  0  6 05 17 30 24 10 06
  21345184.531   -14670502.185 9 -11411883.68147  21345183.996    21345192.4624
  23996780.657   -10963202.021 8  -8524341.84245  23996780.215    23996794.3654
  20849963.287   -25793092.374 9 -20077196.73248  20849963.541    20849970.3234
  23002474.361     2882677.550 8   2262331.82546  23002474.158    23002483.8764
  21008190.328   -25572068.040 9 -19913938.74647  21008189.533    21008197.5734
  22035837.662   -22044359.823 8 -17159369.93347  22035837.507    22035845.4284
 01  4 21 19 58 30.0010000  0  6 05 17 30 24 10 06
  21357729.133   -14604580.279 9 -11360516.07247  21357728.622    21357737.1294
  23982085.952   -11040422.971 8  -8584513.84445  23982085.458    23982099.5554
  20850759.310   -25788909.329 9 -20073937.25048  20850759.579    20850766.3604
  23016895.005     2958458.135 8   2321381.53146  23016894.775    23016904.5184
  21006152.537   -25582776.593 9 -19922283.05947  21006151.764    21006159.7714
  22024324.525   -22104861.350 8 -17206513.94047  22024324.358    22024332.3444
 01  4 21 19 59  0.0010000  0  6 05 17 30 24 10 06
  21370357.723   -14538217.047 9 -11308804.57847  21370357.199    21370365.7484
  23967427.357   -11117453.927 8  -8644537.80845  23967426.856    23967440.9844
  20851668.930   -25784129.492 9 -20070212.73848  20851669.180    20851675.9654
  23031327.084     3034298.498 8   2380477.82646  23031326.844    23031336.5544
  21004234.185   -25592857.609 9 -19930138.38047  21004233.392    21004241.4004
  22012833.652   -22165245.912 9 -17253566.80447  22012833.513    22012841.5244
 01  4 21 19 59 30.0010000  0  6 05 17 30 24 10 06
  21383069.892   -14471414.605 9 -11256750.83947  21383069.369    21383077.9334
  23952804.997   -11194294.729 8  -8704413.60946  23952804.528    23952818.4764
  20852692.075   -25778753.001 9 -20066023.30248  20852692.321    20852699.1054
  23045770.158     3110196.899 8   2439619.34246  23045769.945    23045779.6064
  21002435.248   -25602310.996 9 -19937504.64147  21002434.477    21002442.4684
  22001365.220   -22225512.873 8 -17300528.03747  22001365.082    22001373.0574
 01  4 21 20  0  0.0010000  0  6 05 17 30 24 10 06
  21395865.409   -14404174.159 9 -11204355.80147  21395864.881    21395873.4784
  23938218.988   -11270944.457 8  -8764140.51146  23938218.476    23938232.4084
  20853828.834   -25772779.483 9 -20061368.65548  20853829.065    20853835.8604
  23060224.048     3186152.152 8   2498805.17146  23060223.829    23060233.5274
  21000755.948   -25611136.010 9 -19944381.25847  21000755.150    21000763.1374
  21989919.525   -22285660.285 8 -17347396.10647  21989919.376    21989927.3294
 01  4 21 20  0 30.0010000  0  6 05 17 30 24 10 06
  21408743.674   -14336498.752 9 -11151621.83247  21408743.155    21408751.7864
  23923669.218   -11347403.402 8  -8823718.76146  23923668.709    23923682.5234
  20855079.084   -25766209.427 9 -20056249.17548  20855079.339    20855086.1514
  23074688.403     3262162.419 8   2558033.84846  23074688.156    23074697.9024
  20999196.069   -25619333.061 9 -19950768.55647  20999195.270    20999203.2894
  21978496.672   -22345687.697 9 -17394170.66647  21978496.504    21978504.4684
 01  4 21 20  1  0.0010000  0  6 05 17 30 24 10 06
  21421704.250   -14268390.936 9 -11098550.92447  21421703.733    21421712.3894
  23909155.752   -11423671.704 8  -8883148.45746  23909155.237    23909168.9534
  20856442.752   -25759043.344 9 -20050665.25648  20856443.005    20856449.8284
  23089162.788     3338225.834 8   2617303.94446  23089162.575    23089172.3874
  20997755.610   -25626902.503 9 -19956666.80647  20997754.817    20997762.8634
  21967096.748   -22405594.403 9 -17440851.17247  21967096.596    21967104.5634
 01  4 21 20  1 30.0010000  0  6 05 17 30 24 10 06
  21434747.032   -14199851.057 9 -11045143.34647  21434746.524    21434755.1904
  23894678.911   -11499747.149 8  -8942427.87145  23894678.399    23894692.0834
  20857920.132   -25751279.547 9 -20044615.58748  20857920.412    20857927.2544
  23103647.465     3414343.125 8   2676616.03546  23103647.288    23103657.0984
  20996434.906   -25633842.647 9 -19962074.69647  20996434.121    20996442.1474
  21955720.352   -22465377.582 9 -17487435.41847  21955720.221    21955728.1724
 01  4 21 20  2  0.0010000  0  6 05 17 30 24 10 06
  21447871.568   -14130881.524 9 -10991400.97447  21447871.068    21447879.7484
  23880238.699   -11575629.953 8  -9001557.16745  23880238.235    23880251.9584
  20859511.223   -25742918.557 9 -20038100.57348  20859511.501    20859518.3624
  23118142.062     3490512.258 8   2735968.50446  23118141.843    23118151.6654
  20995234.035   -25640153.297 9 -19966992.07147  20995233.252    20995241.2614
  21944367.658   -22525036.169 9 -17533922.57747  21944367.531    21944375.5034
 01  4 21 20  2 30.0010000  0  6 05 17 30 24 10 06
  21461077.556   -14061484.094 9 -10937325.18047  21461077.055    21461085.7704
  23865835.294   -11651319.420 8  -9060535.81245  23865834.876    23865848.5424
  20861215.970   -25733960.377 9 -20031120.22148  20861216.220    20861223.0744
  23132646.249     3566731.800 8   2795360.26346  23132646.012    23132655.8604
  20994152.944   -25645834.383 9 -19971418.88147  20994152.161    20994160.1724
  21933038.905   -22584569.036 9 -17580311.78047  21933038.783    21933046.6974
 01  4 21 20  3  0.0010000  0  6 05 17 30 24 10 06
  21474364.543   -13991661.244 9 -10882917.88447  21474364.037    21474372.7324
  23851468.721   -11726815.624 8  -9119363.85445  23851468.312    23851481.9324
  20863034.270   -25724405.512 9 -20023674.91548  20863034.502    20863041.3764
  23147159.711     3643000.147 8   2854790.05946  23147159.495    23147169.3414
  20993191.611   -25650886.353 9 -19975355.46147  20993190.816    20993198.8104
  21921734.313   -22643975.115 9 -17626602.18047  21921734.179    21921742.0734
 01  4 21 20  3 30.0010000  0  6 05 17 30 24 10 06
  21487732.083   -13921414.961 9 -10828180.64647  21487731.553    21487740.2504
  23837138.939   -11802118.143 8  -9178040.96845  23837138.492    23837152.0944
  20864966.014   -25714254.247 9 -20015764.88548  20864966.244    20864973.1464
  23161682.269     3719316.058 8   2914256.90446  23161682.051    23161691.8754
  20992349.985   -25655309.014 9 -19978801.67247  20992349.199    20992357.1594
  21910454.075   -22703253.111 9 -17672792.77747  21910453.919    21910461.8154
 01  4 21 20  4  0.0010000  0  6 05 17 30 24 10 06
  21501179.711   -13850747.877 9 -10773115.51047  21501179.163    21501187.9014
  23822845.946   -11877227.231 8  -9236567.36045  23822845.507    23822859.1444
  20867011.113   -25703507.229 9 -20007390.62848  20867011.359    20867018.2654
  23176213.447     3795677.610 8   2973759.31946  23176213.212    23176223.1124
  20991628.110   -25659102.542 9 -19981757.64647  20991627.319    20991635.2864
  21899198.326   -22762402.309 9 -17718883.01247  21899198.171    21899206.0574
 01  4 21 20  4 30.0010000  0  6 05 17 30 24 10 06
  21514707.170   -13779660.961 9 -10717723.23547  21514706.628    21514715.3944
  23808590.164   -11952141.328 8  -9294941.81945  23808589.686    23808603.3494
  20869169.831   -25692163.540 9 -19998551.43348  20869170.074    20869176.9504
  23190753.184     3872084.787 8   3033297.26846  23190753.026    23190763.0534
  20991026.110   -25662266.011 9 -19984222.66647  20991025.306    20991033.2524
  21887967.540   -22821420.137 9 -17764870.88347  21887967.386    21887975.2534
 01  4 21 20  5  0.0010000  0  6 05 17 30 24 10 06
  21528313.807   -13708158.056 9 -10662006.81547  21528313.259    21528322.0774
  23794371.253   -12026861.872 8  -9353165.44446  23794370.770    23794384.3264
  20871441.728   -25680224.892 9 -19989248.63248  20871441.951    20871448.8334
  23205301.229     3948534.851 8   3092868.65046  23205301.064    23205311.1474
  20990543.698   -25664800.960 9 -19986197.93147  20990542.899    20990550.8404
  21876761.662   -22880307.087 9 -17810756.77147  21876761.513    21876769.3634
 01  4 21 20  5 30.0010000  0  6 05 17 30 24 10 06
  21541999.397   -13636240.264 9 -10605967.10447  21541998.844    21542007.6834
  23780189.404   -12101387.321 8  -9411237.04946  23780188.878    23780202.4504
  20873826.949   -25667690.703 9 -19979481.77348  20873827.170    20873834.0594
  23219857.429     4025027.447 8   3152473.18946  23219857.238    23219867.3224
  20990181.036   -25666706.716 9 -19987682.91647  20990180.221    20990188.1584
  21865581.170   -22939060.881 9 -17856538.90647  21865581.003    21865588.8274
 01  4 21 20  6  0.0010000  0  6 05 17 30 24 10 06
  21555763.507   -13563909.881 9 -10549605.89847  21555762.966    21555771.8344
  23766044.783   -12175717.474 8  -9469156.49046  23766044.330    23766057.7544
  20876325.443   -25654561.242 9 -19969251.06348  20876325.660    20876332.5494
  23234421.372     4101561.170 8   3212109.75146  23234421.135    23234431.2634
  20989938.066   -25667983.405 9 -19988677.72347  20989937.269    20989945.1994
  21854426.240   -22997680.260 9 -17902216.30647  21854426.086    21854433.8834
 01  4 21 20  6 30.0010000  0  6 05 17 30 24 10 06
  21569605.748   -13491168.963 9 -10492924.79447  21569605.203    21569614.1154
  23751937.412   -12249851.935 8  -9526923.43346  23751936.956    23751950.2814
  20878937.162   -25640836.709 9 -19958556.66348  20878937.382    20878944.2884
  23248992.906     4178134.925 8   3271777.50146  23248992.687    23249002.8894
  20989814.828   -25668630.933 9 -19989182.27747  20989814.024    20989821.9784
  21843297.120   -23056163.870 9 -17947787.91247  21843296.980    21843304.7634
 01  4 21 20  7  0.0010000  0  6 05 17 30 24 10 06
  21583525.557   -13418020.193 9 -10435925.88347  21583525.026    21583533.9744
  23737867.173   -12323791.035 8  -9584538.15546  23737866.727    23737880.0144
  20881661.964   -25626517.720 9 -19947399.04848  20881662.176    20881669.1294
  23263571.707     4254746.754 8   3331474.93346  23263571.455    23263581.7094
  20989811.219   -25668649.796 9 -19989196.96147  20989810.427    20989818.3894
  21832194.012   -23114510.911 9 -17993253.09747  21832193.877    21832201.6544
 01  4 21 20  7 30.0010000  0  6 05 17 30 24 10 06
  21597522.673   -13344465.430 9 -10378610.61847  21597522.146    21597531.0884
  23723834.337   -12397533.914 8  -9641999.97846  23723833.871    23723847.0544
  20884499.833   -25611604.584 9 -19935778.46248  20884500.071    20884507.0654
  23278157.671     4331396.169 8   3391201.64146  23278157.437    23278167.6904
  20989927.297   -25668039.778 9 -19988721.61247  20989926.516    20989934.4784
  21821117.221   -23172719.757 9 -18038610.60947  21821117.075    21821124.8534
 01  4 21 20  8  0.0010000  0  6 05 17 30 24 10 06
  21611596.519   -13270507.538 9 -10320981.22647  21611595.983    21611604.9544
  23709838.704   -12471081.167 8  -9699309.35646  23709838.191    23709851.3284
  20887450.576   -25596098.521 9 -19923695.85548  20887450.809    20887457.8164
  23292750.350     4408080.891 8   3450955.86546  23292750.154    23292760.4234
  20990162.831   -25666802.040 9 -19987757.12947  20990162.033    20990169.9974
  21810066.810   -23230789.826 9 -18083859.98147  21810066.705    21810074.4494
 01  4 21 20  8 30.0010000  0  6 05 17 30 24 10 06
  21625746.889   -13196147.260 8 -10263038.29247  21625746.357    21625755.3804
  23695880.442   -12544431.163 8  -9756465.03446  23695879.974    23695893.1414
  20890514.275   -25579998.777 9 -19911150.64248  20890514.528    20890521.5434
  23307349.884     4484801.188 8   3510737.82046  23307349.617    23307359.8994
  20990517.967   -25664935.558 9 -19986302.72347  20990517.187    20990525.1614
  21799043.344   -23288718.473 9 -18128999.15647  21799043.216    21799050.9834
 01  4 21 20  9  0.0010000  0  6 05 17 30 24 10 06
  21639973.269   -13121387.616 8 -10204784.15747  21639972.748    21639981.8134
  23681959.792   -12617584.365 8  -9813467.36546  23681959.311    23681972.3934
  20893690.814   -25563306.067 9 -19898143.37648  20893691.069    20893698.1024
  23321955.775     4561555.083 8   3570545.94246  23321955.506    23321965.7824
  20990992.631   -25662441.188 9 -19984359.05347  20990991.839    20990999.8154
  21788046.925   -23346505.124 9 -18174027.68347  21788046.799    21788054.5354
 01  4 21 20  9 30.0010000  0  6 05 17 30 24 10 06
  21654275.190   -13046230.870 8 -10146220.59447  21654274.667    21654283.8024
  23668076.678   -12690540.174 8  -9870315.87046  23668076.132    23668089.2214
  20896980.067   -25546021.085 9 -19884674.60148  20896980.321    20896987.3744
  23336567.839     4638341.589 8   3630379.47346  23336567.551    23336577.8344
  20991586.756   -25659318.936 9 -19981926.12247  20991585.977    20991593.9444
  21777077.838   -23404148.010 9 -18218944.18747  21777077.683    21777085.4324
 01  4 21 20 10  0.0010000  0  6 05 17 30 24 10 06
  21668652.299   -12970679.115 8 -10087349.23947  21668651.784    21668660.9314
  23654231.111   -12763298.492 8  -9927010.50246  23654230.607    23654243.6384
  20900381.977   -25528144.084 9 -19870744.51448  20900382.227    20900389.2944
  23351185.825     4715159.453 8   3690237.43246  23351185.560    23351195.8724
  20992300.359   -25655569.012 9 -19979004.10247  20992299.573    20992307.5114
  21766136.337   -23461645.740 9 -18263747.58247  21766136.188    21766143.9544
 01  4 21 20 10 30.0010000  0  6 05 17 30 24 10 06
  21683104.173   -12894734.758 8 -10028171.95847  21683103.649    21683112.8034
  23640423.235   -12835858.778 8  -9983550.81246  23640422.686    23640435.7314
  20903896.497   -25509675.406 9 -19856353.38148  20903896.753    20903903.7994
  23365809.666     4792007.647 8   3750119.04646  23365809.426    23365819.6844
  20993133.360   -25651191.769 9 -19975593.26247  20993132.567    20993140.4944
  21755222.753   -23518997.001 9 -18308436.84847  21755222.593    21755230.3384
 01  4 21 20 11  0.0010000  0  6 05 17 30 24 10 06
  21697630.179   -12818400.499 8  -9968690.86147  21697629.663    21697638.8454
  23626652.891   -12908221.546 8 -10039937.22546  23626652.409    23626665.3574
  20907523.373   -25490616.274 9 -19841502.15648  20907523.622    20907530.6794
  23380438.951     4868884.502 8   3810022.96646  23380438.709    23380449.0314
  20994085.518   -25646188.159 9 -19971694.34847  20994084.727    20994092.6584
  21744337.148   -23576200.993 9 -18353011.35647  21744336.999    21744344.7594
 01  4 21 20 11 30.0010000  0  6 05 17 30 24 10 06
  21712230.216   -12741677.356 8  -9908906.73547  21712229.686    21712238.9224
  23612920.352   -12980385.444 8 -10096168.67646  23612919.866    23612932.8324
  20911262.629   -25470966.372 9 -19826190.58948  20911262.884    20911269.9834
  23395073.670     4945789.815 8   3869949.07946  23395073.447    23395083.7224
  20995156.956   -25640557.728 9 -19967306.99747  20995156.166    20995164.0534
  21733480.009   -23633255.301 9 -18397469.22647  21733479.845    21733487.6474
 01  4 21 20 12  0.0010000  0  6 05 17 30 24 10 06
  21726903.502   -12664569.095 8  -9848822.51847  21726902.988    21726912.2854
  23599225.563   -13052351.395 8 -10152245.87446  23599225.107    23599237.9604
  20915113.994   -25450727.440 9 -19810420.04548  20915114.268    20915121.3694
  23409713.370     5022721.327 8   3929895.58046  23409713.172    23409723.4114
  20996347.358   -25634301.977 9 -19962432.38147  20996346.562    20996354.4684
  21722651.402   -23690159.730 9 -18441810.30847  21722651.291    21722659.0874
 01  4 21 20 12 30.0010000  0  6 05 17 30 24 10 06
  21741649.732   -12587077.535 8  -9788439.63147  21741649.229    21741658.5814
  23585568.623   -13124118.490 8 -10208168.13646  23585568.221    23585580.9214
  20919077.519   -25429899.219 9 -19794190.31248  20919077.774    20919084.9274
  23424357.872     5099678.486 8   3989862.08746  23424357.675    23424367.9654
  20997656.853   -25627420.365 9 -19957070.08947  20997656.075    20997664.0034
  21711851.724   -23746912.229 9 -18486033.00747  21711851.608    21711859.4224
 01  4 21 20 13  0.0010000  0  6 05 17 30 24 10 06
  21756468.488   -12509204.963 8  -9727759.84547  21756467.980    21756477.3494
  23571949.531   -13195686.743 8 -10263935.45446  23571949.120    23571961.7744
  20923152.941   -25408482.731 9 -19777502.18848  20923153.212    20923160.3824
  23439006.929     5176659.772 8   4049847.38346  23439006.803    23439017.0954
  20999085.304   -25619913.688 9 -19951220.72247  20999084.526    20999092.4674
  21701081.133   -23803511.664 9 -18530136.42947  21701081.044    21701088.8564
 01  4 21 20 13 30.0010000  0  6 05 17 30 24 10 06
  21771359.340   -12430953.615 8  -9666784.91347  21771358.812    21771368.2084
  23558368.273   -13267055.948 8 -10319547.67446  23558367.821    23558380.5044
  20927340.220   -25386478.558 9 -19760356.12848  20927340.474    20927347.7004
  23453660.512     5253664.326 8   4109850.81246  23453660.329    23453670.6754
  21000632.610   -25611782.431 9 -19944884.67447  21000631.845    21000639.8084
  21690340.013   -23859956.605 9 -18574119.47147  21690339.910    21690347.7104
 01  4 21 20 14  0.0010000  0  6 05 17 30 24 10 06
  21786321.757   -12352326.164 8  -9605516.91247  21786321.253    21786330.6544
  23544824.871   -13338226.059 8 -10375004.73846  23544824.398    23544837.1034
  20931639.113   -25363887.758 9 -19742752.95948  20931639.397    20931646.6194
  23468318.307     5330690.747 8   4169871.28246  23468318.081    23468328.4714
  21002298.598   -25603027.426 9 -19938062.58547  21002297.842    21002305.8084
  21679628.559   -23916245.672 9 -18617981.04747  21679628.446    21679636.1984
 01  4 21 20 14 30.0010000  0  6 05 17 30 24 10 06
  21801355.455   -12273324.035 8  -9543956.96347  21801354.946    21801364.3984
  23531319.630   -13409195.938 8 -10430305.79846  23531319.147    23531331.8334
  20936049.718   -25340710.108 9 -19724692.50448  20936050.004    20936057.2264
  23482980.127     5407738.741 8   4229908.55046  23482979.921    23482990.3284
  21004083.430   -25593648.100 9 -19930754.01047  21004082.676    21004090.6554
  21668947.181   -23972376.691 9 -18661719.47147  21668947.070    21668954.7894
 01  4 21 20 15  0.0010000  0  6 05 17 30 24 10 06
  21816459.965   -12193949.807 8  -9482107.05647  21816459.469    21816468.9614
  23517852.378   -13479965.618 8 -10485450.85946  23517851.990    23517864.7024
  20940571.794   -25316946.558 9 -19706175.50548  20940572.074    20940579.3134
  23497645.774     5484807.167 8   4289961.74246  23497645.638    23497656.1024
  21005986.834   -25583645.562 9 -19922959.82047  21005986.088    21005994.0454
  21658296.133   -24028348.463 9 -18705333.79947  21658296.014    21658303.7024
 01  4 21 20 15 30.0010000  0  6 05 17 30 24 10 06
  21831634.752   -12114206.412 8  -9419969.49947  21831634.264    21831643.7564
  23504423.262   -13550535.398 8 -10540440.14446  23504422.926    23504435.6024
  20945205.134   -25292598.282 9 -19687202.88048  20945205.426    20945212.6754
  23512315.172     5561894.537 8   4350029.69046  23512314.972    23512325.4664
  21008008.619   -25573020.966 9 -19914680.91047  21008007.869    21008015.8594
  21647675.508   -24084160.007 9 -18748823.28347  21647675.386    21647683.0384
 01  4 21 20 16  0.0010000  0  6 05 17 30 24 10 06
  21846879.216   -12034097.083 8  -9357546.79347  21846878.720    21846888.1894
  23491032.161   -13620906.010 8 -10595274.24746  23491031.757    23491044.3264
  20949949.404   -25267667.186 9 -19667776.10248  20949949.702    20949956.9494
  23526987.722     5638998.732 8   4410110.75346  23526987.536    23526998.0034
  21010148.511   -25561775.646 9 -19905918.31747  21010147.758    21010155.7524
  21637085.476   -24139810.731 9 -18792187.44747  21637085.348    21637093.0114
 01  4 21 20 16 30.0010000  0  6 05 17 30 24 10 06
  21862193.146   -11953622.557 8  -9294839.52447  21862192.639    21862202.1384
  23477679.144   -13691075.497 8 -10649951.62446  23477678.771    23477691.2984
  20954804.787   -25242152.258 9 -19647894.39548  20954805.080    20954812.3454
  23541663.618     5716120.736 8   4470205.69146  23541663.435    23541673.8984
  21012406.786   -25549908.340 9 -19896671.06947  21012406.054    21012414.0434
  21626526.639   -24195297.523 9 -18835423.87547  21626526.547    21626534.1984
 01  4 21 20 17  0.0010000  0  6 05 17 30 24 10 06
  21877575.750   -11872786.760 8  -9231850.73947  21877575.250    21877584.8304
  23464364.242   -13761045.223 8 -10704473.34646  23464363.869    23464376.2834
  20959770.850   -25216055.859 9 -19627559.59048  20959771.122    20959778.3794
  23556342.294     5793257.460 8   4530312.11446  23556342.093    23556352.6594
  21014782.935   -25537421.597 9 -19886941.13447  21014782.179    21014790.1644
  21615999.022   -24250620.449 9 -18878532.61247  21615998.915    21616006.5984
 01  4 21 20 17 30.0010000  0  6 05 17 30 24 10 06
  21893027.078   -11791590.079 8  -9168580.75947  21893026.583    21893036.2214
  23451087.640   -13830813.105 8 -10758837.78146  23451087.321    23451099.7234
  20964847.718   -25189376.964 9 -19606770.89648  20964847.978    20964855.2394
  23571023.982     5870410.047 8   4590430.87346  23571023.800    23571034.4784
  21017277.204   -25524314.205 9 -19876727.58547  21017276.452    21017284.4174
  21605503.210   -24305776.186 9 -18921511.07347  21605503.092    21605510.7714
 01  4 21 20 18  0.0010000  0  6 05 17 30 24 10 06
  21908546.347   -11710036.414 8  -9105032.60447  21908545.869    21908555.5134
  23437849.351   -13900380.466 8 -10813045.96246  23437848.986    23437861.4104
  20970034.963   -25162118.067 9 -19585530.25348  20970035.237    20970042.4864
  23585708.228     5947575.988 8   4650560.04346  23585708.044    23585718.7884
  21019889.110   -25510588.536 9 -19866032.26347  21019888.344    21019896.2924
  21595039.243   -24360764.722 9 -18964359.25247  21595039.096    21595046.7384
 01  4 21 20 18 30.0010000  0  6 05 17 30 24 10 06
  21924133.039   -11628128.592 8  -9041208.49347  21924132.529    21924142.1774
  23424649.242   -13969747.407 8 -10867097.99046  23424648.843    23424661.2224
  20975332.398   -25134280.350 9 -19563838.58048  20975332.649    20975339.8984
  23600394.797     6024753.961 8   4710698.59546  23600394.577    23600405.3824
  21022618.542   -25496245.501 9 -19854855.88347  21022617.745    21022625.6794
  21584607.315   -24415584.758 9 -19007076.12847  21584607.197    21584614.8024
 01  4 21 20 19  0.0010000  0  6 05 17 30 24 10 06
  21939786.787   -11545868.480 8  -8977109.86447  21939786.272    21939795.9474
  23411487.395   -14038913.308 8 -10920993.35146  23411486.935    23411499.1844
  20980739.877   -25105864.023 9 -19541696.04348  20980740.126    20980747.3864
  23615083.541     6101943.394 8   4770846.07246  23615083.417    23615094.1644
  21025465.380   -25481285.255 9 -19843198.55547  21025464.594    21025472.5364
  21574207.837   -24470234.290 9 -19049660.14847  21574207.707    21574215.3114
 01  4 21 20 19 30.0010000  0  6 05 17 30 24 10 06
  21955506.928   -11463259.169 8  -8912739.13647  21955506.389    21955516.1584
  23398363.678   -14107878.761 8 -10974732.53346  23398363.171    23398375.2934
  20986257.169   -25076870.839 9 -19519104.00748  20986257.406    20986264.6564
  23629774.278     6179142.783 8   4831001.30746  23629774.167    23629784.8294
  21028429.413   -25465709.403 9 -19831061.53247  21028428.622    21028436.5394
  21563840.955   -24524712.594 9 -19092110.74047  21563840.824    21563848.4214
 01  4 21 20 20  0.0010000  0  6 05 17 30 24 10 06
  21971293.110   -11380302.484 8  -8848097.73547  21971292.591    21971302.4514
  23385278.276   -14176642.680 8 -11028314.67646  23385277.769    23385289.8564
  20991884.098   -25047301.266 9 -19496062.83848  20991884.351    20991891.6104
  23644466.805     6256351.552 8   4891163.85846  23644466.656    23644477.3454
  21031510.546   -25449517.951 9 -19818444.82247  21031509.769    21031517.6694
  21553507.072   -24579017.317 9 -19134426.07447  21553506.928    21553514.5414
 01  4 21 20 20 30.0010000  0  6 05 17 30 24 10 06
  21987145.194   -11296999.776 8  -8783186.69547  21987144.696    21987154.5864
  23372231.355   -14245204.076 8 -11081739.00246  23372230.872    23372242.9554
  20997620.785   -25017155.007 9 -19472572.30648  20997621.029    20997628.3184
  23659161.175     6333570.103 8   4951334.02646  23659160.964    23659171.6744
  21034708.873   -25432710.635 9 -19805348.21647  21034708.075    21034716.0124
  21543206.672   -24633146.054 9 -19176604.27547  21543206.528    21543214.1374
 01  4 21 20 21  0.0010000  0  7 05 17 30 24 10 06 15
  22003062.046   -11213356.872 8  -8718010.58047  22003061.517    22003071.4754
  23359222.325   -14313566.159 8 -11135008.02746  23359221.897    23359233.9324
  21003466.335   -24986436.640 9 -19448635.97748  21003466.583    21003473.8924
  23673856.439     6410793.959 8   5011508.32946  23673856.270    23673867.0534
  21038023.501   -25415292.081 9 -19791775.32747  21038022.710    21038030.6594
  21532939.401   -24687100.703 9 -19218646.82547  21532939.266    21532946.8784
  25014417.124    -4566277.339 7  -3035941.48645  25014416.560    25014435.6374
 01  4 21 20 21 30.0010000  0  7 05 17 30 24 10 06 15
  22019042.713   -11129378.691 8  -8652573.21347  22019042.184    22019052.1524
  23346250.856   -14381731.132 8 -11188123.45246  23346250.388    23346262.4774
  21009420.107   -24955149.699 9 -19424256.60648  21009420.341    21009427.6754
  23688552.050     6488019.642 8   5071684.05646  23688551.936    23688562.8014
  21041453.832   -25397265.508 9 -19777728.65047  21041453.055    21041461.0134
  21522705.074   -24740882.152 9 -19260554.41447  21522704.942    21522712.5774
  24997813.467    -4653529.151 7  -3103929.59345  24997812.885    24997832.0334
 01  4 21 20 22  0.0010000  0  7 05 17 30 24 10 06 15
  22035088.033   -11045060.497 8  -8586870.89147  22035087.536    22035097.5294
  23333318.241   -14449691.742 8 -11241079.63846  23333317.780    23333329.8904
  21015483.240   -24923287.787 9 -19399429.20648  21015483.493    21015490.8324
  23703249.211     6565253.429 8   5131866.09446  23703249.072    23703260.0304
  21045001.075   -25378624.663 9 -19763203.31747  21045000.299    21045008.2574
  21512505.425   -24794481.454 9 -19302320.06647  21512505.303    21512512.9374
  24981236.711    -4740638.990 7  -3171807.06645  24981236.171    24981255.3514
 01  4 21 20 22 30.0010000  0  7 05 17 30 24 10 06 15
  22051197.420   -10960405.581 8  -8520906.19747  22051196.934    22051207.0134
  23320424.474   -14517448.555 8 -11293877.03246  23320424.017    23320436.1094
  21021655.459   -24890852.823 9 -19374155.27348  21021655.710    21021663.0614
  23717947.689     6642493.746 8   5192053.21946  23717947.546    23717958.5574
  21048664.859   -25359371.275 9 -19748200.67947  21048664.083    21048672.0764
  21502340.621   -24847897.821 9 -19343943.18447  21502340.509    21502348.0964
  24964686.813    -4827607.351 7  -3239574.31145  24964686.158    24964705.5884
 01  4 21 20 23  0.0010000  0  7 05 17 30 24 10 06 15
  22067370.450   -10875416.525 8  -8454681.13947  22067369.947    22067380.0774
  23307569.469   -14585001.655 8 -11346515.69346  23307569.026    23307581.0184
  21027936.492   -24857846.038 9 -19348435.77148  21027936.742    21027944.1294
  23732647.218     6719739.657 8   5252244.70146  23732647.060    23732658.0534
  21052445.006   -25339506.284 9 -19732721.46247  21052444.216    21052452.2294
  21492210.872   -24901129.882 9 -19385422.67647  21492210.752    21492218.3644
  24948163.838    -4914433.740 7  -3307230.94245  24948163.277    24948182.7834
 01  4 21 20 23 30.0010000  0  7 05 17 30 24 10 06 15
  22083606.460   -10790096.613 8  -8388198.26047  22083605.948    22083616.1204
  23294753.111   -14652351.630 8 -11398996.07146  23294752.678    23294764.6504
  21034325.884   -24824269.845 9 -19322272.57348  21034326.149    21034333.5434
  23747347.371     6796988.981 8   5312438.85546  23747347.243    23747358.2414
  21056341.255   -25319031.434 9 -19716767.03847  21056340.459    21056348.4654
  21482116.276   -24954176.962 9 -19426758.03147  21482116.180    21482123.8114
  24931668.063    -5001118.307 7  -3374777.12445  24931667.516    24931686.9134
 01  4 21 20 24  0.0010000  0  7 05 17 30 24 10 06 15
  22099904.650   -10704449.701 8  -8321460.58847  22099904.145    22099914.3454
  23281975.125   -14719499.809 8 -11451319.19346  23281974.685    23281986.6214
  21040823.220   -24790126.271 9 -19295667.25848  21040823.471    21040830.8974
  23762047.852     6874239.888 8   5372634.24446  23762047.667    23762058.6834
  21060352.984   -25297949.540 9 -19700339.58747  21060352.202    21060360.2474
  21472056.923   -25007038.970 9 -19467949.17447  21472056.834    21472064.4954
  24915199.152    -5087662.126 7  -3442213.61245  24915198.507    24915217.9104
 01  4 21 20 24 30.0010000  0  7 05 17 30 24 10 06 15
  22116264.838   -10618476.980 8  -8254469.03947  22116264.338    22116274.5594
  23269235.817   -14786444.807 8 -11503484.00146  23269235.354    23269247.2754
  21047428.559   -24755415.209 9 -19268619.74948  21047428.828    21047436.2634
  23776748.661     6951492.737 8   5432831.13846  23776748.470    23776759.5204
  21064480.341   -25276259.959 9 -19683438.62247  21064479.574    21064487.6084
  21462033.373   -25059712.898 9 -19508993.76747  21462033.284    21462040.9194
  24898757.434    -5174063.181 7  -3509538.85145  24898756.760    24898775.9694
 01  4 21 20 25  0.0010000  0  7 05 17 30 24 10 06 15
  22132686.178   -10532182.992 8  -8187227.15647  22132685.680    22132695.9294
  23256534.770   -14853188.649 8 -11555492.06946  23256534.307    23256546.2354
  21054141.231   -24720140.275 9 -19241132.85448  21054141.501    21054148.9164
  23791449.210     7028744.481 8   5493027.17946  23791449.023    23791460.1554
  21068722.780   -25253965.949 9 -19666066.66647  21068722.017    21068730.0504
  21452045.527   -25112199.378 9 -19549892.29147  21452045.438    21452053.0624
  24882342.492    -5260323.276 7  -3576754.23645  24882341.874    24882360.9414
 01  4 21 20 25 30.0010000  0  7 05 17 30 24 10 06 15
  22149168.525   -10445568.384 8  -8119735.43847  22149168.020    22149178.3074
  23243872.402   -14919729.010 8 -11607341.58746  23243871.963    23243883.8934
  21060961.303   -24684300.701 9 -19213205.98748  21060961.580    21060969.0104
  23806149.855     7105996.531 8   5553223.45846  23806149.695    23806160.8384
  21073080.340   -25231066.646 9 -19648223.05847  21073079.581    21073087.6384
  21442094.056   -25164494.644 9 -19590641.82447  21442093.927    21442101.5474
  24865954.954    -5346439.624 7  -3643857.61445  24865954.348    24865973.3934
 01  4 21 20 26  0.0010000  0  7 05 17 30 24 10 06 15
  22165711.188   -10358636.521 8  -8051996.51047  22165710.697    22165721.0554
  23231248.659   -14986066.800 8 -11659033.24046  23231248.202    23231260.1094
  21067888.493   -24647898.341 9 -19184840.58248  21067888.784    21067896.2304
  23820850.152     7183246.599 8   5613418.18746  23820849.929    23820861.1794
  21077552.752   -25207563.883 9 -19629909.22747  21077551.994    21077560.0534
  21432179.131   -25216597.891 9 -19631241.73247  21432179.021    21432186.6224
  24849594.593    -5432412.668 7  -3710849.34245  24849594.075    24849612.8744
 01  4 21 20 26 30.0010000  0  7 05 17 30 24 10 06 15
  22182313.608   -10271390.827 8  -7984013.03747  22182313.134    22182323.5264
  23218663.297   -15052202.497 8 -11710567.42846  23218662.864    23218674.8174
  21074922.328   -24610935.429 9 -19156038.38548  21074922.615    21074930.0884
  23835549.855     7260493.611 8   5673610.54045  23835549.601    23835560.8574
  21082139.633   -25183459.756 9 -19611126.79947  21082138.869    21082146.9494
  21422300.844   -25268508.366 9 -19671691.42947  21422300.750    21422308.3444
  24833261.449    -5518242.912 7  -3777729.81145  24833260.902    24833279.5694
 01  4 21 20 27  0.0010000  0  7 05 17 30 24 10 06 15
  22198975.576   -10183832.510 8  -7915785.96347  22198975.069    22198985.4954
  23206116.696   -15118135.006 8 -11761943.28646  23206116.290    23206128.1004
  21082062.904   -24573411.846 9 -19126799.30148  21082063.191    21082070.6804
  23850249.037     7337737.771 8   5733800.68045  23850248.786    23850260.0464
  21086840.935   -25158754.251 9 -19591875.77147  21086840.184    21086848.2464
  21412459.805   -25320223.231 9 -19711988.70147  21412459.703    21412467.3164
  24816955.868    -5603928.512 7  -3844497.60145  24816955.280    24816973.8684
 01  4 21 20 27 30.0010000  0  7 05 17 30 24 10 06 15
  22215696.395   -10095964.801 8  -7847317.80647  22215695.883    22215706.3224
  23193608.619   -15183864.918 8 -11813161.28446  23193608.169    23193619.9164
  21089309.731   -24535329.689 9 -19097124.96548  21089310.024    21089317.5284
  23864947.380     7414977.673 8   5793987.48445  23864947.142    23864958.3844
  21091656.339   -25133449.263 9 -19572157.61347  21091655.581    21091663.6434
  21402656.172   -25371741.666 9 -19752132.90947  21402656.070    21402663.6674
  24800677.649    -5689469.814 7  -3911152.93645  24800677.188    24800695.6424
 01  4 21 20 28  0.0010000  0  7 05 17 30 24 10 06 15
  22232475.496   -10007790.637 8  -7778610.85547  22232474.997    22232485.5034
  23181139.073   -15249392.540 8 -11864221.65146  23181138.582    23181150.2804
  21096662.546   -24496690.854 9 -19067016.85548  21096662.824    21096670.3334
  23879644.676     7492211.922 8   5854169.89345  23879644.466    23879655.7554
  21096585.540   -25107546.267 9 -19551973.47947  21096584.778    21096592.8174
  21392890.150   -25423062.497 9 -19792123.14147  21392890.010    21392897.5864
  24784426.908    -5774866.798 7  -3977695.80345  24784426.659    24784444.7594
 01  4 21 20 28 30.0010000  0  7 05 17 30 24 10 06 15
  22249312.602    -9919311.975 8  -7709666.63747  22249312.112    22249322.6664
  23168708.099   -15314717.215 8 -11915123.88346  23168707.568    23168719.3364
  21104121.119   -24457496.019 9 -19036475.50348  21104121.381    21104128.9134
  23894340.808     7569440.215 8   5914347.65045  23894340.542    23894352.0264
  21101628.328   -25081046.253 9 -19531324.13847  21101627.557    21101635.6064
  21383162.152   -25474183.443 9 -19831957.62647  21383162.005    21383169.5684
  24768203.968    -5860118.270 8  -4044125.29945  24768203.519    24768221.7154
 01  4 21 20 29  0.0010000  0  7 05 17 30 24 10 06 15
  22266207.160    -9830531.239 8  -7640487.03647  22266206.636    22266217.2674
  23156315.736   -15379838.695 8 -11965867.76146  23156315.227    23156327.0274
  21111685.318   -24417746.343 9 -19005501.80448  21111685.584    21111693.1014
  23909035.742     7646662.122 8   5974520.42546  23909035.549    23909047.0804
  21106784.606   -25053949.920 9 -19510210.13547  21106783.848    21106791.8914
  21373472.551   -25525102.556 9 -19871634.83447  21373472.443    21373479.9694
  24752008.838    -5945223.645 7  -4110440.98245  24752008.292    24752026.3884
 01  4 21 20 29 30.0010000  0  7 05 17 30 24 10 06 15
  22283158.568    -9741451.553 8  -7571074.49047  22283158.060    22283168.7514
  23143961.999   -15444757.497 8 -12016453.71746  23143961.499    23143973.2584
  21119354.735   -24377443.769 9 -18974097.27648  21119354.985    21119362.5084
  23923729.245     7723876.189 8   6034687.10646  23923728.986    23923740.5894
  21112053.990   -25026259.224 9 -19488632.98647  21112053.229    21112061.2694
  21363821.568   -25575818.853 9 -19911154.00347  21363821.464    21363828.9634
  24735841.451    -6030182.893 7  -4176642.76545  24735840.745    24735858.8674
 01  4 21 20 30  0.0010000  0  7 05 17 30 24 10 06 15
  22300166.456    -9652075.236 8  -7501430.81446  22300165.946    22300176.6904
  23131646.874   -15509473.378 8 -12066881.54746  23131646.365    23131658.0864
  21127129.046   -24336589.694 9 -18942263.01048  21127129.293    21127136.8234
  23938421.150     7801081.868 8   6094847.24446  23938420.866    23938432.5084
  21117436.268   -24997975.392 9 -19466593.65747  21117435.493    21117443.5124
  21354209.530   -25626330.417 9 -19950513.63947  21354209.399    21354216.9054
  24719702.028    -6114995.378 7  -4242730.22445  24719701.238    24719719.5464
 01  4 21 20 30 30.0010000  0  7 05 17 30 24 10 06 15
  22317230.224    -9562405.491 8  -7431558.48146  22317229.713    22317240.4734
  23119370.284   -15573986.815 8 -12117151.62546  23119369.834    23119381.4194
  21135007.949   -24295186.216 9 -18910000.63347  21135008.198    21135015.7114
  23953111.136     7878278.016 8   6154999.95646  23953110.837    23953122.6194
  21122931.030   -24969100.499 9 -19444093.75747  21122930.240    21122938.2244
  21344636.616   -25676636.429 9 -19989713.10247  21344636.476    21344643.9564
  24703590.449    -6199661.436 8  -4308703.57245  24703589.641    24703607.7844
 01  4 21 20 31  0.0010000  0  7 05 17 30 24 10 06 15
  22334349.467    -9472444.259 8  -7361459.02546  22334348.942    22334359.7284
  23107132.408   -15638297.050 8 -12167263.36846  23107131.926    23107143.4594
  21142991.316   -24253233.764 9 -18877310.49147  21142991.551    21142999.0644
  23967799.307     7955464.469 8   6215145.10345  23967799.088    23967810.8064
  21128538.135   -24939635.052 9 -19421133.69147  21128537.348    21128545.3284
  21335103.309   -25726734.392 9 -20028750.46447  21335103.156    21335110.5954
  24687507.042    -6284179.943 7  -4374561.93545  24687506.235    24687524.1764
 01  4 21 20 31 30.0010000  0  8 05 17 30 24 10 06 15 23
  22351522.600    -9382199.848 8  -7291138.91246  22351522.073    22351532.8984
  23094932.133   -15702409.726 8 -12217221.18146  23094931.642    23094943.0844
  21151077.737   -24210739.775 9 -18844198.36947  21151077.953    21151085.4844
  23982484.385     8032634.360 8   6275277.34845  23982484.152    23982495.8394
  21134256.298   -24909585.990 9 -19397718.85947  21134255.509    21134263.4644
  21325608.779   -25776628.258 9 -20067628.77947  21325608.628    21325616.0474
  24671450.744    -6368555.918 7  -4440309.21345  24671449.891    24671467.7104
  24830413.860     -503030.89644                  24830413.552    24830435.9434
 01  4 21 20 32  0.0010000  0  8 05 17 30 24 10 06 15 23
  22368749.871    -9291670.606 8  -7220596.85446  22368749.337    22368760.2334
  23082770.155   -15766320.812 8 -12267021.89446  23082769.661    23082781.0674
  21159267.707   -24167701.491 9 -18810662.12047  21159267.924    21159275.4724
  23997167.038     8109791.825 8   6335399.91245  23997166.787    23997178.5534
  21140086.102   -24878950.490 9 -19373847.06247  21140085.303    21140093.2354
  21316154.238   -25826312.273 9 -20106343.57347  21316154.094    21316161.4684
  24655422.329    -6452784.656 7  -4505941.76845  24655421.647    24655439.4894
  24809973.789    -1159855.408 7   -586727.27245  24809971.394    24809995.4924
 01  4 21 20 32 30.0010000  0  8 05 17 30 24 10 06 15 23
  22386030.975    -9200858.440 8  -7149834.33346  22386030.453    22386041.4184
  23070646.769   -15830029.325 8 -12316664.76646  23070646.274    23070657.6594
  21167561.045   -24124119.875 9 -18776702.49447  21167561.272    21167568.8594
  24011847.212     8186936.640 8   6395512.62345  24011847.024    24011858.8604
  21146027.248   -24847729.635 9 -19349519.14247  21146026.450    21146034.3634
  21306740.084   -25875783.995 9 -20144892.94547  21306739.931    21306747.3264
  24639422.154    -6536865.088 7  -4571458.75845  24639421.484    24639439.2864
  24789547.971    -1267192.445 7   -670365.94845  24789546.984    24789570.5424
 01  4 21 20 33  0.0010000  0  8 05 17 30 24 10 06 15 23
  22403366.081    -9109762.457 8  -7078850.66646  22403365.552    22403376.6224
  23058562.624   -15893531.682 8 -12366147.00046  23058562.110    23058573.4274
  21175958.173   -24079992.873 9 -18742317.89547  21175958.409    21175966.0304
  24026525.588     8264071.610 8   6455617.65845  24026525.402    24026537.2654
  21152080.256   -24815920.911 9 -19324733.14047  21152079.440    21152087.3764
  21297367.325   -25925038.005 9 -20183272.67447  21297367.189    21297374.5724
  24623450.877    -6620793.387 7  -4636857.18545  24623450.111    24623467.9994
  24769137.459    -1374449.358 7   -753942.16645  24769136.135    24769159.2224
 01  4 21 20 33 30.0010000  0  8 05 17 30 24 10 06 15 23
  22420754.458    -9018386.740 8  -7007649.02046  22420753.905    22420765.0154
  23046517.319   -15956829.422 8 -12415469.78446  23046516.809    23046528.1544
  21184458.542   -24035323.422 9 -18707510.60947  21184458.784    21184466.4454
  24041201.686     8341194.509 8   6515713.29345  24041201.442    24041213.3754
  21158244.517   -24783527.643 9 -19299491.66147  21158243.693    21158251.6454
  21288036.006   -25974074.258 9 -20221482.72547  21288035.870    21288043.2724
  24607508.431    -6704570.690 7  -4702137.98145  24607507.708    24607525.4484
  24748742.106    -1481625.438 7   -837455.36045  24748741.053    24748763.9144
 01  4 21 20 34  0.0010000  0  8 05 17 30 24 10 06 15 23
  22438195.439    -8926734.571 8  -6936231.96846  22438194.901    22438206.0404
  23034510.794   -16019923.416 8 -12464633.80946  23034510.311    23034521.6364
  21193061.605   -23990114.137 9 -18672282.66847  21193061.858    21193069.5304
  24055875.204     8418303.916 8   6575798.42445  24055875.094    24055886.8254
  21164519.529   -24750552.112 9 -19273796.46947  21164518.719    21164526.6744
  21278746.283   -26022892.051 9 -20259522.54347  21278746.131    21278753.5254
  24591594.632    -6788197.348 7  -4767301.38445  24591593.745    24591611.5924
  24728362.390    -1588718.924 7   -920904.24745  24728361.442    24728384.5834
 01  4 21 20 34 30.0010000  0  8 05 17 30 24 10 06 15 23
  22455688.285    -8834809.897 8  -6864602.56346  22455687.741    22455698.9304
  23022542.816   -16082814.887 8 -12513640.02446  23022542.385    23022553.6854
  21201766.914   -23944367.784 9 -18636636.23947  21201767.162    21201774.8604
  24070545.752     8495397.761 8   6635871.40845  24070545.568    24070557.4004
  21170904.897   -24716996.892 9 -19247649.56847  21170904.088    21170912.0774
  21269498.187   -26071491.040 9 -20297391.86547  21269498.033    21269505.4254
  24575709.257    -6871674.303 7  -4832348.08345  24575708.501    24575726.3224
  24707998.649    -1695728.563 7  -1004287.80445  24707997.710    24708021.0134
 01  4 21 20 35  0.0010000  0  8 05 17 30 24 10 06 15 23
  22473232.770    -8742613.765 8  -6792761.64046  22473232.255    22473243.4614
  23010613.750   -16145502.190 8 -12562487.15846  23010613.304    23010624.5374
  21210574.332   -23898084.528 9 -18600571.44247  21210574.585    21210582.3334
  24085213.533     8572476.420 8   6695932.55945  24085213.383    24085225.1094
  21177400.511   -24682862.249 9 -19221051.17747  21177399.711    21177407.7134
  21260292.367   -26119867.731 9 -20335087.97047  21260292.226    21260299.6354
  24559852.854    -6954999.293 7  -4897276.39945  24559852.208    24559869.9044
  24687651.526    -1802650.506 7  -1087603.01545  24687650.476    24687673.9104
 01  4 21 20 35 30.0010000  0  8 05 17 30 24 10 06 15 23
  22490828.029    -8650150.833 8  -6720712.83346  22490827.494    22490838.8124
  22998723.151   -16207987.428 8 -12611176.83646  22998722.696    22998733.8824
  21219483.295   -23851268.003 9 -18564091.11547  21219483.547    21219491.3174
  24099877.977     8649537.797 8   6755980.25845  24099877.811    24099889.5454
  21184005.758   -24648151.516 9 -19194003.88747  21184004.949    21184012.9664
  21251128.807   -26168022.416 9 -20372611.08747  21251128.670    21251136.0804
  24544025.061    -7038174.105 7  -4962087.68645  24544024.426    24544041.9554
  24667321.367    -1909484.359 7  -1170849.58545  24667320.370    24667343.6014
 01  4 21 20 36  0.0010000  0  8 05 17 30 24 10 06 15 23
  22508473.573    -8557423.474 8  -6648457.96746  22508473.098    22508484.4544
  22986870.969   -16270270.353 8 -12659708.87146  22986870.521    22986881.7124
  21228493.448   -23803919.703 9 -18527196.41847  21228493.689    21228501.4654
  24114539.094     8726581.536 8   6816014.22745  24114538.942    24114550.6484
  21190720.382   -24612865.984 9 -19166508.69647  21190719.590    21190727.5844
  21242007.889   -26215953.176 9 -20409959.71047  21242007.744    21242015.1684
  24528225.948    -7121198.150 8  -5026781.49645  24528225.343    24528242.7364
  24647008.463    -2016227.476 7  -1254025.47645  24647007.612    24647030.6764
 01  4 21 20 36 30.0010000  0  8 05 17 30 24 10 06 15 23
  22526169.080    -8464433.901 8  -6575998.79146  22526168.587    22526179.9784
  22975057.435   -16332350.349 8 -12708082.79146  22975056.949    22975068.1924
  21237604.559   -23756040.874 9 -18489888.31947  21237604.802    21237612.5924
  24129196.759     8803607.374 8   6876034.23445  24129196.545    24129208.2444
  21197544.163   -24577006.904 9 -19138566.58747  21197543.386    21197551.3684
  21232929.956   -26263657.762 9 -20447132.09747  21232929.839    21232937.2494
  24512455.808    -7204070.417 8  -5091357.03745  24512455.131    24512472.4254
  24626713.529    -2122876.667 7  -1337128.19045  24626712.663    24626735.4314
 01  4 21 20 37  0.0010000  0  8 05 17 30 24 10 06 15 23
  22543914.037    -8371184.474 8  -6503337.12746  22543913.523    22543924.9624
  22963282.500   -16394227.296 8 -12756298.50046  22963282.031    22963293.2984
  21246816.347   -23707632.994 9 -18452167.97547  21246816.575    21246824.3654
  24143850.873     8880614.946 8   6936040.00045  24143850.660    24143862.4414
  21204476.906   -24540575.377 9 -19110178.41847  21204476.107    21204484.1074
  21223895.538   -26311134.229 9 -20484126.72947  21223895.383    21223902.7654
  24496714.581    -7286790.186 7  -5155813.75045  24496713.888    24496731.2084
  24606436.848    -2229429.300 7  -1420155.66745  24606436.049    24606458.6784
 01  4 21 20 37 30.0010000  0  8 05 17 30 24 10 06 15 23
  22561707.861    -8277678.320 8  -6430475.41746  22561707.354    22561718.7804
  22951546.179   -16455901.567 8 -12804356.27346  22951545.716    22951556.9314
  21256128.346   -23658698.400 9 -18414037.20547  21256128.578    21256136.3854
  24158501.314     8957602.938 8   6996030.50545  24158501.107    24158512.9514
  21211518.104   -24503573.663 9 -19081345.95147  21211517.312    21211525.3414
  21214904.668   -26358381.411 9 -20520942.70047  21214904.507    21214911.8884
  24481002.280    -7369357.926 8  -5220151.96945  24481001.646    24481018.9434
  24586178.823    -2335883.675 7  -1503106.59445  24586178.164    24586200.6394
 01  4 21 20 38  0.0010000  0  8 05 17 30 24 10 06 15 23
  22579549.719    -8183919.884 8  -6357417.14346  22579549.163    22579560.6314
  22939848.155   -16517374.914 8 -12852257.48746  22939847.704    22939858.8344
  21265539.972   -23609240.308 9 -18375498.51147  21265540.203    21265548.0264
  24173147.682     9034569.531 8   7056004.36145  24173147.448    24173159.3454
  21218667.126   -24466005.249 9 -19052071.89447  21218666.343    21218674.3894
  21205957.487   -26405399.063 9 -20557579.81947  21205957.331    21205964.7214
  24465318.695    -7451774.859 8  -5284372.71045  24465318.043    24465335.2914
  24565939.585    -2442238.862 7  -1585980.23145  24565939.015    24565961.4544
 01  4 21 20 38 30.0010000  0  8 05 17 30 24 10 06 15 23
  22597439.528    -8089909.113 8  -6284162.23946  22597439.008    22597450.5004
  22928188.821   -16578644.799 8 -12900000.15746  22928188.375    22928199.4624
  21275051.379   -23559257.905 9 -18336551.26947  21275051.618    21275059.4494
  24187790.220     9111516.491 8   7115962.89145  24187790.022    24187801.9574
  21225924.247   -24427869.097 9 -19022355.44947  21225923.459    21225931.4994
  21197054.831   -26452182.960 9 -20594034.79447  21197054.674    21197062.0394
  24449664.472    -7534037.871 8  -5348473.50745  24449663.721    24449680.9444
  24545720.243    -2548489.788 7  -1668772.62645  24545719.753    24545742.0964
 01  4 21 20 39  0.0010000  0  9 05 17 30 26 24 10 06 15 23
  22615376.100    -7995652.781 8  -6210715.99746  22615375.591    22615387.1694
  22916567.418   -16639715.243 8 -12947587.42346  22916566.941    22916578.0554
  21284661.461   -23508756.857 9 -18297199.88947  21284661.705    21284669.5484
  24571700.400    -6351989.371 7  -2401496.20445  24571700.396    24571722.9134
  24202428.146     9188439.017 8   7175902.38545  24202427.967    24202439.9834
  21233288.268   -24389170.929 9 -18992201.06547  21233287.471    21233295.5454
  21188196.167   -26498735.440 9 -20630309.44247  21188196.007    21188203.3554
  24434038.754    -7616150.629 8  -5412457.22945  24434038.028    24434055.2124
  24525520.461    -2654638.229 7  -1751485.17445  24525519.927    24525542.1654
 01  4 21 20 39 30.0010000  0  9 05 17 30 26 24 10 06 15 23
  22633359.432    -7901150.840 8  -6137078.37246  22633358.891    22633370.5354
  22904984.396   -16700583.915 8 -12995017.46746  22904983.950    22904995.0674
  21294370.263   -23457737.032 9 -18257444.26347  21294370.504    21294378.3834
  24555072.943    -6439365.896 7  -2469581.40245  24555073.047    24555095.3474
  24217061.886     9265338.856 8   7235824.21945  24217061.637    24217073.5534
  21240759.375   -24349910.108 9 -18961608.24747  21240758.579    21240766.6534
  21179382.299   -26545052.428 9 -20666400.58947  21179382.139    21179389.5024
  24418442.024    -7698110.395 7  -5476321.74945  24418441.316    24418458.5124
  24505341.140    -2760679.258 7  -1834114.03845  24505340.626    24505362.7104
 01  4 21 20 40  0.0010000  0  9 05 17 30 26 24 10 06 15 23
  22651389.226    -7806404.590 8  -6063250.38246  22651388.679    22651400.3984
  22893440.089   -16761249.235 8 -13042289.05246  22893439.671    22893450.7214
  21304177.822   -23406198.194 9 -18217284.21447  21304178.074    21304185.9854
  24538446.362    -6526737.573 7  -2537662.82945  24538446.448    24538468.5944
  24231691.406     9342217.300 8   7295729.36845  24231691.219    24231703.1444
  21248337.537   -24310086.773 9 -18930577.11347  21248336.743    21248344.8174
  21170613.918   -26591130.607 9 -20702305.65247  21170613.749    21170621.1274
  24402874.792    -7779915.125 8  -5540065.45045  24402874.172    24402891.2644
  24485182.998    -2866608.958 7  -1916656.16045  24485182.462    24485204.4564
 01  4 21 20 40 30.0010000  0  9 05 17 30 26 24 10 06 15 23
  22669465.053    -7711416.452 8  -5989233.90646  22669464.506    22669476.2964
  22881934.607   -16821710.918 8 -13089401.95946  22881934.167    22881945.1694
  21314083.834   -23354142.125 9 -18176721.12347  21314084.077    21314092.0344
  24521821.303    -6614101.087 7  -2605737.88045  24521821.357    24521843.3634
  24246316.853     9419074.044 8   7355617.61645  24246316.653    24246328.6884
  21256022.411   -24269702.534 9 -18899108.90047  21256021.632    21256029.7094
  21161891.323   -26636967.830 9 -20738022.95547  21161891.168    21161898.5674
  24387337.273    -7861564.344 7  -5603687.97645  24387336.688    24387353.7394
  24465046.522    -2972424.649 7  -1999109.44445  24465046.042    24465067.7924
